[[{"header":{"parameterUnit":"m.s-1","parameterCategory":1,"la1":31.0,"la2":29.5877,"lo1":-88.7671,"lo2":-86.6584,"dy":0.0162,"dx":0.0185,"nx":115,"ny":88,"refTime":"2024-07-25T06:00:00:Z","depth":0,"parameterNumber":2,"parameterNumberName":"U-component_of_WINDS"},"data":[0.0,0.0,0.0,0.0,0.0,0.0,0.0,0.0,0.0,0.0,0.0,0.0,0.0,0.0,0.0,0.0,0.0,0.0,0.0,0.0,0.0,0.0,0.0,0.0,0.0,0.0,0.0,0.0,0.0,0.0,0.0,0.0,0.0,0.0,0.0,0.0,0.0,0.0,0.0,0.0,0.0,0.0,0.0,0.0,0.0,0.0,0.0,0.0,0.0,0.0,0.0,0.0,0.0,0.0,0.0,0.0,0.0,0.0,0.0,0.0,0.0,0.0,0.0,0.0,0.0,0.0,0.0,0.0,0.0,0.0,0.0,0.0,0.0,0.0,0.0,0.0,0.0,0.0,0.0,0.0,0.0,0.0,0.0,0.0,0.0,0.0,0.0,0.0,0.0,0.0,0.0,0.0,0.0,0.0,0.0,0.0,0.0,0.0,0.0,0.0,0.0,0.0,0.0,0.0,0.0,0.0,0.0,0.0,0.0,0.0,0.0,0.0,0.0,0.0,0.0,0.0,0.0,0.0,0.0,0.0,0.0,0.0,0.0,0.0,0.0,0.0,0.0,0.0,0.0,0.0,0.0,0.0,0.0,0.0,0.0,0.0,0.0,0.0,0.0,0.0,0.0,0.0,0.0,0.0,0.0,0.0,0.0,0.0,0.0,0.0,0.0,0.0,0.0,0.0,0.0,0.0,0.0,0.0,0.0,0.0,0.0,0.0,0.0,0.0,0.0,0.0,0.0,0.0,0.0,0.0,0.0,0.0,0.0,0.0,0.0,0.0,0.0,0.0,0.0,0.0,0.0,0.0,0.0,0.0,0.0,0.0,0.0,0.0,0.0,0.0,0.0,0.0,0.0,0.0,0.0,0.0,0.0,0.0,0.0,0.0,0.0,0.0,0.0,0.0,0.0,0.0,0.0,0.0,0.0,0.0,0.0,0.0,0.0,0.0,0.0,0.0,0.0,0.0,0.0,0.0,0.0,0.0,0.0,0.0,0.0,0.0,0.0,0.0,0.0,0.0,0.0,0.0,0.0,0.0,0.0,0.0,0.0,0.0,0.0,0.0,0.0,0.0,0.0,0.0,0.0,0.0,0.0,0.0,0.0,0.0,0.0,0.0,0.0,0.0,0.0,0.0,0.0,0.0,0.0,0.0,0.0,0.0,0.0,0.0,0.0,0.0,0.0,0.0,0.0,0.0,0.0,0.0,0.0,0.0,0.0,0.0,0.0,0.0,0.0,0.0,0.0,0.0,0.0,0.0,0.0,0.0,0.0,0.0,0.0,0.0,0.0,0.0,0.0,0.0,0.0,0.0,0.0,0.0,0.0,0.0,0.0,0.0,0.0,0.0,0.0,0.0,0.0,0.0,0.0,0.0,0.0,0.0,0.0,0.0,0.0,0.0,0.0,0.0,0.0,0.0,0.0,0.0,0.0,0.0,0.0,0.0,0.0,0.0,0.0,0.0,0.0,0.0,0.0,0.0,0.0,0.0,0.0,0.0,0.0,0.0,0.0,0.0,0.0,0.0,0.0,0.0,0.0,0.0,0.0,0.0,0.0,0.0,0.0,0.0,0.0,0.0,0.0,0.0,0.0,0.0,0.0,0.0,0.0,0.0,0.0,0.0,0.0,0.0,0.0,0.0,0.0,0.0,0.0,0.0,0.0,0.0,0.0,0.0,0.0,0.0,0.0,0.0,0.0,0.0,0.0,0.0,0.0,0.0,0.0,0.0,0.0,0.0,0.0,0.0,0.0,0.0,0.0,0.0,0.0,0.0,0.0,0.0,0.0,0.0,0.0,0.0,0.0,0.0,0.0,0.0,0.0,0.0,0.0,0.0,0.0,0.0,0.0,0.0,0.0,0.0,0.0,0.0,0.0,0.0,0.0,0.0,0.0,0.0,0.0,0.0,0.0,0.0,0.0,0.0,0.0,0.0,0.0,0.0,0.0,0.0,0.0,0.0,0.0,0.0,0.0,0.0,0.0,0.0,0.0,0.0,0.0,0.0,0.0,0.0,0.0,0.0,0.0,0.0,0.0,0.0,0.0,0.0,0.0,0.0,0.0,0.0,0.0,0.0,0.0,0.0,0.0,0.0,0.0,0.0,0.0,0.0,0.0,0.0,0.0,0.0,0.0,0.0,0.0,0.0,0.0,0.0,0.0,0.0,0.0,0.0,0.0,0.0,0.0,0.0,0.0,0.0,0.0,0.0,0.0,0.0,0.0,0.0,0.0,0.0,0.0,0.0,0.0,0.0,0.0,0.0,0.0,0.0,0.0,0.0,0.0,0.0,0.0,0.0,0.0,0.0,0.0,0.0,0.0,0.0,0.0,0.0,0.0,0.0,0.0,0.0,0.0,0.0,0.0,0.0,0.0,0.0,0.0,0.0,0.0,0.0,0.0,0.0,0.0,0.0,0.0,0.0,0.0,0.0,0.0,0.0,0.0,0.0,0.0,0.0,0.0,0.0,0.0,0.0,0.0,0.0,0.0,0.0,0.0,0.0,0.0,0.0,0.0,0.0,0.0,0.0,0.0,0.0,0.0,0.0,0.0,0.0,0.0,0.0,0.0,0.0,0.0,0.0,0.0,0.0,0.0,0.0,0.0,0.0,0.0,0.0,0.0,0.0,0.0,0.0,0.0,0.0,0.0,0.0,0.0,0.0,0.0,0.0,0.0,0.0,0.0,0.0,0.0,0.0,0.0,0.0,0.0,0.0,0.0,0.0,0.0,0.0,0.0,0.0,0.0,0.0,0.0,0.0,0.0,0.0,0.0,0.0,0.0,0.0,0.0,0.0,0.0,0.0,0.0,0.0,0.0,0.0,0.0,0.0,0.0,0.0,0.0,0.0,0.0,0.0,0.0,0.0,0.0,0.0,0.0,0.0,0.0,0.0,0.0,0.0,0.0,0.0,0.0,0.0,0.0,0.0,0.0,0.0,0.0,0.0,0.0,0.0,0.0,0.0,0.0,0.0,0.0,0.0,0.0,0.0,0.0,0.0,0.0,0.0,0.0,0.0,0.0,0.0,0.0,0.0,0.0,0.0,0.0,0.0,0.0,0.0,0.0,0.0,0.0,0.0,0.0,0.0,0.0,0.0,0.0,0.0,0.0,0.0,0.0,0.0,0.0,0.0,0.0,0.0,0.0,0.0,0.0,0.0,0.0,0.0,0.0,0.0,0.0,0.0,0.0,0.0,0.0,0.0,0.0,0.0,0.0,0.0,0.0,0.0,0.0,0.0,0.0,0.0,0.0,0.0,0.0,0.0,0.0,0.0,0.0,0.0,0.0,0.0,0.0,0.0,0.0,0.0,0.0,0.0,0.0,0.0,0.0,0.0,0.0,0.0,0.0,0.0,0.0,0.0,0.0,0.0,0.0,0.0,0.0,0.0,0.0,0.0,0.0,0.0,0.0,0.0,0.0,0.0,0.0,0.0,0.0,0.0,0.0,0.0,0.0,0.0,0.0,0.0,0.0,0.0,0.0,0.0,0.0,0.0,0.0,0.0,0.0,0.0,0.0,0.0,0.0,0.0,0.0,0.0,0.0,0.0,0.0,0.0,0.0,0.0,0.0,0.0,0.0,0.0,0.0,0.0,0.0,0.0,0.0,0.0,0.0,0.0,0.0,0.0,0.0,0.0,0.0,0.0,0.0,0.0,0.0,0.0,0.0,0.0,0.0,0.0,0.0,0.0,0.0,0.0,0.0,0.0,0.0,0.0,0.0,0.0,0.0,0.0,0.0,0.0,0.0,0.0,0.0,0.0,0.0,0.0,0.0,0.0,0.0,0.0,0.0,0.0,0.0,0.0,0.0,0.0,0.0,0.0,0.0,0.0,0.0,0.0,0.0,0.0,0.0,0.0,0.0,0.0,0.0,0.0,0.0,0.0,0.0,0.0,0.0,0.0,0.0,0.0,0.0,0.0,0.0,0.0,0.0,0.0,0.0,0.0,0.0,0.0,0.0,0.0,0.0,0.0,0.0,0.0,0.0,0.0,0.0,0.0,0.0,0.0,0.0,0.0,0.0,0.0,0.0,0.0,0.0,0.0,0.0,0.0,0.0,0.0,0.0,0.0,0.0,0.0,0.0,0.0,0.0,0.0,0.0,0.0,0.0,0.0,0.0,0.0,0.0,0.0,0.0,0.0,0.0,0.0,0.0,0.0,0.0,0.0,0.0,0.0,0.0,0.0,0.0,0.0,0.0,0.0,0.0,0.0,0.0,0.0,0.0,0.0,0.0,0.0,0.0,0.0,0.0,0.0,0.0,0.0,0.0,0.0,0.0,0.0,0.8631,0.0,0.0,0.0,0.0,0.0,0.0,0.0,0.0,0.0,0.0,0.0,0.0,0.0,0.0,0.0,0.0,0.0,0.0,0.0,0.0,0.0,0.0,0.0,0.0,0.0,0.0,0.0,0.0,0.0,0.0,0.0,0.0,0.0,0.0,0.0,0.0,0.0,0.0,0.0,0.0,0.0,0.0,0.0,0.0,0.0,0.0,0.0,0.0,0.0,0.0,0.0,0.0,0.0,0.0,0.0,0.0,0.0,0.0,0.0,0.0,0.0,0.0,0.0,0.0,0.0,0.0,0.0,0.0,0.0,0.0,0.0,0.0,0.0,0.0,0.0,0.0,0.0,0.0,0.0,0.0,0.0,0.0,0.0,0.0,0.0,0.0,0.0,0.0,0.0,0.0,0.0,0.0,0.0,0.0,0.0,0.0,0.0,0.0,0.0,0.0,0.0,0.0,0.0,0.0,0.0,0.0,0.0,0.0,0.0,0.0,0.8365,0.8481,0.8676,0.869,0.8547,0.0,0.0,0.0,0.0,0.0,0.0,0.0,0.0,0.0,0.0,0.0,0.0,0.0,0.0,0.0,0.0,0.0,0.0,0.0,0.0,0.0,0.0,0.0,0.0,0.0,0.0,0.0,0.0,0.0,0.0,0.0,0.0,0.0,0.0,0.0,0.0,0.0,0.0,0.0,0.0,0.0,0.0,0.0,0.0,0.0,0.0,0.0,0.0,0.0,0.0,0.0,0.0,0.0,0.0,0.0,0.0,0.0,0.0,0.0,0.0,0.0,0.0,0.0,0.0,0.0,0.0,0.0,0.0,0.0,0.0,0.0,0.0,0.0,0.0,0.0,0.0,0.0,0.0,0.0,0.0,0.0,0.0,0.0,0.0,0.0,0.0,0.0,0.0,0.0,0.0,0.0,0.0,0.0,0.0,0.0,0.0,0.0,0.0,0.0,0.0,0.0,0.0,0.0,0.0,0.0,0.0,0.0,0.0,0.0,0.0,0.0,0.0,0.8861,0.8805,0.8445,0.0,0.0,0.0,0.0,0.0,0.0,0.0,0.0,0.0,0.0,0.0,0.0,0.0,0.0,0.0,0.0,0.0,0.0,0.0,0.0,0.0,0.0,0.0,0.0,0.0,0.0,0.0,0.0,0.0,0.0,0.0,0.0,0.0,0.0,0.0,0.0,0.0,0.0,0.0,0.0,0.0,0.0,0.0,0.0,0.0,0.0,0.0,0.0,0.0,0.0,0.0,0.0,0.0,0.0,0.0,0.0,0.0,0.0,0.0,0.0,0.0,0.0,0.0,0.0,0.0,0.0,0.0,0.0,0.0,0.0,0.0,0.0,0.0,0.0,0.0,0.0,0.0,0.0,0.0,0.0,0.0,0.0,0.0,0.0,0.0,0.0,0.0,0.0,0.0,0.0,0.0,0.0,0.0,0.0,0.0,0.0,0.0,0.0,0.0,0.0,0.0,0.0,0.0,0.0,0.0,0.0,0.0,0.0,0.0,0.0,0.8496,0.9292,0.9217,0.0,0.8593,0.0,0.0,0.0,0.0,0.0,0.0,0.0,0.0,0.0,0.0,0.0,0.0,0.0,0.0,0.0,0.0,0.0,0.0,0.0,0.0,0.0,0.0,0.0,0.0,0.0,0.0,0.0,0.0,0.0,0.0,0.0,0.0,0.0,0.0,0.0,0.0,0.0,0.0,0.0,0.0,0.0,0.0,0.0,0.0,0.0,0.0,0.0,0.0,0.0,0.0,0.0,0.0,0.0,0.0,0.0,0.0,0.0,0.0,0.0,0.0,0.0,0.0,0.0,0.0,0.0,0.0,0.0,0.0,0.0,0.0,0.0,0.0,0.0,0.0,0.0,0.0,0.0,0.0,0.0,0.0,0.0,0.0,0.0,0.0,0.0,0.0,0.0,0.0,0.0,0.0,0.0,0.0,0.0,0.0,0.0,0.0,0.0,0.0,0.0,0.0,0.0,0.0,0.0,0.0,0.0,0.0,0.0,0.0,0.0,0.0,0.0,0.9323,0.913,0.8724,0.0,0.0,0.0,0.0,0.0,0.0,0.0,0.0,0.0,0.0,0.0,0.0,0.0,0.0,0.0,0.0,0.0,0.0,0.0,0.0,0.0,0.0,0.0,0.0,0.0,0.0,0.0,0.0,0.0,0.0,0.0,0.0,0.0,0.0,0.0,0.0,0.0,0.0,0.0,0.0,0.0,0.0,0.0,0.0,0.0,0.0,0.0,0.0,0.0,0.0,0.0,0.0,0.0,0.0,0.0,0.0,0.0,0.0,0.0,0.0,0.0,0.0,0.0,0.0,0.0,0.0,0.0,0.0,0.0,0.0,0.0,0.0,0.0,0.0,0.0,0.0,0.0,0.0,0.0,0.0,0.0,0.0,0.0,0.0,0.0,0.0,0.0,0.0,0.0,0.0,0.0,0.0,0.0,0.0,0.0,0.0,0.0,0.0,0.0,0.0,0.0,0.0,0.0,0.0,0.0,0.0,0.0,0.0,0.0,0.0,0.8838,0.0,0.9167,0.9041,0.849,0.7511,0.0,0.0,0.0,0.0,0.0,0.0,0.0,0.0,0.0,0.0,0.0,0.0,0.0,0.0,0.0,0.0,0.0,0.0,0.0,0.0,0.0,0.0,0.0,0.0,0.0,0.0,0.0,0.0,0.0,0.0,0.0,0.0,0.0,0.0,0.0,0.0,0.0,0.0,0.0,0.0,0.0,0.0,0.0,0.0,0.0,0.0,0.0,0.0,0.0,0.0,0.0,0.0,0.0,0.0,0.0,0.0,0.0,0.0,0.0,0.0,0.0,0.0,0.0,0.0,0.0,0.0,0.0,0.0,0.0,0.0,0.0,0.0,0.0,0.0,0.0,0.0,0.0,0.0,0.0,0.0,0.0,0.0,0.0,0.0,0.0,0.0,0.0,0.0,0.0,0.0,0.0,0.0,0.0,0.0,0.0,0.0,0.0,0.0,0.0,0.0,0.0,0.0,0.0,0.0,0.0,0.0,0.0,0.0,0.0,0.9329,0.8918,0.8936,0.9032,0.8409,0.0,0.0,0.0,0.0,0.0,0.0,0.0,0.0,0.0,0.0,0.0,0.0,0.0,0.0,0.0,0.0,0.0,0.0,0.0,0.0,0.0,0.0,0.0,0.0,0.0,0.0,0.0,0.0,0.0,0.0,0.0,0.0,0.0,0.0,0.0,0.0,0.0,0.0,0.0,0.0,0.0,0.0,0.0,0.0,0.0,0.0,0.0,0.0,0.0,0.0,0.0,0.0,0.0,0.0,0.0,0.0,0.0,0.0,0.0,0.0,0.0,0.0,0.0,0.0,0.0,0.0,0.0,0.0,0.0,0.0,0.0,0.0,0.0,0.0,0.0,0.0,0.0,0.0,0.0,0.0,0.0,0.0,0.0,0.0,0.0,0.0,0.0,0.0,0.0,0.0,0.0,0.0,0.0,0.0,0.0,0.0,0.0,0.0,0.0,0.0,0.0,0.0,0.0,0.0,0.0,0.0,0.0,0.0,0.0,0.8587,0.872,0.8904,0.9133,0.8615,0.7753,0.0,0.0,0.0,0.0,0.0,0.0,0.0,0.0,0.0,0.0,0.0,0.0,0.0,0.0,0.0,0.0,0.0,0.0,0.0,0.0,0.0,0.0,0.0,0.0,0.0,0.0,0.0,0.0,0.0,0.0,0.0,0.0,0.0,0.0,0.0,0.0,0.0,0.0,0.0,0.0,0.0,0.0,0.0,0.0,0.0,0.0,0.0,0.0,0.0,0.0,0.0,0.0,0.0,0.0,0.0,0.0,0.0,0.0,0.0,0.0,0.0,0.0,0.0,0.0,0.0,0.0,0.0,0.0,0.0,0.0,0.0,0.0,0.0,0.0,0.0,0.0,0.0,0.0,0.0,0.0,0.0,0.0,0.0,0.0,0.0,0.0,0.0,0.0,0.0,0.0,0.0,0.0,0.0,0.0,0.0,0.0,0.0,0.0,0.0,0.0,0.0,0.0,0.0,0.0,0.0,0.0,0.0,0.0,0.0,0.8065,0.0,0.911,0.0,0.8351,0.7361,0.0,0.0,0.0,0.0,0.0,0.0,0.0,0.0,0.0,0.0,0.0,0.0,0.0,0.0,0.0,0.0,0.0,0.0,0.0,0.0,0.0,0.0,0.0,0.0,0.0,0.0,0.0,0.0,0.0,0.0,0.0,0.0,0.0,0.0,0.0,0.0,0.0,0.0,0.0,0.0,0.0,0.0,0.0,0.0,0.0,0.0,0.0,0.0,0.0,0.0,0.0,0.0,0.0,0.0,0.0,0.0,0.0,0.0,0.0,0.0,0.0,0.0,0.0,0.0,0.0,0.0,0.0,0.0,0.0,0.0,0.0,0.0,0.0,0.0,0.0,0.0,0.0,0.0,0.0,0.0,0.0,0.0,0.0,0.0,0.0,0.0,0.0,0.0,0.0,0.0,0.0,0.0,0.0,0.0,0.0,0.0,0.0,0.0,0.0,0.0,0.0,0.0,0.0,0.0,0.0,0.0,0.0,0.0,0.7729,0.8851,0.9692,0.9456,0.8175,0.8262,0.7296,0.0,0.0,0.0,0.0,0.0,0.0,0.0,0.0,0.0,0.0,0.0,0.0,0.0,0.0,0.0,0.0,0.0,0.0,0.0,0.0,0.0,0.0,0.0,0.0,0.0,0.0,0.0,0.0,0.0,0.0,0.0,0.0,0.0,0.0,0.0,0.0,0.0,0.0,0.0,0.0,0.0,0.0,0.0,0.0,0.0,0.0,0.0,0.0,0.0,0.0,0.0,0.0,0.0,0.0,0.0,0.0,0.0,0.0,0.0,0.0,0.0,0.0,0.0,0.0,0.0,0.0,0.0,0.0,0.0,0.0,0.0,0.0,0.0,0.0,0.0,0.0,0.0,0.0,0.0,0.0,0.0,0.0,0.0,0.0,0.0,0.0,0.0,0.0,0.0,0.0,0.0,0.0,0.0,0.0,0.0,0.0,0.0,0.0,0.0,0.0,0.0,0.0,0.0,0.0,0.0,0.0,0.0,0.0,0.0,0.814,0.8727,0.8817,0.8374,0.7539,0.6674,0.0,0.0,0.0,0.0,0.0,0.0,0.0,0.0,0.0,0.0,0.0,0.0,0.0,0.0,0.0,0.0,0.0,0.0,0.0,0.0,0.0,0.0,0.0,0.0,0.0,0.0,0.0,0.0,0.0,0.0,0.0,0.0,0.0,0.0,0.0,0.0,0.0,0.0,0.0,0.0,0.0,0.0,0.0,0.0,0.0,0.0,0.0,0.0,0.0,0.0,0.0,0.0,0.0,0.0,0.0,0.0,0.0,0.0,0.0,0.0,0.0,0.0,0.0,0.0,0.0,0.0,0.0,0.0,0.0,0.0,0.0,0.0,0.0,0.0,0.0,0.0,0.0,0.0,0.0,0.0,0.0,0.0,0.0,0.0,0.0,0.0,0.0,0.0,0.0,0.0,0.0,0.0,0.0,0.0,0.0,0.0,0.0,0.0,0.0,0.0,0.0,0.0,0.0,0.0,0.0,0.0,0.0,0.0,0.0,0.7935,0.849,0.8562,0.8092,0.742,0.6665,0.5783,0.0,0.0,0.0,0.0,0.0,0.0,0.0,0.0,0.0,0.0,0.0,0.0,0.0,0.0,0.0,0.0,0.0,0.0,0.0,0.0,0.0,0.0,0.0,0.0,0.0,0.0,0.0,0.0,0.0,0.0,0.0,0.0,0.0,0.0,0.0,0.0,0.0,0.0,0.0,0.0,0.0,0.0,0.0,0.0,0.0,0.0,0.0,0.0,0.0,0.0,0.0,0.0,0.0,0.0,0.0,0.0,0.0,0.0,0.0,0.0,0.0,0.0,0.0,0.0,0.0,0.0,0.0,0.0,0.0,0.0,0.0,0.0,0.0,0.0,0.0,0.0,0.0,0.0,0.0,0.0,0.0,0.0,0.0,0.0,0.0,0.0,0.0,0.0,0.0,0.0,0.0,0.0,0.0,0.0,0.0,0.0,0.0,0.0,0.0,0.0,0.0,0.0,0.0,0.0,0.0,0.0,0.0,0.0,0.8059,0.8837,0.8693,0.7565,0.778,0.7113,0.0,0.0,0.0,0.0,0.0,0.0,0.0,0.0,0.0,0.0,0.0,0.0,0.0,0.0,0.0,0.0,0.0,0.0,0.0,0.0,0.0,0.0,0.0,0.0,0.0,0.0,0.0,0.0,0.0,0.0,0.0,0.0,0.0,0.0,0.0,0.0,0.0,0.0,0.0,0.0,0.0,0.0,0.0,0.0,0.0,0.0,0.0,0.0,0.0,0.0,0.0,0.0,0.0,0.0,0.0,0.0,0.0,0.0,0.0,0.0,0.0,0.0,0.0,0.0,0.0,0.0,0.0,0.0,0.0,0.0,0.0,0.0,0.0,0.0,0.0,0.0,0.0,0.0,0.0,0.0,0.0,0.0,0.0,0.0,0.0,0.0,0.0,0.0,0.0,0.0,0.0,0.0,0.0,0.0,0.0,0.0,0.0,0.0,0.0,0.0,0.0,0.0,0.0,0.0,0.0,0.0,0.0,0.0,0.0,0.7641,0.8278,0.8582,0.8505,0.7795,0.6963,0.0,0.0,0.0,0.0,0.0,0.0,0.0,0.0,0.0,0.0,0.0,0.0,0.0,0.0,0.0,0.0,0.0,0.0,0.0,0.0,0.0,0.0,0.0,0.0,0.0,0.0,0.0,0.0,0.0,0.0,0.0,0.0,0.0,0.0,0.0,0.0,0.0,0.0,0.0,0.0,0.0,0.0,0.0,0.0,0.0,0.0,0.0,0.0,0.0,0.0,0.0,0.0,0.0,0.0,0.0,0.0,0.0,0.0,0.0,0.0,0.0,0.0,0.0,0.0,0.0,0.0,0.0,0.0,0.0,0.0,0.0,0.0,0.0,0.0,0.0,0.0,0.0,0.0,0.0,0.0,0.0,0.0,0.0,0.0,0.0,0.0,0.0,0.0,0.0,0.0,0.0,0.0,0.0,0.0,0.0,0.0,0.0,0.0,0.0,0.0,0.0,0.0,0.0,0.0,0.0,0.0,0.0,0.0,0.6895,0.75,0.7948,0.8171,0.8139,0.7658,0.6976,0.0,0.0,0.0,0.0,0.0,0.0,0.0,0.0,0.0,0.0,0.0,0.0,0.0,0.0,0.0,0.0,0.0,0.0,0.0,0.0,0.0,0.0,0.0,0.0,0.0,0.0,0.0,0.0,0.0,0.0,0.0,0.0,0.0,0.0,0.0,0.0,0.0,0.0,0.0,0.0,0.0,0.0,0.0,0.0,0.0,0.0,0.0,0.0,0.0,0.0,0.0,0.0,0.0,0.0,0.0,0.0,0.0,0.0,0.0,0.0,0.0,0.0,0.0,0.0,0.0,0.0,0.0,0.0,0.0,0.0,0.0,0.0,0.0,0.0,0.0,0.0,0.0,0.0,0.0,0.0,0.0,0.0,0.0,0.0,0.0,0.0,0.0,0.0,0.0,0.0,0.0,0.0,0.0,0.0,0.0,0.0,0.0,0.0,0.0,0.0,0.0,0.0,0.0,0.0,0.0,0.0,0.0,0.0,0.7002,0.7476,0.7766,0.7637,0.7133,0.7413,0.702,0.0,0.0,0.0,0.0,0.0,0.0,0.0,0.0,0.0,0.0,0.0,0.0,0.0,0.0,0.0,0.0,0.0,0.0,0.0,0.0,0.0,0.0,0.0,0.0,0.0,0.0,0.0,0.0,0.0,0.0,0.0,0.0,0.0,0.0,0.0,0.0,0.0,0.0,0.0,0.0,0.0,0.0,0.0,0.0,0.0,0.0,0.0,0.0,0.0,0.0,0.0,0.0,0.0,0.0,0.0,0.0,0.0,0.0,0.0,0.0,0.0,0.0,0.0,0.0,0.0,0.0,0.0,0.0,0.0,0.0,0.0,0.0,0.0,0.0,0.0,0.0,0.0,0.0,0.0,0.0,0.0,0.0,0.0,0.0,0.0,0.0,0.0,0.0,0.0,0.0,0.0,0.0,0.0,0.0,0.0,0.0,0.0,0.0,0.0,0.0,0.0,0.0,0.0,0.0,0.0,0.0,0.0,0.0,0.7037,0.7488,0.776,0.7664,0.7133,0.6926,0.6427,0.0,0.0,0.0,0.0,0.0,0.0,0.0,0.0,0.0,0.0,0.0,0.0,0.0,0.0,0.0,0.0,0.0,0.0,0.0,0.0,0.0,0.0,0.0,0.0,0.0,0.0,0.0,0.0,0.0,0.0,0.0,0.0,0.0,0.0,0.0,0.0,0.0,0.0,0.0,0.0,0.0,0.0,0.0,0.0,0.0,0.0,0.0,0.0,0.7653,0.0,0.0,0.0,0.0,0.0,0.0,0.0,0.0,0.0,0.0,0.0,0.0,0.0,0.0,0.0,0.0,0.0,0.0,0.0,0.0,0.0,0.0,0.0,0.0,0.0,0.0,0.0,0.0,0.0,0.0,0.0,0.0,0.0,0.0,0.0,0.0,0.0,0.0,0.0,0.0,0.0,0.0,0.0,0.0,0.0,0.0,0.0,0.0,0.0,0.0,0.0,0.0,0.0,0.0,0.0,0.0,0.0,0.0,0.0,0.6566,0.6964,0.7057,0.688,0.6399,0.6136,0.5859,0.0,0.0,0.0,0.0,0.0,0.0,0.0,0.0,0.0,0.0,0.0,0.0,0.0,0.0,0.0,0.0,0.0,0.0,0.0,0.0,0.0,0.0,0.0,0.0,0.0,0.0,0.0,0.0,0.0,0.0,0.0,0.0,0.0,0.0,0.0,0.0,0.0,0.0,0.0,0.0,0.0,0.0,0.0,0.0,0.0,0.0,0.0,0.0,0.0,0.0,0.0,0.0,0.0,0.0,0.0,0.0,0.0,0.0,0.0,0.0,0.0,0.0,0.0,0.0,0.0,0.0,0.0,0.0,0.0,0.0,0.0,0.0,0.0,0.0,0.0,0.0,0.0,0.0,0.0,0.0,0.0,0.0,0.0,0.0,0.0,0.0,0.0,0.0,0.0,0.0,0.0,0.0,0.0,0.0,0.0,0.0,0.0,0.0,0.0,0.0,0.0,0.0,0.0,0.0,0.0,0.0,0.0,0.5819,0.6168,0.6399,0.6295,0.6023,0.5618,0.5407,0.5394,0.553,0.0,0.0,0.0,0.0,0.0,0.0,0.0,0.0,0.0,0.0,0.0,0.0,0.0,0.0,0.0,0.0,0.0,0.0,0.0,0.0,0.0,0.0,0.0,0.0,0.0,0.0,0.0,0.0,0.0,0.0,0.0,0.0,0.0,0.0,0.0,0.0,0.0,0.0,0.792,0.8234,0.0,0.0,0.0,0.0,0.0,0.0,0.0,0.0,0.7264,0.0,0.0,0.0,0.0,0.0,0.0,0.0,0.0,0.0,0.0,0.0,0.0,0.0,0.0,0.0,0.0,0.0,0.0,0.0,0.0,0.0,0.0,0.0,0.0,0.0,0.0,0.0,0.0,0.0,0.0,0.0,0.0,0.0,0.0,0.0,0.0,0.0,0.0,0.0,0.0,0.0,0.0,0.0,0.0,0.0,0.0,0.0,0.0,0.0,0.0,0.0,0.0,0.0,0.0,0.0,0.0,0.5625,0.6363,0.6634,0.6404,0.6381,0.6136,0.5622,0.5407,0.5208,0.494,0.0,0.0,0.0,0.0,0.0,0.0,0.0,0.0,0.0,0.0,0.0,0.0,0.0,0.0,0.0,0.0,0.0,0.0,0.0,0.0,0.0,0.0,0.0,0.0,0.0,0.0,0.0,0.0,0.0,0.0,0.0,0.0,0.0,0.0,0.0,0.0,0.0,0.0,0.0,0.8638,0.8946,0.0,0.0,0.0,0.0,0.0,0.0,0.0,0.0,0.6698,0.0,0.0,0.0,0.0,0.0,0.0,0.0,0.0,0.0,0.0,0.0,0.0,0.0,0.0,0.0,0.0,0.0,0.0,0.0,0.0,0.0,0.0,0.0,0.0,0.0,0.0,0.0,0.0,0.0,0.0,0.0,0.0,0.0,0.0,0.0,0.0,0.0,0.0,0.0,0.0,0.0,0.0,0.0,0.0,0.0,0.0,0.0,0.0,0.0,0.0,0.0,0.0,0.0,0.0,0.0,0.5334,0.61,0.635,0.5996,0.5891,0.5622,0.514,0.5055,0.4701,0.0,0.0,0.0,0.0,0.0,0.0,0.0,0.0,0.0,0.0,0.0,0.0,0.0,0.0,0.0,0.0,0.0,0.0,0.0,0.0,0.0,0.0,0.0,0.0,0.0,0.0,0.0,0.0,0.0,0.0,0.0,0.0,0.0,0.0,0.0,0.0,0.0,0.0,0.0,0.0,0.8415,0.8265,0.8423,0.0,0.0,0.0,0.0,0.0,0.0,0.62,0.6179,0.0,0.0,0.0,0.0,0.0,0.0,0.0,0.0,0.0,0.0,0.0,0.0,0.0,0.0,0.0,0.0,0.0,0.0,0.0,0.0,0.0,0.0,0.0,0.0,0.0,0.0,0.0,0.0,0.0,0.0,0.0,0.0,0.0,0.0,0.0,0.0,0.0,0.0,0.0,0.0,0.0,0.0,0.0,0.0,0.0,0.0,0.0,0.0,0.0,0.0,0.0,0.0,0.0,0.0,0.0,0.5037,0.5777,0.5986,0.5618,0.543,0.5191,0.4845,0.4857,0.4388,0.0,0.0,0.0,0.0,0.0,0.0,0.0,0.0,0.0,0.0,0.0,0.0,0.0,0.0,0.0,0.0,0.0,0.0,0.0,0.0,0.0,0.0,0.0,0.0,0.0,0.0,0.0,0.0,0.0,0.0,0.0,0.0,0.0,0.0,0.0,0.0,0.0,0.0,0.0,0.0,0.0,0.7696,0.7529,0.7145,0.0,0.0,0.0,0.0,0.571,0.5693,0.0,0.0,0.0,0.0,0.0,0.0,0.0,0.0,0.0,0.0,0.0,0.0,0.0,0.0,0.0,0.0,0.0,0.0,0.0,0.0,0.0,0.0,0.0,0.0,0.0,0.0,0.0,0.0,0.0,0.0,0.0,0.0,0.0,0.0,0.0,0.0,0.0,0.0,0.0,0.0,0.0,0.0,0.0,0.0,0.0,0.0,0.0,0.0,0.0,0.0,0.0,0.0,0.0,0.0,0.0,0.0,0.5365,0.5792,0.5906,0.5609,0.5595,0.5437,0.523,0.5124,0.4704,0.0,0.0,0.0,0.0,0.0,0.0,0.0,0.0,0.0,0.0,0.0,0.0,0.0,0.0,0.0,0.0,0.0,0.0,0.0,0.0,0.0,0.0,0.0,0.0,0.0,0.0,0.0,0.0,0.0,0.0,0.0,0.0,0.0,0.0,0.0,0.0,0.0,0.0,0.0,0.0,0.0,0.8044,0.7046,0.6656,0.6225,0.0,0.0,0.5283,0.5193,0.5519,0.0,0.0,0.0,0.0,0.0,0.0,0.0,0.0,0.0,0.0,0.0,0.0,0.0,0.0,0.0,0.0,0.0,0.0,0.0,0.0,0.0,0.0,0.0,0.0,0.0,0.0,0.0,0.0,0.0,0.0,0.0,0.0,0.0,0.0,0.0,0.0,0.0,0.0,0.0,0.0,0.0,0.0,0.0,0.0,0.0,0.0,0.0,0.0,0.0,0.0,0.0,0.0,0.0,0.0,0.0,0.5438,0.5634,0.6022,0.5972,0.5458,0.5434,0.5182,0.4688,0.4731,0.4237,0.0,0.0,0.0,0.0,0.0,0.0,0.0,0.0,0.0,0.0,0.0,0.0,0.0,0.0,0.0,0.0,0.0,0.0,0.0,0.0,0.0,0.0,0.0,0.0,0.0,0.0,0.0,0.0,0.0,0.0,0.0,0.0,0.0,0.0,0.0,0.0,0.0,0.0,0.0,0.0,0.0,0.0,0.6413,0.5833,0.0,0.0,0.0,0.4174,0.3844,0.0,0.0,0.0,0.0,0.0,0.0,0.0,0.0,0.0,0.0,0.0,0.0,0.0,0.0,0.0,0.0,0.0,0.0,0.0,0.0,0.0,0.0,0.0,0.0,0.0,0.0,0.0,0.0,0.0,0.0,0.0,0.0,0.0,0.0,0.0,0.0,0.0,0.0,0.0,0.0,0.0,0.0,0.0,0.0,0.0,0.0,0.0,0.0,0.0,0.0,0.0,0.0,0.0,0.0,0.0,0.0,0.0,0.5716,0.6056,0.5923,0.5325,0.5253,0.498,0.4411,0.4485,0.0,0.0,0.0,0.0,0.0,0.0,0.0,0.0,0.0,0.0,0.0,0.0,0.0,0.0,0.0,0.0,0.0,0.0,0.0,0.0,0.0,0.0,0.0,0.0,0.0,0.0,0.0,0.3726,0.0,0.0,0.0,0.0,0.0,0.0,0.0,0.0,0.0,0.0,0.0,0.0,0.0,0.0,0.6468,0.5639,0.506,0.4443,0.0,0.0,0.36,0.3169,0.3602,0.407,0.0,0.0,0.0,0.0,0.0,0.0,0.0,0.0,0.0,0.0,0.0,0.0,0.0,0.0,0.0,0.0,0.0,0.0,0.0,0.0,0.0,0.0,0.0,0.0,0.0,0.0,0.0,0.0,0.0,0.0,0.0,0.0,0.0,0.0,0.0,0.0,0.0,0.0,0.0,0.0,0.0,0.0,0.0,0.0,0.0,0.0,0.0,0.0,0.0,0.0,0.0,0.0,0.0,0.0,0.0,0.5492,0.5596,0.554,0.5293,0.5186,0.5062,0.4956,0.4756,0.4256,0.0,0.0,0.0,0.0,0.0,0.0,0.0,0.0,0.0,0.0,0.0,0.0,0.0,0.0,0.0,0.0,0.0,0.0,0.0,0.0,0.0,0.0,0.0,0.0,0.0,0.0,0.0,0.0,0.0,0.0,0.0,0.0,0.0,0.0,0.0,0.0,0.0,0.0,0.0,0.0,0.0,0.5965,0.4683,0.4459,0.4271,0.0,0.0,0.4118,0.392,0.4494,0.4923,0.4787,0.0,0.0,0.0,0.0,0.0,0.0,0.0,0.0,0.0,0.0,0.0,0.0,0.0,0.0,0.0,0.0,0.0,0.0,0.0,0.0,0.0,0.0,0.0,0.0,0.0,0.0,0.0,0.0,0.0,0.0,0.0,0.0,0.0,0.0,0.0,0.0,0.0,0.0,0.0,0.0,0.0,0.0,0.0,0.0,0.0,0.0,0.0,0.0,0.0,0.0,0.0,0.0,0.0,0.4866,0.5439,0.5648,0.5572,0.5321,0.5257,0.5097,0.4882,0.4586,0.4042,0.0,0.0,0.0,0.0,0.0,0.0,0.0,0.0,0.0,0.0,0.0,0.0,0.0,0.0,0.0,0.0,0.0,0.0,0.0,0.0,0.0,0.0,0.0,0.0,0.0,0.0,0.0,0.0,0.462,0.499,0.5454,0.0,0.0,0.0,0.0,0.0,0.0,0.0,0.0,0.0,0.0,0.5571,0.5019,0.4495,0.0,0.0,0.3507,0.3359,0.3204,0.3524,0.3833,0.4071,0.4661,0.0,0.0,0.0,0.0,0.0,0.0,0.0,0.0,0.0,0.0,0.0,0.0,0.0,0.0,0.0,0.0,0.0,0.0,0.0,0.0,0.0,0.0,0.0,0.0,0.0,0.0,0.0,0.0,0.0,0.0,0.0,0.0,0.0,0.0,0.0,0.0,0.0,0.0,0.0,0.0,0.0,0.0,0.0,0.0,0.0,0.0,0.0,0.0,0.0,0.0,0.0,0.0,0.4781,0.5185,0.5544,0.5603,0.5301,0.5234,0.5124,0.4935,0.4486,0.3949,0.0,0.0,0.0,0.0,0.0,0.0,0.0,0.0,0.0,0.0,0.0,0.0,0.0,0.0,0.0,0.0,0.0,0.0,0.0,0.0,0.0,0.0,0.0,0.0,0.0,0.0,0.0,0.0,0.4514,0.4914,0.5578,0.0,0.0,0.0,0.0,0.0,0.0,0.0,0.0,0.0,0.0,0.5216,0.4992,0.4432,0.3941,0.3602,0.3322,0.31,0.2847,0.3031,0.318,0.3224,0.0,0.0,0.0,0.0,0.0,0.0,0.0,0.0,0.0,0.0,0.0,0.0,0.0,0.0,0.0,0.0,0.0,0.0,0.0,0.0,0.0,0.0,0.0,0.0,0.0,0.0,0.0,0.0,0.0,0.0,0.3999,0.0,0.0,0.0,0.0,0.0,0.0,0.0,0.0,0.0,0.0,0.0,0.0,0.0,0.0,0.0,0.0,0.0,0.0,0.0,0.0,0.0,0.0,0.4575,0.472,0.5288,0.5489,0.5293,0.511,0.5071,0.5162,0.4608,0.4105,0.3671,0.0,0.0,0.0,0.0,0.0,0.0,0.0,0.0,0.0,0.0,0.0,0.0,0.0,0.0,0.0,0.0,0.0,0.0,0.0,0.0,0.0,0.0,0.0,0.0,0.0,0.0,0.4366,0.4616,0.4982,0.0,0.0,0.0,0.0,0.0,0.0,0.0,0.0,0.0,0.0,0.5535,0.4901,0.4332,0.4221,0.3999,0.3497,0.3605,0.3602,0.3158,0.3453,0.3413,0.0,0.0,0.0,0.0,0.0,0.0,0.0,0.0,0.0,0.0,0.0,0.0,0.0,0.0,0.0,0.0,0.0,0.0,0.0,0.0,0.0,0.0,0.0,0.0,0.0,0.0,0.0,0.4623,0.465,0.0,0.0,0.0,0.0,0.0,0.0,0.0,0.0,0.0,0.0,0.0,0.5703,0.5727,0.0,0.0,0.0,0.0,0.0,0.0,0.0,0.0,0.0,0.0,0.0,0.0,0.4433,0.4588,0.5232,0.5513,0.5317,0.5101,0.4964,0.4931,0.4211,0.3568,0.3036,0.0,0.0,0.0,0.0,0.0,0.0,0.0,0.0,0.0,0.0,0.0,0.0,0.0,0.0,0.0,0.0,0.0,0.0,0.0,0.0,0.0,0.0,0.0,0.0,0.0,0.3821,0.0,0.0,0.0,0.0,0.0,0.0,0.0,0.0,0.0,0.0,0.0,0.7161,0.64,0.5517,0.4846,0.4581,0.4187,0.3827,0.0,0.0,0.0,0.0,0.0,0.0,0.0,0.0,0.0,0.0,0.0,0.0,0.0,0.0,0.234,0.3421,0.3271,0.2819,0.2272,0.0,0.0,0.0,0.0,0.0,0.0,0.0,0.0,0.0,0.0,0.0,0.0,0.0,0.0,0.5222,0.0,0.5167,0.0,0.0,0.0,0.0,0.0,0.0,0.0,0.0,0.596,0.6104,0.5957,0.6036,0.5829,0.0,0.5365,0.4811,0.0,0.0,0.0,0.0,0.0,0.0,0.0,0.0,0.4445,0.4715,0.519,0.5375,0.5285,0.5101,0.496,0.4849,0.4004,0.3218,0.2579,0.2403,0.235,0.0,0.0,0.0,0.0,0.0,0.0,0.0,0.0,0.0,0.0,0.0,0.0,0.0,0.0,0.0,0.0,0.0,0.0,0.0,0.0,0.0,0.0,0.0,0.3569,0.0,0.0,0.0,0.0,0.0,0.0,0.0,0.0,0.0,0.9478,0.8387,0.7402,0.6664,0.5673,0.4987,0.4794,0.0,0.0,0.0,0.0,0.0,0.0,0.0,0.1797,0.1165,0.0847,0.057,0.0305,0.0725,0.1231,0.1596,0.0,0.0,0.2441,0.2395,0.2059,0.1516,0.1227,0.0915,0.0474,0.0347,0.0404,0.0,0.0,0.0,0.0,0.0,0.0,0.0,0.0,0.5882,0.5895,0.0,0.5963,0.0,0.0,0.0,0.0,0.0,0.617,0.0,0.0,0.6308,0.6212,0.5384,0.5555,0.5255,0.4606,0.5282,0.5263,0.4647,0.4506,0.0,0.0,0.0,0.0,0.0,0.0,0.4577,0.5064,0.5062,0.5156,0.5262,0.5084,0.4993,0.4943,0.3943,0.306,0.2377,0.2428,0.2414,0.2299,0.2281,0.0,0.0,0.0,0.0,0.0,0.0,0.0,0.0,0.0,0.0,0.0,0.0,0.0,0.0,0.0,0.0,0.0,0.0,0.0,0.0,0.3183,0.0,0.0,0.0,0.0,0.0,0.0,0.0,0.0,0.0,0.0,1.01,0.9112,0.8119,0.7036,0.0,0.0,0.0,0.0,0.4045,0.2875,0.2766,0.2543,0.1677,0.1285,0.0838,0.0084,0.0,0.0,-0.0894,-0.028,0.0449,0.101,0.101,0.101,0.1288,0.1256,0.1034,0.0755,0.0559,0.0252,-0.0112,-0.0195,-0.0196,0.5831,0.0,0.0,0.0,0.0,0.5851,0.5942,0.6048,0.6374,0.6355,0.6142,0.6211,0.0,0.0,0.0,0.0,0.0,0.0,0.6223,0.6072,0.6257,0.6136,0.5811,0.5864,0.5728,0.5441,0.5655,0.5652,0.5468,0.5327,0.5052,0.4625,0.0,0.0,0.0,0.0,0.4603,0.4737,0.4873,0.4956,0.5014,0.4959,0.4777,0.4431,0.3689,0.3086,0.2748,0.2347,0.2119,0.2085,0.2008,0.0,0.0,0.0,0.0,0.0,0.0,0.0,0.0,0.0,0.0,0.0,0.0,0.0,0.0,0.0,0.0,0.0,0.0,0.0,0.3892,0.3551,0.3595,0.0,0.0,0.0,0.0,0.0,0.0,0.0,0.0,0.0,1.0458,0.9317,0.8092,0.0,0.0,0.5215,0.4928,0.4242,0.3438,0.2657,0.2043,0.0,0.0,0.042,-0.0028,-0.0978,-0.1202,-0.1062,-0.0503,0.014,0.0645,0.0925,0.1094,0.1178,0.115,0.0954,0.0729,0.0421,0.0224,0.0028,-0.028,-0.0449,-0.0533,0.5774,0.5822,0.5668,0.5717,0.5863,0.5982,0.6032,0.6146,0.6544,0.6598,0.6471,0.657,0.6475,0.6227,0.6107,0.0,0.0,0.0,0.6161,0.6166,0.609,0.6009,0.6,0.595,0.5841,0.5704,0.5763,0.574,0.5603,0.5599,0.5305,0.4735,0.0,0.0,0.4526,0.4561,0.4647,0.4698,0.4798,0.4846,0.4897,0.482,0.4498,0.3872,0.331,0.2906,0.2662,0.2121,0.1898,0.2029,0.1943,0.1954,0.0,0.0,0.0,0.0,0.0,0.0,0.0,0.0,0.0,0.0,0.0,0.2742,0.2778,0.0,0.0,0.0,0.301,0.3477,0.4332,0.3866,0.0,0.0,0.0,0.0,0.0,0.0,0.0,0.9895,1.036,1.0499,1.0222,0.9181,0.8045,0.7036,0.5973,0.5179,0.4877,0.0,0.3385,0.2605,0.1961,0.1317,0.0645,0.0196,-0.0308,-0.0922,-0.0642,-0.0139,0.0557,0.1116,0.1564,0.1789,0.1903,0.1933,0.1875,0.14,0.0756,0.0224,-0.0028,-0.0252,-0.0533,-0.0701,-0.0701,0.5697,0.5811,0.5784,0.5798,0.5822,0.595,0.5973,0.6028,0.6517,0.668,0.668,0.695,0.6913,0.6633,0.6375,0.0,0.6354,0.6114,0.5978,0.5973,0.585,0.5873,0.5946,0.585,0.5709,0.5567,0.5681,0.5576,0.5301,0.5458,0.5313,0.4913,0.5022,0.504,0.495,0.4726,0.4702,0.4842,0.4739,0.4739,0.4869,0.4664,0.4238,0.3509,0.3021,0.2632,0.2364,0.1882,0.1772,0.2018,0.1986,0.1986,0.2052,0.0,0.0,0.0,0.0,0.0,0.0,0.0,0.0,0.0,0.0,0.0,0.0,0.0,0.0,0.0,0.332,0.0,0.4604,0.4222,0.0,0.0,0.0,0.5486,0.6457,0.7721,0.8919,0.9967,0.0,0.0,0.9666,0.881,0.7913,0.6977,0.5964,0.5171,0.477,0.4273,0.366,0.277,0.2406,0.2015,0.1344,0.0616,0.0196,0.0223,0.0753,0.1476,0.2055,0.2473,0.2947,0.3176,0.3125,0.2935,0.3077,0.2151,0.1146,0.0392,-0.0056,-0.0364,-0.0645,-0.0673,-0.0504,0.5851,0.588,0.588,0.5834,0.5795,0.5822,0.5896,0.6059,0.6517,0.6544,0.6337,0.6657,0.6568,0.6147,0.6089,0.6013,0.5927,0.5873,0.5845,0.5845,0.5818,0.5763,0.5704,0.565,0.5481,0.5238,0.5238,0.5179,0.5014,0.5038,0.5015,0.4922,0.4922,0.4804,0.4561,0.4624,0.4648,0.4598,0.4546,0.4605,0.4736,0.4454,0.429,0.4291,0.3623,0.3093,0.2758,0.223,0.1794,0.1567,0.1554,0.158,0.1718,0.1513,0.0,0.0,0.0,0.0,0.0,0.0,0.0,0.0,0.0,0.3023,0.2901,0.0,0.3615,0.0,0.3937,0.4621,0.5369,0.5093,0.0,0.0,0.591,0.6008,0.6287,0.7644,0.875,0.9228,0.951,0.9614,0.9465,0.8514,0.7551,0.6756,0.5878,0.5167,0.4877,0.4267,0.3738,0.3378,0.3095,0.2704,0.22,0.1833,0.1803,0.238,0.2713,0.3076,0.3605,0.3746,0.3807,0.3594,0.3486,0.335,0.3186,0.2683,0.2179,0.1623,0.0952,0.0364,0.014,0.028,0.0503,0.5888,0.5888,0.5888,0.5889,0.5817,0.5817,0.589,0.6044,0.6283,0.6305,0.6205,0.6391,0.6305,0.6028,0.6,0.5891,0.5704,0.5704,0.5704,0.5709,0.5631,0.5544,0.5462,0.5403,0.5262,0.5014,0.4963,0.4877,0.4822,0.4763,0.4736,0.4708,0.4625,0.4505,0.4321,0.4563,0.4632,0.4491,0.4408,0.4411,0.4467,0.428,0.4204,0.4221,0.3466,0.2925,0.2685,0.1909,0.1474,0.1358,0.1313,0.1339,0.1514,0.1382,0.1459,0.0,0.0,0.0,0.0,0.0,0.0,0.0,0.0,0.0,0.0,0.0,0.432,0.4626,0.4942,0.5358,0.5881,0.5666,0.556,0.58,0.6039,0.6241,0.6357,0.7637,0.8653,0.8968,0.9178,0.9263,0.9133,0.8229,0.7348,0.6669,0.5937,0.5285,0.4873,0.4436,0.4104,0.3824,0.3652,0.3531,0.3244,0.3372,0.3665,0.4163,0.4467,0.4727,0.5042,0.5046,0.4889,0.4563,0.4319,0.4122,0.3932,0.3403,0.2929,0.2625,0.2179,0.1567,0.0924,0.1036,0.1202,0.5957,0.5957,0.5953,0.5953,0.5941,0.588,0.5951,0.6092,0.6032,0.6059,0.6178,0.6178,0.6101,0.5959,0.5986,0.5821,0.5601,0.5576,0.5567,0.554,0.538,0.5274,0.527,0.5156,0.5014,0.4842,0.4739,0.4632,0.4546,0.4432,0.4377,0.4377,0.4215,0.4135,0.4162,0.447,0.455,0.4436,0.4245,0.4135,0.4162,0.4162,0.4072,0.384,0.311,0.2603,0.2444,0.1513,0.1079,0.1271,0.1183,0.1205,0.1349,0.1301,0.1382,0.0,0.1652,0.0,0.0,0.0,0.0,0.0,0.0,0.0,0.0,0.4335,0.5038,0.613,0.6055,0.6077,0.6287,0.6105,0.5828,0.5422,0.5859,0.6322,0.6642,0.7637,0.8474,0.8929,0.9087,0.9061,0.8857,0.8055,0.7273,0.6669,0.6055,0.543,0.4881,0.4715,0.4574,0.4187,0.4346,0.4556,0.4648,0.5047,0.5504,0.5801,0.6054,0.6261,0.6312,0.6213,0.6028,0.565,0.5234,0.4956,0.4901,0.415,0.3597,0.3486,0.3239,0.2736,0.1845,0.1677,0.1649,0.6319,0.6319,0.6286,0.6319,0.6302,0.6186,0.6121,0.6087,0.6032,0.6,0.6046,0.6094,0.6019,0.5853,0.5824,0.5739,0.5584,0.5417,0.5352,0.5352,0.5329,0.5242,0.5156,0.5128,0.4904,0.4598,0.4546,0.4294,0.3796,0.3766,0.3766,0.3766,0.3738,0.3824,0.4021,0.0,0.0,0.0,0.3965,0.3938,0.4021,0.4049,0.4055,0.4114,0.3545,0.0,0.273,0.1977,0.1447,0.1223,0.119,0.0,0.0,0.0,0.0,0.0,0.0,0.0,0.0,0.0,0.0,0.0,0.4062,0.4301,0.4525,0.5251,0.5837,0.6187,0.6603,0.6887,0.6929,0.6864,0.6837,0.6734,0.6413,0.6413,0.6945,0.7408,0.8002,0.8903,0.8936,0.891,0.8877,0.8109,0.7273,0.6674,0.6114,0.5599,0.5073,0.4932,0.4904,0.5046,0.5508,0.605,0.6344,0.6718,0.7111,0.7551,0.7572,0.7439,0.7241,0.7004,0.6571,0.5923,0.5599,0.5317,0.4956,0.4653,0.4325,0.4107,0.3744,0.332,0.2736,0.2627,0.2599,0.642,0.0,0.642,0.642,0.0,0.6321,0.6325,0.634,0.6118,0.6096,0.6138,0.6177,0.6162,0.6104,0.6108,0.6011,0.5851,0.5682,0.5538,0.5446,0.5337,0.5187,0.4987,0.4936,0.4715,0.4325,0.4076,0.3799,0.3491,0.3241,0.3186,0.3267,0.3186,0.3327,0.3691,0.3774,0.3858,0.3993,0.3879,0.3824,0.3907,0.3965,0.399,0.398,0.0,0.0,0.0,0.0,0.0,0.0,0.0,0.0,0.0,0.0,0.0,0.1101,0.1101,0.126,0.1636,0.2352,0.3115,0.401,0.5103,0.5777,0.579,0.6253,0.6712,0.7143,0.7361,0.7467,0.7402,0.7214,0.7058,0.6923,0.6468,0.6445,0.7004,0.7456,0.8043,0.8824,0.9015,0.8956,0.8817,0.799,0.716,0.6512,0.6008,0.5561,0.5199,0.5101,0.5183,0.5521,0.6168,0.6739,0.7085,0.767,0.8076,0.8342,0.8309,0.8037,0.7568,0.716,0.6625,0.595,0.5513,0.5175,0.5042,0.4825,0.4581,0.4135,0.3852,0.3405,0.274,0.249,0.2235,0.642,0.642,0.6449,0.6449,0.6474,0.6486,0.655,0.6651,0.0,0.0,0.0,0.6341,0.6389,0.6423,0.6454,0.6358,0.619,0.6011,0.5855,0.5637,0.541,0.5159,0.4901,0.4739,0.4467,0.4079,0.3608,0.333,0.3163,0.28,0.2661,0.274,0.2661,0.2858,0.3302,0.3499,0.3694,0.3913,0.3855,0.3824,0.3824,0.3938,0.3942,0.3826,0.3526,0.2982,0.223,0.1612,0.1075,0.0591,0.0444,0.0436,0.0484,0.0436,0.0519,0.0797,0.0857,0.1062,0.1484,0.2458,0.3423,0.4336,0.6091,0.7078,0.6872,0.7072,0.7488,0.8082,0.7981,0.7848,0.7777,0.7402,0.7085,0.6869,0.6549,0.6603,0.7139,0.7684,0.8337,0.9004,0.9285,0.9192,0.883,0.8045,0.7143,0.6452,0.5947,0.551,0.5238,0.5234,0.5384,0.574,0.6305,0.6901,0.7321,0.7877,0.8461,0.8547,0.8547,0.8309,0.7649,0.7025,0.6463,0.59,0.5348,0.5124,0.5069,0.4822,0.4436,0.3938,0.363,0.3211,0.2348,0.1847,0.137,0.642,0.6416,0.6581,0.6642,0.6675,0.6785,0.6841,0.6843,0.6612,0.6487,0.6414,0.6573,0.655,0.6398,0.6585,0.6644,0.6599,0.6228,0.5999,0.0,0.5538,0.5212,0.4901,0.4653,0.4239,0.3713,0.3497,0.3049,0.2436,0.2296,0.2268,0.2294,0.2268,0.2573,0.3105,0.333,0.3497,0.3666,0.3744,0.3852,0.3965,0.3993,0.3987,0.3941,0.3428,0.2847,0.2225,0.1613,0.1031,0.0473,0.0416,0.0409,0.0424,0.038,0.041,0.0481,0.063,0.0866,0.1178,0.2151,0.3671,0.5683,0.6858,0.723,0.6709,0.7358,0.7788,0.7809,0.7875,0.7955,0.8088,0.7714,0.7424,0.7392,0.7144,0.7139,0.7591,0.8154,0.8835,0.9637,0.9764,0.969,0.933,0.8484,0.7523,0.6792,0.6083,0.5656,0.5422,0.5338,0.5447,0.5763,0.6168,0.668,0.7208,0.7658,0.8143,0.8547,0.8468,0.8176,0.7547,0.7085,0.6576,0.5932,0.554,0.5317,0.5128,0.4653,0.4211,0.3852,0.31,0.2237,0.1734,0.0952,0.0336,0.6449,0.6576,0.6675,0.6576,0.6342,0.6243,0.6247,0.6338,0.6245,0.6398,0.666,0.6674,0.6842,0.7136,0.7383,0.7415,0.7218,0.6857,0.6389,0.5914,0.549,0.5065,0.4664,0.4353,0.3965,0.3491,0.3163,0.2745,0.224,0.2046,0.1992,0.199,0.2128,0.2378,0.277,0.3077,0.3383,0.3719,0.3827,0.3907,0.3907,0.3965,0.3993,0.3993,0.366,0.3019,0.2127,0.1765,0.112,0.0224,0.0112,0.0111,0.0165,0.0111,0.0139,0.0274,0.0389,0.0729,0.1429,0.3065,0.4666,0.6186,0.7058,0.7386,0.7106,0.7574,0.7955,0.8055,0.8124,0.816,0.8293,0.794,0.772,0.7715,0.7549,0.7655,0.8235,0.8774,0.9374,0.9989,1.0016,0.9724,0.9276,0.8363,0.7399,0.6568,0.5944,0.5578,0.5525,0.5514,0.5563,0.5784,0.6087,0.6512,0.7079,0.753,0.7851,0.8096,0.807,0.7783,0.7279,0.6815,0.6359,0.5873,0.5317,0.4901,0.4739,0.4211,0.3713,0.3209,0.271,0.193,0.1091,-0.0056,-0.0978,0.6181,0.6412,0.6445,0.628,0.6013,0.565,0.565,0.5855,0.5657,0.5958,0.6618,0.6675,0.7073,0.7699,0.7949,0.7814,0.7437,0.7035,0.6385,0.5662,0.5172,0.4774,0.4468,0.4095,0.366,0.3249,0.28,0.2437,0.2102,0.1908,0.1797,0.1797,0.1992,0.2184,0.2382,0.2824,0.3239,0.363,0.3882,0.3938,0.3852,0.3935,0.3938,0.3938,0.3827,0.3186,0.2041,0.1846,0.1231,0.0056,-0.014,-0.0168,-0.0112,-0.0196,-0.0168,0.0056,0.0084,0.0644,0.1928,0.384,0.5359,0.6245,0.6982,0.7434,0.7521,0.7741,0.8065,0.8375,0.8331,0.8358,0.8471,0.8277,0.8085,0.8057,0.8023,0.8292,0.8889,0.9369,0.9825,1.0298,1.0113,0.9643,0.8902,0.802,0.7075,0.6168,0.5693,0.5588,0.5609,0.5709,0.5815,0.5947,0.6073,0.6402,0.6912,0.7241,0.745,0.7542,0.7542,0.7214,0.6701,0.6209,0.5773,0.5317,0.4653,0.4263,0.4294,0.3827,0.3272,0.285,0.2376,0.1623,0.028,-0.1007,-0.2151,0.5183,0.5491,0.5686,0.5785,0.5851,0.5355,0.5422,0.5723,0.4897,0.503,0.5987,0.6511,0.7036,0.7634,0.7624,0.7288,0.6752,0.6077,0.546,0.4883,0.4425,0.4259,0.4268,0.3769,0.3342,0.2921,0.2469,0.2138,0.1909,0.1825,0.1741,0.1628,0.1768,0.1906,0.2071,0.2627,0.2989,0.3158,0.3716,0.3993,0.3993,0.3879,0.3824,0.3824,0.3691,0.3049,0.1846,0.179,0.1175,-0.0028,-0.0196,-0.0224,-0.0336,-0.0364,-0.0364,-0.0336,-0.0196,0.0587,0.2289,0.3763,0.5011,0.5946,0.6707,0.7246,0.7467,0.7747,0.8111,0.845,0.8385,0.8494,0.8862,0.8737,0.8609,0.8609,0.8755,0.9036,0.9418,0.9837,1.0261,1.0555,1.0038,0.9535,0.871,0.7777,0.6804,0.5845,0.578,0.5754,0.568,0.5891,0.6113,0.625,0.6231,0.6327,0.6706,0.6761,0.6966,0.7122,0.7063,0.6647,0.5987,0.5437,0.4999,0.4567,0.3932,0.3793,0.3852,0.3549,0.3105,0.274,0.2096,0.1062,-0.0531,-0.1815,-0.271,0.5084,0.5521,0.5583,0.5517,0.5355,0.4861,0.4728,0.4897,0.4498,0.4731,0.5388,0.5683,0.6178,0.6929,0.7092,0.6756,0.6059,0.5526,0.4792,0.3911,0.3396,0.3038,0.2779,0.2626,0.2437,0.2342,0.2115,0.2008,0.2002,0.1881,0.1487,0.101,0.1403,0.157,0.1426,0.2041,0.2404,0.2462,0.2685,0.2683,0.2514,0.2959,0.3267,0.3213,0.2794,0.2155,0.1372,0.1204,0.0728,-0.0112,-0.0112,-0.0084,-0.0056,-0.0112,-0.014,-0.0028,0.0616,0.1396,0.2395,0.3868,0.5066,0.5845,0.6576,0.7085,0.7284,0.7794,0.8271,0.8579,0.8576,0.8689,0.8944,0.8961,0.8999,0.9119,0.9306,0.9586,1.0102,1.0109,1.0137,1.0174,0.9541,0.8807,0.8096,0.7125,0.6276,0.5716,0.5752,0.5818,0.5791,0.614,0.6449,0.6515,0.6555,0.6648,0.6827,0.6883,0.6877,0.6829,0.6707,0.6263,0.5492,0.5054,0.4642,0.4067,0.3627,0.3461,0.3738,0.3272,0.28,0.2406,0.1256,-0.0112,-0.1843,-0.2571,-0.3102,0.4769,0.5249,0.5309,0.5078,0.4739,0.4442,0.42,0.4066,0.42,0.4498,0.4758,0.4824,0.5183,0.5705,0.6199,0.5997,0.5163,0.4662,0.3861,0.2857,0.2337,0.1983,0.1776,0.1681,0.1719,0.177,0.1615,0.1588,0.1683,0.1535,0.1048,0.0534,0.1094,0.1205,0.0839,0.1482,0.1818,0.1706,0.1762,0.1651,0.1426,0.1899,0.232,0.2488,0.2014,0.1483,0.0925,0.0757,0.0393,-0.0196,-0.0112,0.0028,0.0084,0.0,-0.0056,0.0056,0.1092,0.1927,0.2338,0.3975,0.5179,0.5736,0.6544,0.7105,0.7351,0.8014,0.8593,0.8859,0.8872,0.8979,0.9125,0.9193,0.9265,0.9401,0.9593,0.9906,1.0192,0.9964,0.9653,0.9468,0.8559,0.7739,0.7051,0.6243,0.562,0.5517,0.5517,0.562,0.562,0.5837,0.6017,0.6069,0.634,0.6692,0.689,0.6864,0.6803,0.6605,0.6389,0.5773,0.4995,0.4587,0.4095,0.3378,0.313,0.3132,0.3352,0.2993,0.2266,0.1536,0.0391,-0.1088,-0.2514,-0.3102,-0.3549,0.3925,0.4535,0.453,0.4359,0.4008,0.4222,0.3935,0.3471,0.4002,0.4167,0.3995,0.4231,0.4197,0.4056,0.4912,0.4869,0.4002,0.3207,0.2442,0.1706,0.1338,0.1452,0.1925,0.1541,0.1329,0.1293,0.096,0.0701,0.0589,0.0528,0.0376,0.0253,0.0813,0.0813,0.042,0.1119,0.137,0.1034,0.1174,0.1258,0.1174,0.0756,0.0924,0.1538,0.1595,0.1315,0.0925,0.0757,0.0364,-0.0364,-0.0112,-0.0028,-0.014,-0.0168,-0.028,-0.0421,0.0755,0.1788,0.2369,0.3981,0.5215,0.5703,0.6728,0.7498,0.7678,0.8443,0.9025,0.9351,0.9376,0.9389,0.9466,0.9446,0.9462,0.95,0.9671,0.9703,0.9576,0.9154,0.879,0.827,0.7395,0.6461,0.5415,0.5186,0.5156,0.5087,0.4951,0.4882,0.4848,0.4779,0.4764,0.4923,0.5425,0.6137,0.6619,0.6705,0.6577,0.6393,0.593,0.5144,0.4422,0.376,0.3181,0.274,0.2573,0.2631,0.291,0.2569,0.1703,0.0781,-0.039,-0.1785,-0.2875,-0.3633,-0.3938,0.3763,0.4161,0.4158,0.4265,0.4405,0.4507,0.4343,0.4066,0.4306,0.4332,0.4138,0.403,0.3894,0.3792,0.3453,0.3086,0.2616,0.1978,0.1276,0.0606,0.0303,0.0268,0.0398,0.0431,0.0621,0.0797,0.0646,0.0573,0.0638,0.0476,0.0116,-0.0197,0.0224,0.0224,-0.014,0.0336,0.0532,0.0252,0.0308,0.0196,-0.0028,-0.0252,-0.0084,0.028,0.042,0.0392,0.0336,0.0196,-0.0056,-0.0393,0.014,0.0364,0.0196,0.0196,-0.0028,-0.0336,0.0531,0.1563,0.2506,0.3757,0.4949,0.5878,0.6794,0.7544,0.7952,0.8705,0.9398,0.9633,0.9743,0.9825,0.992,0.9708,0.9548,0.9676,0.9542,0.9338,0.8994,0.813,0.7279,0.7102,0.6326,0.5315,0.4652,0.4755,0.4891,0.4525,0.4619,0.4553,0.432,0.4314,0.4411,0.4511,0.4875,0.5341,0.5743,0.6236,0.6382,0.6158,0.5711,0.4938,0.4184,0.3302,0.2667,0.2234,0.2062,0.1987,0.2209,0.1871,0.1004,-0.0252,-0.1428,-0.1798,-0.304,-0.3184,-0.3454,0.3665,0.3909,0.3882,0.4052,0.4374,0.4452,0.4357,0.4242,0.4415,0.4394,0.4157,0.3912,0.3725,0.3424,0.2522,0.1884,0.1513,0.1042,0.0471,-0.0135,-0.0371,-0.0438,-0.0405,-0.0236,0.0033,0.0328,0.03,0.0262,0.0251,0.0092,-0.0267,-0.0715,-0.0228,-0.0227,-0.059,-0.0196,-0.0084,-0.0336,-0.0393,-0.0561,-0.0841,-0.0701,-0.0561,-0.0393,-0.028,-0.014,0.0,-0.014,-0.0224,-0.0224,0.0392,0.0756,0.0644,0.0644,0.0364,-0.0084,0.0559,0.148,0.2589,0.3702,0.4825,0.5911,0.6918,0.7684,0.8216,0.9163,0.9797,1.006,1.0202,1.0269,0.9913,0.953,0.9312,0.9306,0.8844,0.828,0.7872,0.6551,0.557,0.5025,0.4373,0.3716,0.342,0.382,0.392,0.3589,0.392,0.3887,0.3623,0.3587,0.3749,0.3782,0.4015,0.4278,0.4587,0.4971,0.5536,0.5451,0.5281,0.4583,0.3789,0.2889,0.2217,0.1801,0.1565,0.1434,0.1258,0.0979,0.0084,-0.1185,-0.1339,-0.1463,-0.206,-0.2316,-0.2736,0.3639,0.3771,0.3663,0.3701,0.388,0.4068,0.3939,0.3878,0.4285,0.4303,0.3956,0.3804,0.3456,0.2922,0.2185,0.1512,0.0907,0.0504,0.0067,-0.0438,-0.0674,-0.0607,-0.0371,-0.0405,-0.027,0.0034,-0.0168,-0.0431,-0.0644,-0.0703,-0.084,-0.0831,-0.0617,-0.0666,-0.0926,-0.0534,-0.0478,-0.0786,-0.0785,-0.0813,-0.0869,-0.0729,-0.0588,-0.0448,-0.0336,-0.0196,-0.0028,-0.014,-0.0196,-0.0112,0.0588,0.1062,0.1006,0.1006,0.0755,0.0252,0.0812,0.162,0.2512,0.3796,0.4826,0.5773,0.6998,0.8018,0.8678,0.9687,1.0438,1.0571,1.0559,1.039,0.9524,0.8903,0.8608,0.8576,0.7595,0.6604,0.5774,0.4716,0.3465,0.2409,0.2009,0.1776,0.1945,0.2449,0.2751,0.2751,0.2854,0.2887,0.2753,0.2654,0.2356,0.2455,0.2919,0.3384,0.3515,0.3661,0.4221,0.4623,0.45,0.4096,0.3234,0.2368,0.1705,0.124,0.0981,0.0856,0.0628,0.0314,-0.0143,-0.1037,-0.1018,-0.1088,-0.1387,-0.1769,-0.2213,0.3037,0.3331,0.3618,0.3913,0.4217,0.4535,0.4593,0.4434,0.4576,0.4374,0.3906,0.3535,0.3088,0.2519,0.1814,0.1143,0.0571,0.0235,-0.0135,-0.0472,-0.0708,-0.0742,-0.0641,-0.0472,-0.0236,-0.0067,-0.0304,-0.0499,-0.0649,-0.1097,-0.1314,-0.1255,-0.1415,-0.1535,-0.1492,-0.1259,-0.115,-0.1181,-0.1372,-0.1483,-0.154,-0.1733,-0.1592,-0.1064,-0.0895,-0.0587,-0.0056,-0.0056,-0.0112,-0.0168,0.0448,0.0812,0.084,0.084,0.0644,0.0393,0.0729,0.14,0.2272,0.3279,0.4375,0.5507,0.6806,0.7918,0.8851,0.9755,1.046,1.0744,1.0453,0.997,0.9576,0.821,0.7567,0.7772,0.6813,0.572,0.4827,0.3602,0.204,0.0739,0.104,0.1408,0.1375,0.1745,0.2149,0.2016,0.2318,0.2519,0.2118,0.2153,0.2188,0.2253,0.2487,0.2653,0.29,0.3113,0.342,0.3767,0.3742,0.3485,0.2649,0.1866,0.1213,0.0695,0.0414,0.0234,0.0,-0.0293,-0.0674,-0.0857,-0.0926,-0.0997,-0.1037,-0.1301,-0.1666,0.2549,0.2824,0.3335,0.3802,0.4229,0.4582,0.482,0.4814,0.4625,0.4328,0.39,0.3247,0.2713,0.2221,0.1546,0.1008,0.0572,0.0202,-0.0135,-0.0337,-0.0674,-0.0809,-0.0776,-0.0472,-0.0236,-0.0236,-0.0572,-0.0667,-0.0558,-0.1406,-0.1757,-0.1603,-0.1935,-0.2014,-0.186,-0.1868,-0.1801,-0.1713,-0.1931,-0.2097,-0.2151,-0.2263,-0.2096,-0.1651,-0.1259,-0.0812,-0.0364,-0.014,0.0,0.0056,0.0589,0.0897,0.0926,0.0926,0.0729,0.0449,0.0589,0.1065,0.1852,0.276,0.3768,0.5008,0.6278,0.7319,0.8201,0.9064,0.9799,1.0028,0.9767,0.941,0.8924,0.7757,0.6687,0.6199,0.5335,0.4334,0.3272,0.2009,0.0907,0.0,0.0269,0.0538,0.0672,0.1008,0.1479,0.1312,0.1747,0.215,0.1748,0.1918,0.2018,0.2119,0.2287,0.242,0.2487,0.2609,0.2664,0.286,0.3002,0.2656,0.2088,0.1303,0.0622,0.0031,-0.0338,-0.0212,-0.0392,-0.0572,-0.0843,-0.0883,-0.0859,-0.0716,-0.0658,-0.0644,-0.0962,0.2117,0.2195,0.2707,0.3175,0.3682,0.4112,0.4538,0.4836,0.4424,0.4128,0.3772,0.2819,0.227,0.1959,0.1142,0.0639,0.0573,-0.0034,-0.0371,-0.0505,-0.0808,-0.1011,-0.0944,-0.0707,-0.0506,-0.0404,-0.0908,-0.0974,-0.0837,-0.1839,-0.2218,-0.1984,-0.2415,-0.2311,-0.2354,-0.2457,-0.2563,-0.24,-0.2501,-0.2669,-0.2751,-0.2488,-0.2238,-0.2238,-0.1596,-0.1149,-0.0897,-0.0393,0.0028,0.0253,0.0816,0.1125,0.1211,0.1237,0.0842,0.0225,0.0309,0.0675,0.1326,0.2291,0.3305,0.4315,0.5619,0.6568,0.7186,0.8081,0.8699,0.886,0.8828,0.8538,0.7832,0.678,0.5698,0.4281,0.3451,0.2347,0.0638,0.0101,-0.0202,-0.0371,-0.0472,-0.0438,-0.0202,0.0202,0.0472,0.0674,0.1077,0.1412,0.1547,0.1648,0.1849,0.1884,0.1782,0.1849,0.1848,0.2048,0.2107,0.2121,0.2173,0.1775,0.1383,0.0672,-0.0032,-0.0576,-0.0856,-0.0752,-0.0744,-0.0894,-0.0957,-0.0963,-0.0787,-0.0417,-0.0413,-0.0559,-0.0754,0.1254,0.1254,0.1252,0.1799,0.2659,0.3361,0.399,0.4489,0.428,0.3694,0.298,0.198,0.1448,0.1245,-0.0034,-0.057,-0.0571,-0.1041,-0.1544,-0.1746,-0.1882,-0.1814,-0.1646,-0.151,-0.1109,-0.0674,-0.0976,-0.1144,-0.1577,-0.2414,-0.2942,-0.335,-0.3888,-0.4088,-0.383,-0.3789,-0.3707,-0.3321,-0.3386,-0.347,-0.3514,-0.3722,-0.3519,-0.288,-0.2601,-0.2155,-0.1568,-0.0728,-0.0057,0.0406,0.0653,0.0795,0.075,0.0682,0.0481,0.0144,0.0171,0.034,0.0813,0.1816,0.2885,0.3839,0.5111,0.6314,0.7074,0.7697,0.8151,0.821,0.7984,0.7535,0.7009,0.5592,0.3773,0.2111,0.1713,0.1276,0.037,-0.0135,-0.0337,-0.0472,-0.0472,-0.0405,-0.0236,0.0034,0.0371,0.0573,0.0875,0.1244,0.121,0.0974,0.0941,0.0974,0.0974,0.1076,0.121,0.1412,0.1478,0.1443,0.1265,0.0896,0.0463,-0.0099,-0.0727,-0.1326,-0.1196,-0.1114,-0.1103,-0.1189,-0.1166,-0.117,-0.1057,-0.0907,-0.0894,-0.0969,-0.109,0.0157,0.0,0.0156,0.0664,0.1445,0.2305,0.3047,0.3591,0.3436,0.2894,0.204,0.1109,0.0382,-0.0134,-0.1073,-0.1442,-0.1343,-0.171,-0.1978,-0.2214,-0.2616,-0.2649,-0.2449,-0.2347,-0.2012,-0.1646,-0.1914,-0.2213,-0.2479,-0.3249,-0.3751,-0.3873,-0.4558,-0.4636,-0.4089,-0.4329,-0.4282,-0.393,-0.3992,-0.4074,-0.4213,-0.4288,-0.4113,-0.3522,-0.3244,-0.2599,-0.1761,-0.1119,-0.0396,0.0343,0.0596,0.0538,0.0459,0.0312,0.0085,-0.0176,-0.0057,0.0114,0.0381,0.1257,0.212,0.2989,0.4267,0.5195,0.5752,0.6228,0.6515,0.6506,0.6015,0.5687,0.5223,0.3668,0.1973,0.0704,0.0201,0.0067,-0.0067,-0.0101,-0.0202,-0.027,-0.027,-0.027,-0.0202,0.0101,0.0304,0.0472,0.0437,0.0672,0.0739,0.0302,0.0,0.0034,0.0101,0.0201,0.0268,0.0403,0.0436,0.0436,0.0168,-0.0168,-0.0403,-0.0873,-0.13,-0.169,-0.1571,-0.1486,-0.1529,-0.1581,-0.1593,-0.1571,-0.1493,-0.1503,-0.1501,-0.1643,-0.1684,-0.1134,-0.1562,-0.0976,-0.0468,0.0078,0.0976,0.1837,0.2465,0.2268,0.1715,0.0918,0.0036,-0.0881,-0.1718,-0.2151,-0.2213,-0.2112,-0.2379,-0.2313,-0.2649,-0.3119,-0.3456,-0.3157,-0.3017,-0.2813,-0.2714,-0.3516,-0.3349,-0.3215,-0.4056,-0.4292,-0.4094,-0.4313,-0.4257,-0.4135,-0.431,-0.4378,-0.4308,-0.432,-0.4477,-0.4559,-0.443,-0.4221,-0.4024,-0.3463,-0.2655,-0.1956,-0.1426,-0.084,0.0449,0.0393,0.0254,0.0226,0.0,-0.0201,-0.041,-0.0347,-0.0201,0.0088,0.077,0.1377,0.2064,0.3208,0.3881,0.4099,0.4281,0.4375,0.44,0.3709,0.3471,0.2835,0.1505,0.0401,-0.0502,-0.124,-0.1175,-0.0505,-0.0202,-0.0202,-0.0168,-0.0202,-0.0168,-0.0135,0.0,0.0135,-0.0303,-0.0235,-0.0134,-0.0201,-0.0604,-0.0805,-0.0805,-0.0771,-0.0704,-0.067,-0.0637,-0.067,-0.0737,-0.1074,-0.1344,-0.1243,-0.1573,-0.1923,-0.2102,-0.1953,-0.1931,-0.2064,-0.2066,-0.2103,-0.2214,-0.2293,-0.2234,-0.2177,-0.2428,-0.2565,-0.3004,-0.3738,-0.3783,-0.3037,-0.1826,-0.0662,0.0508,0.1605,0.1293,0.0577,-0.0523,-0.1647,-0.2173,-0.2482,-0.3448,-0.3856,-0.3251,-0.3551,-0.3959,-0.3861,-0.4125,-0.4228,-0.393,-0.3656,-0.3286,-0.3017,-0.2919,-0.3119,-0.3451,-0.3723,-0.4023,-0.401,-0.4216,-0.4428,-0.4057,-0.4361,-0.4707,-0.4675,-0.4602,-0.4656,-0.4753,-0.4584,-0.4335,-0.4162,-0.3796,-0.31,-0.2294,-0.2015,-0.1538,-0.0783,-0.0365,-0.0371,-0.0472,-0.044,-0.0501,-0.0599,-0.0621,-0.0408,0.003,0.066,0.1283,0.1734,0.251,0.3168,0.2974,0.2947,0.2876,0.2741,0.2574,0.1938,0.0902,-0.0167,-0.1103,-0.1841,-0.2347,-0.2415,-0.1712,-0.1444,-0.131,-0.1211,-0.1177,-0.1244,-0.1211,-0.0975,-0.0941,-0.1074,-0.1041,-0.0974,-0.1208,-0.1543,-0.171,-0.181,-0.181,-0.1775,-0.1775,-0.1742,-0.1809,-0.1876,-0.2213,-0.245,-0.235,-0.2348,-0.2694,-0.2597,-0.2305,-0.2407,-0.2728,-0.2698,-0.2751,-0.2909,-0.3155,-0.3157,-0.3226,-0.3397,-0.3198,-0.4445,-0.5372,-0.561,-0.4784,-0.3304,-0.2296,-0.0937,0.0431,0.0431,-0.0307,-0.1413,-0.2444,-0.3057,-0.3562,-0.4288,-0.4361,-0.3992,-0.4059,-0.4161,-0.4028,-0.4159,-0.4028,-0.3794,-0.3661,-0.3422,-0.3322,-0.3288,-0.3422,-0.3556,-0.3453,-0.3416,-0.348,-0.378,-0.3753,-0.3708,-0.4086,-0.4411,-0.4643,-0.4652,-0.4706,-0.4821,-0.464,-0.4322,-0.4061,-0.3852,-0.3408,-0.2713,-0.2629,-0.2209,-0.1621,-0.1205,-0.0973,-0.0861,-0.0705,-0.068,-0.0761,-0.0561,-0.0353,0.009,0.0482,0.0915,0.1163,0.1751,0.1877,0.1699,0.1471,0.1136,0.0835,0.0434,-0.0234,-0.1367,-0.2235,-0.2972,-0.3442,-0.3785,-0.3685,-0.3115,-0.2414,-0.1812,-0.1647,-0.1513,-0.1547,-0.1513,-0.1579,-0.1545,-0.1476,-0.1947,-0.1913,-0.2115,-0.245,-0.2818,-0.2919,-0.2917,-0.2917,-0.2883,-0.2883,-0.2917,-0.305,-0.3282,-0.3418,-0.3451,-0.3449,-0.348,-0.3263,-0.3081,-0.3339,-0.358,-0.3492,-0.3567,-0.3867,-0.4127,-0.4195,-0.4238,-0.4286,-0.3944,-0.5577,-0.6696,-0.6846,-0.5909,-0.4392,-0.3614,-0.2066,-0.0235,-0.0352,-0.1029,-0.1981,-0.2759,-0.3519,-0.4287,-0.4403,-0.4364,-0.4197,-0.3961,-0.3859,-0.3892,-0.3758,-0.3558,-0.3293,-0.319,-0.3255,-0.3923,-0.3589,-0.3525,-0.3286,-0.3082,-0.2714,-0.2679,-0.2746,-0.2874,-0.308,-0.3553,-0.4051,-0.4458,-0.4575,-0.4668,-0.4772,-0.4586,-0.4265,-0.3997,-0.392,-0.3638,-0.3213,-0.3064,-0.2817,-0.2259,-0.1974,-0.1518,-0.1073,-0.078,-0.0666,-0.0707,-0.0414,-0.0178,0.003,0.0274,0.0431,0.0419,0.0551,0.0556,0.0266,-0.0268,-0.0702,-0.1269,-0.1804,-0.2769,-0.3761,-0.4455,-0.5058,-0.5424,-0.5536,-0.5276,-0.4674,-0.344,-0.2813,-0.2016,-0.2118,-0.2151,-0.2084,-0.2084,-0.1981,-0.1978,-0.2484,-0.2887,-0.309,-0.3224,-0.3458,-0.3625,-0.3558,-0.3723,-0.3756,-0.3915,-0.3951,-0.4118,-0.4317,-0.4417,-0.445,-0.4348,-0.4268,-0.4145,-0.4057,-0.4244,-0.4405,-0.4483,-0.4641,-0.4919,-0.5046,-0.5082,-0.5116,-0.5175,-0.4642,-0.6279,-0.7587,-0.7437,-0.6294,-0.4575,-0.3883,-0.2261,-0.0586,-0.0807,-0.1816,-0.272,-0.3158,-0.3576,-0.3966,-0.3991,-0.3961,-0.3961,-0.3828,-0.3758,-0.3692,-0.3493,-0.3226,-0.2956,-0.2721,-0.2619,-0.2587,-0.2721,-0.2753,-0.2551,-0.2315,-0.2013,-0.1646,-0.1915,-0.2216,-0.2616,-0.3084,-0.3859,-0.435,-0.4517,-0.4653,-0.4636,-0.4488,-0.4309,-0.4052,-0.4044,-0.3784,-0.3438,-0.3322,-0.3058,-0.2432,-0.2043,-0.1638,-0.1146,-0.0819,-0.0625,-0.0426,-0.0305,-0.0122,0.0093,0.0094,0.0032,-0.0162,-0.0328,-0.0897,-0.1406,-0.1944,-0.2442,-0.3207,-0.4033,-0.4956,-0.5373,-0.6327,-0.7038,-0.7395,-0.7432,-0.7214,-0.6807,-0.5894,-0.4566,-0.3482,-0.3186,-0.2824,-0.2656,-0.2654,-0.272,-0.2785,-0.3121,-0.3491,-0.3692,-0.3725,-0.3792,-0.3928,-0.3997,-0.4298,-0.4528,-0.4815,-0.4975,-0.514,-0.5272,-0.5371,-0.5371,-0.5209,-0.5078,-0.4993,-0.4864,-0.4819,-0.5029,-0.527,-0.5526,-0.5656,-0.5794,-0.5932,-0.5878,-0.5769,-0.5027,-0.5577,-0.6416,-0.5822,-0.445,-0.2823,-0.2364,-0.1128,0.0351,-0.0497,-0.15,-0.2243,-0.2777,-0.3224,-0.3494,-0.352,-0.3594,-0.3696,-0.356,-0.3493,-0.3426,-0.3293,-0.2958,-0.2656,-0.2386,-0.2017,-0.1849,-0.195,-0.2083,-0.1814,-0.158,-0.1445,-0.1412,-0.1614,-0.195,-0.2452,-0.3153,-0.3758,-0.4212,-0.4501,-0.4593,-0.4584,-0.4371,-0.4171,-0.4078,-0.3977,-0.3758,-0.348,-0.3326,-0.2936,-0.2319,-0.2016,-0.1532,-0.1061,-0.0741,-0.0568,-0.0338,-0.0216,-0.0094,0.0063,0.0,-0.013,-0.056,-0.1034,-0.1776,-0.2614,-0.3349,-0.4179,-0.52,-0.5829,-0.6706,-0.7409,-0.8302,-0.8905,-0.9249,-0.9313,-0.9073,-0.8468,-0.7671,-0.642,-0.5028,-0.4215,-0.3689,-0.3125,-0.3226,-0.3458,-0.3661,-0.3863,-0.4095,-0.4325,-0.4489,-0.4522,-0.4686,-0.4885,-0.5117,-0.5451,-0.5741,-0.5997,-0.6162,-0.6359,-0.6424,-0.6392,-0.6293,-0.6112,-0.5938,-0.5786,-0.5427,-0.5478,-0.5656,-0.6004,-0.6322,-0.6372,-0.6394,-0.648,-0.6231,-0.5464,-0.4411,-0.4822,-0.4028,-0.263,-0.1083,-0.1007,-0.0116,0.0966,0.0038,-0.0962,-0.1589,-0.2179,-0.2674,-0.3004,-0.3226,-0.3393,-0.3531,-0.3395,-0.3328,-0.3261,-0.3125,-0.2788,-0.2455,-0.2153,-0.1985,-0.1746,-0.1781,-0.1681,-0.1546,-0.1412,-0.1312,-0.1512,-0.1714,-0.215,-0.2818,-0.3422,-0.3894,-0.4197,-0.4495,-0.4561,-0.4469,-0.43,-0.4081,-0.3958,-0.3794,-0.3684,-0.3445,-0.3256,-0.2794,-0.2233,-0.18,-0.1407,-0.0746,-0.0629,-0.0577,-0.0372,-0.0187,-0.0127,-0.0097,-0.0293,-0.0626,-0.1135,-0.1809,-0.2614,-0.3549,-0.4649,-0.584,-0.7051,-0.7822,-0.8339,-0.9291,-1.0242,-1.085,-1.1217,-1.1343,-1.1105,-1.0327,-0.9447,-0.8372,-0.6964,-0.5592,-0.4782,-0.4417,-0.422,-0.4583,-0.4815,-0.5017,-0.4885,-0.515,-0.5481,-0.5609,-0.5734,-0.5899,-0.6063,-0.6363,-0.6719,-0.6981,-0.7242,-0.7474,-0.767,-0.7577,-0.7447,-0.7145,-0.6751,-0.6243,-0.5959,-0.5964,-0.6001,-0.6197,-0.6458,-0.6723,-0.675,-0.6566,-0.6295,-0.5691,-0.324,-0.3622,-0.3653,-0.26,-0.1009,-0.1127,-0.0462,0.0834,0.0148,-0.0613,-0.1164,-0.175,-0.2196,-0.2721,-0.332,-0.3656,-0.3761,-0.3696,-0.3529,-0.3496,-0.3157,-0.2921,-0.2654,-0.2321,-0.2353,-0.2214,-0.2283,-0.188,-0.178,-0.1914,-0.1913,-0.2013,-0.2484,-0.2954,-0.3253,-0.3792,-0.42,-0.4334,-0.4495,-0.4528,-0.4364,-0.4309,-0.4155,-0.4043,-0.3936,-0.3765,-0.3427,-0.3156,-0.2682,-0.2117,-0.1628,-0.1195,-0.0806,-0.06,-0.0542,-0.0482,-0.0451,-0.039,-0.0399,-0.07,-0.1232,-0.1844,-0.2649,-0.3656,-0.4586,-0.5609,-0.6699,-0.7544,-0.8726,-0.9806,-1.069,-1.1912,-1.2832,-1.3218,-1.3223,-1.3184,-1.2714,-1.1421,-1.0289,-0.9053,-0.7685,-0.6674,-0.603,-0.5833,-0.5738,-0.5968,-0.6067,-0.5899,-0.5832,-0.6091,-0.6523,-0.6617,-0.6729,-0.6919,-0.7302,-0.7627,-0.7924,-0.8226,-0.8458,-0.8748,-0.8737,-0.8511,-0.7796,-0.7379,-0.6954,-0.6621,-0.66,-0.6606,-0.6506,-0.6571,-0.6804,-0.6674,-0.6436,-0.6136,-0.575,-0.188,-0.2309,-0.1601,-0.0507,0.0584,0.0507,0.0925,0.1432,0.0625,-0.0072,-0.0594,-0.1395,-0.2217,-0.3153,-0.3918,-0.4253,-0.4292,-0.4195,-0.4059,-0.3961,-0.3689,-0.3487,-0.3355,-0.3188,-0.3088,-0.295,-0.3084,-0.3184,-0.285,-0.2651,-0.2653,-0.2883,-0.322,-0.3558,-0.3758,-0.4131,-0.4267,-0.4334,-0.4398,-0.4364,-0.4334,-0.4303,-0.42,-0.403,-0.3928,-0.3627,-0.3259,-0.2956,-0.2476,-0.1942,-0.1532,-0.1251,-0.0923,-0.0769,-0.0742,-0.0549,-0.0951,-0.093,-0.0706,-0.1076,-0.1647,-0.2281,-0.3117,-0.4051,-0.5282,-0.621,-0.7162,-0.8096,-0.9186,-1.0262,-1.1353,-1.2565,-1.3524,-1.4163,-1.459,-1.4521,-1.4275,-1.3524,-1.2333,-1.1078,-0.9812,-0.8768,-0.7687,-0.7009,-0.6687,-0.656,-0.66,-0.6506,-0.6361,-0.6381,-0.689,-0.7428,-0.7545,-0.7668,-0.8116,-0.8533,-0.8865,-0.9102,-0.9177,-0.9498,-0.9793,-0.951,-0.8828,-0.8623,-0.8595,-0.8163,-0.7547,-0.7078,-0.6852,-0.6863,-0.6885,-0.6678,-0.6402,-0.5805,-0.5356,-0.1217,-0.1609,-0.0314,0.0666,0.1408,0.1449,0.1656,0.1904,0.0918,0.0322,-0.0278,-0.149,-0.2982,-0.4151,-0.4948,-0.5279,-0.4987,-0.4888,-0.4655,-0.4522,-0.4386,-0.4256,-0.4056,-0.3956,-0.3918,-0.3649,-0.3984,-0.412,-0.412,-0.3987,-0.382,-0.382,-0.4056,-0.4192,-0.4298,-0.4364,-0.4398,-0.4303,-0.43,-0.43,-0.4303,-0.4233,-0.4131,-0.3961,-0.3758,-0.3458,-0.2989,-0.2688,-0.2217,-0.1772,-0.1421,-0.1144,-0.0946,-0.0883,-0.0951,-0.092,-0.1297,-0.1507,-0.148,-0.1748,-0.2049,-0.2716,-0.3549,-0.4716,-0.5712,-0.6478,-0.7162,-0.8264,-0.934,-1.0382,-1.154,-1.2931,-1.3944,-1.4785,-1.5468,-1.5429,-1.5235,-1.4435,-1.3614,-1.2456,-1.1324,-1.0571,-0.9488,-0.8334,-0.7725,-0.7312,-0.7145,-0.7049,-0.6989,-0.6918,-0.7369,-0.8038,-0.8458,-0.8604,-0.9051,-0.9472,-0.9775,-0.9945,-0.9983,-1.0231,-1.0528,-1.0425,-0.9881,-0.988,-0.9946,-0.9125,-0.8142,-0.7659,-0.7198,-0.7192,-0.7097,-0.6734,-0.634,-0.5703,-0.5341,-0.1764,-0.2079,-0.1216,-0.047,0.0157,0.0314,0.065,0.1026,0.0693,0.0319,-0.0373,-0.2309,-0.414,-0.5375,-0.6104,-0.6334,-0.5943,-0.5683,-0.5289,-0.4957,-0.4755,-0.4755,-0.4688,-0.4719,-0.4782,-0.4851,-0.4921,-0.5057,-0.5259,-0.5183,-0.4954,-0.4794,-0.4791,-0.4758,-0.4661,-0.4561,-0.4428,-0.4334,-0.4303,-0.4303,-0.4233,-0.4167,-0.3961,-0.3825,-0.3594,-0.3295,-0.2753,-0.2453,-0.2084,-0.1614,-0.1305,-0.1135,-0.1132,-0.11,-0.12,-0.1468,-0.1673,-0.1982,-0.2318,-0.2554,-0.2987,-0.3651,-0.4483,-0.5319,-0.5885,-0.6548,-0.7297,-0.8199,-0.934,-1.0658,-1.1973,-1.3326,-1.4192,-1.5001,-1.5594,-1.5912,-1.569,-1.5235,-1.4414,-1.361,-1.2702,-1.1795,-1.118,-1.0021,-0.8956,-0.8517,-0.7807,-0.7705,-0.771,-0.771,-0.8072,-0.8619,-0.9229,-0.9637,-1.0056,-1.0291,-1.0276,-1.0438,-1.0618,-1.0919,-1.1274,-1.1044,-1.0798,-1.0636,-1.0527,-0.9639,-0.8961,-0.874,-0.838,-0.772,-0.7296,-0.6954,-0.6506,-0.5908,-0.5793,-0.2543,-0.3169,-0.3093,-0.2232,-0.0979,-0.0589,-0.0153,0.0256,0.0109,-0.0672,-0.1743,-0.3442,-0.4875,-0.6009,-0.6835,-0.6966,-0.6507,-0.6375,-0.5918,-0.5657,-0.5491,-0.5455,-0.5422,-0.5422,-0.5521,-0.5557,-0.5587,-0.5686,-0.5851,-0.5914,-0.5785,-0.5557,-0.5322,-0.5123,-0.4957,-0.4691,-0.4495,-0.4367,-0.4303,-0.4303,-0.4267,-0.4097,-0.3928,-0.3792,-0.3596,-0.3228,-0.2755,-0.2389,-0.2018,-0.1648,-0.1412,-0.1379,-0.1413,-0.1482,-0.1749,-0.2049,-0.2251,-0.2686,-0.3054,-0.3257,-0.3458,-0.4292,-0.5024,-0.5591,-0.5888,-0.6609,-0.7326,-0.8258,-0.9346,-1.064,-1.1578,-1.2909,-1.4052,-1.4883,-1.5526,-1.5999,-1.6056,-1.5633,-1.5157,-1.4246,-1.3537,-1.2757,-1.2235,-1.1671,-1.0654,-0.9709,-0.8969,-0.8305,-0.8158,-0.7985,-0.8139,-0.8445,-0.9038,-0.96,-0.999,-1.0299,-1.0595,-1.0847,-1.1094,-1.1421,-1.1717,-1.1911,-1.1719,-1.149,-1.1207,-1.0597,-1.0198,-1.0038,-0.9471,-0.8493,-0.7756,-0.7209,-0.6681,-0.6133,-0.6337,-0.348,-0.4183,-0.4732,-0.391,-0.2309,-0.1764,-0.1221,-0.0732,-0.0801,-0.1659,-0.3213,-0.4273,-0.5375,-0.6441,-0.7204,-0.7232,-0.6839,-0.6675,-0.6379,-0.6148,-0.5987,-0.602,-0.602,-0.602,-0.5987,-0.6024,-0.6053,-0.6119,-0.6115,-0.6181,-0.5984,-0.5752,-0.5587,-0.5352,-0.5054,-0.4791,-0.4498,-0.4334,-0.4303,-0.4464,-0.4498,-0.4328,-0.4225,-0.4125,-0.4025,-0.3625,-0.3155,-0.2788,-0.242,-0.2049,-0.1781,-0.1681,-0.1782,-0.1983,-0.2351,-0.2653,-0.2954,-0.3355,-0.3689,-0.3859,-0.4061,-0.4761,-0.5259,-0.5624,-0.5984,-0.6634,-0.7423,-0.8037,-0.9224,-1.0338,-1.1087,-1.2328,-1.3403,-1.4204,-1.5303,-1.5835,-1.6075,-1.5864,-1.5488,-1.4923,-1.4302,-1.3713,-1.3039,-1.2443,-1.1416,-1.0216,-0.8837,-0.8207,-0.7937,-0.7739,-0.7542,-0.7955,-0.846,-0.9052,-0.9607,-0.994,-1.0319,-1.0753,-1.1067,-1.1617,-1.195,-1.212,-1.2189,-1.1912,-1.1642,-1.1502,-1.1062,-1.0475,-0.9788,-0.9009,-0.8317,-0.7638,-0.7019,-0.6639,-0.7131,-0.4608,-0.5043,-0.5848,-0.5226,-0.3789,-0.3248,-0.2664,-0.2112,-0.2096,-0.2702,-0.382,-0.4869,-0.5796,-0.6671,-0.7368,-0.7302,-0.6942,-0.6843,-0.6613,-0.628,-0.6255,-0.6284,-0.6251,-0.6251,-0.6218,-0.6354,-0.6255,-0.6152,-0.6181,-0.6148,-0.5951,-0.5716,-0.5517,-0.5352,-0.5087,-0.4755,-0.4495,-0.4334,-0.4303,-0.4628,-0.4918,-0.4722,-0.4556,-0.4719,-0.4586,-0.4154,-0.3556,-0.342,-0.3019,-0.2385,-0.2318,-0.2151,-0.1916,-0.2318,-0.2753,-0.3224,-0.3422,-0.3925,-0.4631,-0.4697,-0.4864,-0.506,-0.5491,-0.569,-0.5851,-0.6568,-0.7423,-0.7999,-0.8973,-0.9907,-1.0748,-1.1648,-1.2588,-1.3528,-1.4571,-1.5468,-1.5661,-1.6161,-1.5777,-1.5815,-1.5352,-1.4695,-1.3923,-1.3114,-1.2043,-1.0705,-0.8986,-0.8142,-0.7884,-0.7463,-0.7206,-0.7359,-0.7858,-0.8337,-0.8884,-0.9543,-1.0009,-1.0499,-1.1038,-1.1584,-1.1775,-1.176,-1.1859,-1.1958,-1.1653,-1.1148,-1.0939,-1.068,-1.0194,-0.9714,-0.8827,-0.8102,-0.7483,-0.7274,-0.7858,-0.5696,-0.65,-0.6927,-0.6563,-0.5562,-0.4456,-0.3784,-0.3475,-0.3574,-0.3951,-0.4664,-0.551,-0.617,-0.6839,-0.7199,-0.7302,-0.6942,-0.6876,-0.6646,-0.635,-0.6387,-0.6284,-0.6251,-0.6214,-0.6214,-0.6086,-0.6053,-0.6086,-0.602,-0.602,-0.5851,-0.5617,-0.5319,-0.5123,-0.4924,-0.4661,-0.4495,-0.4334,-0.4367,-0.4592,-0.5176,-0.4918,-0.4855,-0.5279,-0.5047,-0.4583,-0.3956,-0.3987,-0.352,-0.2852,-0.2787,-0.2753,-0.2586,-0.2987,-0.3556,-0.3959,-0.4223,-0.4422,-0.4924,-0.5093,-0.5196,-0.5359,-0.5521,-0.5686,-0.5716,-0.6957,-0.7577,-0.8032,-0.8882,-0.9684,-1.0218,-1.0836,-1.1664,-1.2496,-1.352,-1.4551,-1.5157,-1.5911,-1.6226,-1.6659,-1.6518,-1.6401,-1.5867,-1.4975,-1.3859,-1.2246,-1.0604,-0.8761,-0.8099,-0.7379,-0.6915,-0.6885,-0.7186,-0.7614,-0.8178,-0.9031,-0.9636,-1.0091,-1.0786,-1.1488,-1.1556,-1.1344,-1.1294,-1.1309,-1.1034,-1.074,-1.0776,-1.0834,-1.0875,-1.0469,-0.9715,-0.9019,-0.8453,-0.8407,-0.8802,-0.723,-0.7948,-0.8356,-0.8029,-0.7199,-0.5963,-0.5128,-0.4703,-0.4716,-0.4987,-0.5418,-0.5914,-0.6309,-0.6712,-0.6942,-0.7036,-0.6712,-0.6712,-0.6609,-0.635,-0.6317,-0.6218,-0.6115,-0.6115,-0.6017,-0.5921,-0.5888,-0.5888,-0.5818,-0.5822,-0.5587,-0.5256,-0.499,-0.4728,-0.4561,-0.4461,-0.4495,-0.4367,-0.4367,-0.4794,-0.5249,-0.5348,-0.5289,-0.565,-0.558,-0.5117,-0.4688,-0.4323,-0.402,-0.3487,-0.3253,-0.3288,-0.3291,-0.3692,-0.4256,-0.4622,-0.4921,-0.5054,-0.5253,-0.5292,-0.5362,-0.5395,-0.5521,-0.555,-0.5815,-0.6892,-0.7386,-0.7939,-0.8888,-0.9332,-0.9709,-1.0268,-1.0766,-1.1602,-1.2396,-1.3459,-1.423,-1.4945,-1.6586,-1.7066,-1.8316,-1.8183,-1.784,-1.695,-1.596,-1.4142,-1.2297,-1.0457,-0.8634,-0.7778,-0.7159,-0.7134,-0.7247,-0.7787,-0.8288,-0.8789,-0.9318,-0.9675,-1.0408,-1.1176,-1.0962,-1.0716,-1.0667,-1.0653,-1.053,-1.0537,-1.0806,-1.0968,-1.1241,-1.129,-1.0893,-1.0189,-0.9487,-0.957,-0.9846,-0.9173,-0.941,-0.9997,-0.9622,-0.8619,-0.7444,-0.6413,-0.5534,-0.5584,-0.5719,-0.5925,-0.6115,-0.6317,-0.642,-0.6453,-0.6453,-0.6449,-0.6449,-0.6445,-0.6375,-0.6408,-0.6243,-0.6214,-0.6181,-0.6181,-0.6017,-0.5918,-0.5885,-0.565,-0.555,-0.5286,-0.4861,-0.4564,-0.4264,-0.4161,-0.4161,-0.4261,-0.4197,-0.4231,-0.4858,-0.5547,-0.5617,-0.5818,-0.6181,-0.6284,-0.5885,-0.5385,-0.4885,-0.4453,-0.3987,-0.3589,-0.3326,-0.3493,-0.4125,-0.4655,-0.5153,-0.5547,-0.5679,-0.5679,-0.5653,-0.5395,-0.5425,-0.562,-0.5554,-0.5885,-0.6732,-0.7293,-0.7782,-0.8533,-0.8952,-0.9364,-0.9646,-0.9926,-1.0634,-1.1277,-1.2104,-1.2846,-1.4245,-1.626,-1.7798,-1.969,-2.005,-1.9497,-1.8721,-1.7603,-1.5873,-1.4123,-1.2705,-1.0816,-0.8636,-0.8106,-0.7782,-0.7949,-0.8247,-0.8616,-0.8892,-0.8891,-0.9215,-0.999,-1.0619,-1.0356,-1.0105,-1.0111,-1.0108,-1.0172,-1.0451,-1.1235,-1.1673,-1.1876,-1.1853,-1.2162,-1.1355,-1.0652,-1.0659,-1.0894,-1.0083,-1.0265,-1.1028,-1.0647,-0.9377,-0.8074,-0.6929,-0.6089,-0.6098,-0.6218,-0.6284,-0.6321,-0.6354,-0.642,-0.642,-0.642,-0.6354,-0.6383,-0.6609,-0.6638,-0.6638,-0.6896,-0.6994,-0.6961,-0.6765,-0.6404,-0.6174,-0.5951,-0.5521,-0.5355,-0.4957,-0.45,-0.4233,-0.3897,-0.3627,-0.3558,-0.3727,-0.3861,-0.3894,-0.4755,-0.5514,-0.5617,-0.605,-0.6515,-0.6716,-0.6284,-0.562,-0.5514,-0.5017,-0.4056,-0.4225,-0.4164,-0.3828,-0.4425,-0.5057,-0.6268,-0.6564,-0.6658,-0.6363,-0.5877,-0.5554,-0.5591,-0.5848,-0.6013,-0.6243,-0.6704,-0.7396,-0.7787,-0.8404,-0.8985,-0.921,-0.9396,-0.9422,-0.9685,-1.0173,-1.0548,-1.1209,-1.2033,-1.4165,-1.7196,-1.9147,-2.022,-1.9838,-2.0225,-1.9037,-1.7438,-1.5845,-1.4354,-1.2558,-1.0194,-0.894,-0.8592,-0.8546,-0.881,-0.8812,-0.9011,-0.8792,-0.8839,-0.9667,-1.0054,-0.9563,-0.9391,-0.9497,-0.9834,-1.0357,-1.1189,-1.2164,-1.2504,-1.2794,-1.3558,-1.3843,-1.276,-1.1939,-1.2012,-1.203,-1.1161,-1.1261,-1.2055,-1.1323,-0.9491,-0.8161,-0.7067,-0.6321,-0.6354,-0.6387,-0.6317,-0.6387,-0.6354,-0.6354,-0.6354,-0.6354,-0.6284,-0.6247,-0.6408,-0.6609,-0.6806,-0.6933,-0.7218,-0.7409,-0.7018,-0.6658,-0.6305,-0.5954,-0.5458,-0.4927,-0.4495,-0.3897,-0.3832,-0.3393,-0.2991,-0.2824,-0.3023,-0.3291,-0.3656,-0.442,-0.505,-0.5517,-0.6017,-0.6646,-0.6782,-0.6284,-0.5789,-0.5914,-0.505,-0.4189,-0.4528,-0.4528,-0.4619,-0.5444,-0.6334,-0.7409,-0.7502,-0.7274,-0.6915,-0.6433,-0.6013,-0.5885,-0.621,-0.6437,-0.6769,-0.7199,-0.74,-0.7661,-0.8501,-0.9145,-0.9177,-0.9145,-0.8909,-0.8699,-0.8843,-0.8986,-0.9325,-0.9628,-1.2299,-1.5625,-1.7581,-1.8956,-1.9716,-2.0439,-1.9901,-1.733,-1.5652,-1.463,-1.2827,-1.0688,-0.9706,-0.9324,-0.9266,-0.9338,-0.934,-0.9431,-0.9356,-0.9376,-0.9684,-0.9788,-0.9051,-0.9084,-0.9521,-1.0168,-1.0854,-1.1902,-1.3121,-1.3514,-1.393,-1.4706,-1.5313,-1.4745,-1.391,-1.3404,-1.3479,-1.2179,-1.2167,-1.2888,-1.1594,-0.9309,-0.8116,-0.7171,-0.6375,-0.6482,-0.6346,-0.6247,-0.6416,-0.6515,-0.6576,-0.6741,-0.6638,-0.6539,-0.6404,-0.6507,-0.6482,-0.6679,-0.6966,-0.7349,-0.712,-0.7316,-0.6896,-0.6338,-0.5881,-0.5388,-0.4688,-0.3859,-0.3226,-0.3159,-0.2956,-0.2757,-0.2688,-0.2921,-0.3253,-0.3556,-0.409,-0.505,-0.5451,-0.5686,-0.6581,-0.6613,-0.6317,-0.6013,-0.5514,-0.4818,-0.4589,-0.4556,-0.4719,-0.5738,-0.6911,-0.7897,-0.8323,-0.8318,-0.8086,-0.7665,-0.7246,-0.6761,-0.6568,-0.6572,-0.6999,-0.7456,-0.7749,-0.7879,-0.8112,-0.8888,-0.9274,-0.9344,-0.944,-0.9332,-0.8672,-0.8366,-0.8038,-0.7725,-0.8782,-1.1271,-1.4322,-1.6476,-1.7775,-1.8561,-1.9158,-1.952,-1.6878,-1.5704,-1.5027,-1.3556,-1.1567,-1.0683,-1.03,-1.0363,-1.0418,-1.0472,-1.0506,-1.025,-1.0233,-1.0254,-0.9893,-0.9439,-0.95,-0.9701,-1.0658,-1.1724,-1.2932,-1.4014,-1.4447,-1.5019,-1.5814,-1.634,-1.6539,-1.6012,-1.5071,-1.4742,-1.2502,-1.2489,-1.2102,-1.1228,-1.0079,-0.8652,-0.7912,-0.7647,-0.7031,-0.6601,-0.6375,-0.6905,-0.7199,-0.7162,-0.7582,-0.7512,-0.699,-0.6798,-0.6961,-0.7031,-0.7036,-0.7363,-0.8199,-0.8037,-0.7912,-0.7354,-0.6662,-0.554,-0.4348,-0.3687,-0.3389,-0.3159,-0.2989,-0.2822,-0.2921,-0.2952,-0.3186,-0.3485,-0.3885,-0.4251,-0.5017,-0.5716,-0.6148,-0.6548,-0.6548,-0.6482,-0.6247,-0.6017,-0.5712,-0.558,-0.5774,-0.6203,-0.6892,-0.7962,-0.8646,-0.9005,-0.9075,-0.8871,-0.8581,-0.8161,-0.7707,-0.767,-0.7767,-0.7939,-0.8166,-0.842,-0.8613,-0.885,-0.9119,-0.9376,-0.9536,-0.9664,-0.953,-0.8678,-0.7827,-0.7083,-0.6338,-0.8176,-1.0333,-1.2422,-1.4815,-1.6096,-1.6848,-1.7694,-1.8125,-1.7778,-1.7093,-1.6262,-1.5013,-1.3343,-1.2128,-1.171,-1.1694,-1.1713,-1.1706,-1.1525,-1.1271,-1.0966,-1.0862,-1.0404,-0.9915,-1.0544,-1.1244,-1.1801,-1.2718,-1.3894,-1.4844,-1.5415,-1.6064,-1.6669,-1.6955,-1.6983,-1.6955,-1.6221,-1.6014,-1.2295,-1.2495,-1.1671,-1.0885,-1.0069,-0.9095,-0.8431,-0.7934,-0.7609,-0.7316,-0.7092,-0.7517,-0.7782,-0.7777,-0.8166,-0.8129,-0.7479,-0.7256,-0.7391,-0.7526,-0.7461,-0.7754,-0.8209,-0.8463,-0.7884,-0.726,-0.6166,-0.4842,-0.3215,-0.2781,-0.2683,-0.2485,-0.2452,-0.2718,-0.2948,-0.3149,-0.3651,-0.3951,-0.4414,-0.4912,-0.5312,-0.5782,-0.6115,-0.635,-0.6515,-0.6445,-0.6346,-0.6181,-0.6079,-0.6203,-0.6498,-0.7186,-0.7869,-0.8716,-0.9332,-0.9626,-0.9728,-0.9626,-0.9364,-0.9005,-0.8554,-0.8484,-0.8549,-0.856,-0.8425,-0.8619,-0.8941,-0.9172,-0.9408,-0.9702,-0.9504,-0.9562,-0.9005,-0.8253,-0.7335,-0.649,-0.5529,-0.5649,-0.6666,-0.7324,-0.9829,-1.2179,-1.342,-1.5616,-1.6143,-1.6843,-1.649,-1.6416,-1.5371,-1.4884,-1.3756,-1.31,-1.3061,-1.2864,-1.2694,-1.2522,-1.2275,-1.1939,-1.1673,-1.1613,-1.1608,-1.2227,-1.2841,-1.325,-1.382,-1.47,-1.5552,-1.6038,-1.6437,-1.6888,-1.7134,-1.7312,-1.719,-1.6832,-1.6226,-1.1904,-1.2251,-1.1466,-1.0649,-0.9901,-0.9422,-0.8812,-0.8161,-0.8166,-0.8296,-0.835,-0.8458,-0.8355,-0.8258,-0.8388,-0.8129,-0.7967,-0.7837,-0.7944,-0.7759,-0.7461,-0.7754,-0.7787,-0.7722,-0.7297,-0.6605,-0.5547,-0.4046,-0.2415,-0.2246,-0.2045,-0.151,-0.1712,-0.2181,-0.2447,-0.3015,-0.3915,-0.458,-0.5176,-0.5807,-0.5976,-0.598,-0.6247,-0.6416,-0.6449,-0.6379,-0.628,-0.6247,-0.6145,-0.6634,-0.7218,-0.7907,-0.8463,-0.9113,-0.953,-0.9888,-1.0015,-0.9881,-0.9716,-0.962,-0.9139,-0.885,-0.8985,-0.8952,-0.8786,-0.8947,-0.9236,-0.9466,-0.9734,-0.9798,-0.9632,-0.93,-0.871,-0.7929,-0.7009,-0.5994,-0.4896,-0.4,-0.4058,-0.4147,-0.6398,-0.9035,-1.0925,-1.3186,-1.4478,-1.5206,-1.5535,-1.5439,-1.5332,-1.5313,-1.4854,-1.4483,-1.4425,-1.4177,-1.3773,-1.3721,-1.3565,-1.327,-1.3072,-1.3109,-1.3285,-1.3784,-1.4192,-1.4482,-1.5099,-1.568,-1.5977,-1.636,-1.6768,-1.6909,-1.687,-1.6775,-1.6244,-1.5891,-1.5545,-1.1674,-1.1903,-1.131,-1.0839,-1.0333,-0.948,-0.9256,-0.9428,-0.8871,-0.9026,-0.962,-0.9779,-0.9684,-0.923,-0.9722,-0.9492,-0.8678,-0.8517,-0.8172,-0.7954,-0.7624,-0.7722,-0.7657,-0.7297,-0.6704,-0.5914,-0.4987,-0.3887,-0.2482,-0.2114,-0.2047,-0.208,-0.198,-0.2783,-0.4156,-0.4589,-0.4851,-0.5448,-0.5976,-0.6572,-0.6802,-0.6872,-0.6942,-0.6942,-0.6811,-0.6618,-0.6519,-0.6651,-0.6905,-0.7391,-0.7949,-0.8533,-0.8888,-0.9177,-0.9498,-0.9754,-0.9907,-1.0015,-0.9881,-0.9881,-0.9466,-0.9306,-0.937,-0.9268,-0.9236,-0.944,-0.9632,-0.9728,-0.9926,-1.0021,-0.9881,-0.9524,-0.8967,-0.7962,-0.7013,-0.5903,-0.4779,-0.4613,-0.4643,-0.5413,-0.6882,-0.8626,-0.9844,-1.1859,-1.3549,-1.4298,-1.5002,-1.5051,-1.5882,-1.5845,-1.5759,-1.5757,-1.5697,-1.5274,-1.4815,-1.5119,-1.5023,-1.4696,-1.4506,-1.4561,-1.4777,-1.5213,-1.5535,-1.5529,-1.5859,-1.6362,-1.662,-1.6266,-1.6384,-1.6418,-1.6312,-1.6091,-1.5477,-1.4895,-1.4444]},{"header":{"parameterUnit":"m.s-1","parameterCategory":1,"la1":31.0,"la2":29.5877,"lo1":-88.7671,"lo2":-86.6584,"dy":0.0162,"dx":0.0185,"nx":115,"ny":88,"refTime":"2024-07-25T06:00:00:Z","depth":0,"parameterNumber":3,"parameterNumberName":"V-component_of_WINDS"},"data":[0.0,0.0,0.0,0.0,0.0,0.0,0.0,0.0,0.0,0.0,0.0,0.0,0.0,0.0,0.0,0.0,0.0,0.0,0.0,0.0,0.0,0.0,0.0,0.0,0.0,0.0,0.0,0.0,0.0,0.0,0.0,0.0,0.0,0.0,0.0,0.0,0.0,0.0,0.0,0.0,0.0,0.0,0.0,0.0,0.0,0.0,0.0,0.0,0.0,0.0,0.0,0.0,0.0,0.0,0.0,0.0,0.0,0.0,0.0,0.0,0.0,0.0,0.0,0.0,0.0,0.0,0.0,0.0,0.0,0.0,0.0,0.0,0.0,0.0,0.0,0.0,0.0,0.0,0.0,0.0,0.0,0.0,0.0,0.0,0.0,0.0,0.0,0.0,0.0,0.0,0.0,0.0,0.0,0.0,0.0,0.0,0.0,0.0,0.0,0.0,0.0,0.0,0.0,0.0,0.0,0.0,0.0,0.0,0.0,0.0,0.0,0.0,0.0,0.0,0.0,0.0,0.0,0.0,0.0,0.0,0.0,0.0,0.0,0.0,0.0,0.0,0.0,0.0,0.0,0.0,0.0,0.0,0.0,0.0,0.0,0.0,0.0,0.0,0.0,0.0,0.0,0.0,0.0,0.0,0.0,0.0,0.0,0.0,0.0,0.0,0.0,0.0,0.0,0.0,0.0,0.0,0.0,0.0,0.0,0.0,0.0,0.0,0.0,0.0,0.0,0.0,0.0,0.0,0.0,0.0,0.0,0.0,0.0,0.0,0.0,0.0,0.0,0.0,0.0,0.0,0.0,0.0,0.0,0.0,0.0,0.0,0.0,0.0,0.0,0.0,0.0,0.0,0.0,0.0,0.0,0.0,0.0,0.0,0.0,0.0,0.0,0.0,0.0,0.0,0.0,0.0,0.0,0.0,0.0,0.0,0.0,0.0,0.0,0.0,0.0,0.0,0.0,0.0,0.0,0.0,0.0,0.0,0.0,0.0,0.0,0.0,0.0,0.0,0.0,0.0,0.0,0.0,0.0,0.0,0.0,0.0,0.0,0.0,0.0,0.0,0.0,0.0,0.0,0.0,0.0,0.0,0.0,0.0,0.0,0.0,0.0,0.0,0.0,0.0,0.0,0.0,0.0,0.0,0.0,0.0,0.0,0.0,0.0,0.0,0.0,0.0,0.0,0.0,0.0,0.0,0.0,0.0,0.0,0.0,0.0,0.0,0.0,0.0,0.0,0.0,0.0,0.0,0.0,0.0,0.0,0.0,0.0,0.0,0.0,0.0,0.0,0.0,0.0,0.0,0.0,0.0,0.0,0.0,0.0,0.0,0.0,0.0,0.0,0.0,0.0,0.0,0.0,0.0,0.0,0.0,0.0,0.0,0.0,0.0,0.0,0.0,0.0,0.0,0.0,0.0,0.0,0.0,0.0,0.0,0.0,0.0,0.0,0.0,0.0,0.0,0.0,0.0,0.0,0.0,0.0,0.0,0.0,0.0,0.0,0.0,0.0,0.0,0.0,0.0,0.0,0.0,0.0,0.0,0.0,0.0,0.0,0.0,0.0,0.0,0.0,0.0,0.0,0.0,0.0,0.0,0.0,0.0,0.0,0.0,0.0,0.0,0.0,0.0,0.0,0.0,0.0,0.0,0.0,0.0,0.0,0.0,0.0,0.0,0.0,0.0,0.0,0.0,0.0,0.0,0.0,0.0,0.0,0.0,0.0,0.0,0.0,0.0,0.0,0.0,0.0,0.0,0.0,0.0,0.0,0.0,0.0,0.0,0.0,0.0,0.0,0.0,0.0,0.0,0.0,0.0,0.0,0.0,0.0,0.0,0.0,0.0,0.0,0.0,0.0,0.0,0.0,0.0,0.0,0.0,0.0,0.0,0.0,0.0,0.0,0.0,0.0,0.0,0.0,0.0,0.0,0.0,0.0,0.0,0.0,0.0,0.0,0.0,0.0,0.0,0.0,0.0,0.0,0.0,0.0,0.0,0.0,0.0,0.0,0.0,0.0,0.0,0.0,0.0,0.0,0.0,0.0,0.0,0.0,0.0,0.0,0.0,0.0,0.0,0.0,0.0,0.0,0.0,0.0,0.0,0.0,0.0,0.0,0.0,0.0,0.0,0.0,0.0,0.0,0.0,0.0,0.0,0.0,0.0,0.0,0.0,0.0,0.0,0.0,0.0,0.0,0.0,0.0,0.0,0.0,0.0,0.0,0.0,0.0,0.0,0.0,0.0,0.0,0.0,0.0,0.0,0.0,0.0,0.0,0.0,0.0,0.0,0.0,0.0,0.0,0.0,0.0,0.0,0.0,0.0,0.0,0.0,0.0,0.0,0.0,0.0,0.0,0.0,0.0,0.0,0.0,0.0,0.0,0.0,0.0,0.0,0.0,0.0,0.0,0.0,0.0,0.0,0.0,0.0,0.0,0.0,0.0,0.0,0.0,0.0,0.0,0.0,0.0,0.0,0.0,0.0,0.0,0.0,0.0,0.0,0.0,0.0,0.0,0.0,0.0,0.0,0.0,0.0,0.0,0.0,0.0,0.0,0.0,0.0,0.0,0.0,0.0,0.0,0.0,0.0,0.0,0.0,0.0,0.0,0.0,0.0,0.0,0.0,0.0,0.0,0.0,0.0,0.0,0.0,0.0,0.0,0.0,0.0,0.0,0.0,0.0,0.0,0.0,0.0,0.0,0.0,0.0,0.0,0.0,0.0,0.0,0.0,0.0,0.0,0.0,0.0,0.0,0.0,0.0,0.0,0.0,0.0,0.0,0.0,0.0,0.0,0.0,0.0,0.0,0.0,0.0,0.0,0.0,0.0,0.0,0.0,0.0,0.0,0.0,0.0,0.0,0.0,0.0,0.0,0.0,0.0,0.0,0.0,0.0,0.0,0.0,0.0,0.0,0.0,0.0,0.0,0.0,0.0,0.0,0.0,0.0,0.0,0.0,0.0,0.0,0.0,0.0,0.0,0.0,0.0,0.0,0.0,0.0,0.0,0.0,0.0,0.0,0.0,0.0,0.0,0.0,0.0,0.0,0.0,0.0,0.0,0.0,0.0,0.0,0.0,0.0,0.0,0.0,0.0,0.0,0.0,0.0,0.0,0.0,0.0,0.0,0.0,0.0,0.0,0.0,0.0,0.0,0.0,0.0,0.0,0.0,0.0,0.0,0.0,0.0,0.0,0.0,0.0,0.0,0.0,0.0,0.0,0.0,0.0,0.0,0.0,0.0,0.0,0.0,0.0,0.0,0.0,0.0,0.0,0.0,0.0,0.0,0.0,0.0,0.0,0.0,0.0,0.0,0.0,0.0,0.0,0.0,0.0,0.0,0.0,0.0,0.0,0.0,0.0,0.0,0.0,0.0,0.0,0.0,0.0,0.0,0.0,0.0,0.0,0.0,0.0,0.0,0.0,0.0,0.0,0.0,0.0,0.0,0.0,0.0,0.0,0.0,0.0,0.0,0.0,0.0,0.0,0.0,0.0,0.0,0.0,0.0,0.0,0.0,0.0,0.0,0.0,0.0,0.0,0.0,0.0,0.0,0.0,0.0,0.0,0.0,0.0,0.0,0.0,0.0,0.0,0.0,0.0,0.0,0.0,0.0,0.0,0.0,0.0,0.0,0.0,0.0,0.0,0.0,0.0,0.0,0.0,0.0,0.0,0.0,0.0,0.0,0.0,0.0,0.0,0.0,0.0,0.0,0.0,0.0,0.0,0.0,0.0,0.0,0.0,0.0,0.0,0.0,0.0,0.0,0.0,0.0,0.0,0.0,0.0,0.0,0.0,0.0,0.0,0.0,0.0,0.0,0.0,0.0,0.0,0.0,0.0,0.0,0.0,0.0,0.0,0.0,0.0,0.0,0.0,0.0,0.0,0.0,0.0,0.0,0.0,0.0,0.0,0.0,0.0,0.0,0.0,0.0,0.0,0.0,0.0,0.0,0.0,0.0,0.0,0.0,0.0,0.0,0.0,0.0,0.0,0.0,0.0,0.0,0.0,0.0,0.0,0.0,0.0,0.0,0.0,0.0,0.0,0.0,0.0,0.0,0.0,0.0,0.0,0.0,0.0,0.0,0.0,0.0,0.0,0.0,0.0,0.0,0.0,0.0,0.0,0.0,0.0,0.0,0.0,0.0,0.0,0.0,0.0,0.0,0.0,0.0,0.0,0.0,0.0,0.0,0.0,0.0,0.0,0.0,0.0,0.0,0.0,0.0,0.0,0.0,0.0,0.0,0.0,0.0,0.0,0.0,0.0,0.0,0.0,0.0,0.0,1.2766,0.0,0.0,0.0,0.0,0.0,0.0,0.0,0.0,0.0,0.0,0.0,0.0,0.0,0.0,0.0,0.0,0.0,0.0,0.0,0.0,0.0,0.0,0.0,0.0,0.0,0.0,0.0,0.0,0.0,0.0,0.0,0.0,0.0,0.0,0.0,0.0,0.0,0.0,0.0,0.0,0.0,0.0,0.0,0.0,0.0,0.0,0.0,0.0,0.0,0.0,0.0,0.0,0.0,0.0,0.0,0.0,0.0,0.0,0.0,0.0,0.0,0.0,0.0,0.0,0.0,0.0,0.0,0.0,0.0,0.0,0.0,0.0,0.0,0.0,0.0,0.0,0.0,0.0,0.0,0.0,0.0,0.0,0.0,0.0,0.0,0.0,0.0,0.0,0.0,0.0,0.0,0.0,0.0,0.0,0.0,0.0,0.0,0.0,0.0,0.0,0.0,0.0,0.0,0.0,0.0,0.0,0.0,0.0,0.0,0.0,1.2942,1.2843,1.2712,1.2703,1.2822,0.0,0.0,0.0,0.0,0.0,0.0,0.0,0.0,0.0,0.0,0.0,0.0,0.0,0.0,0.0,0.0,0.0,0.0,0.0,0.0,0.0,0.0,0.0,0.0,0.0,0.0,0.0,0.0,0.0,0.0,0.0,0.0,0.0,0.0,0.0,0.0,0.0,0.0,0.0,0.0,0.0,0.0,0.0,0.0,0.0,0.0,0.0,0.0,0.0,0.0,0.0,0.0,0.0,0.0,0.0,0.0,0.0,0.0,0.0,0.0,0.0,0.0,0.0,0.0,0.0,0.0,0.0,0.0,0.0,0.0,0.0,0.0,0.0,0.0,0.0,0.0,0.0,0.0,0.0,0.0,0.0,0.0,0.0,0.0,0.0,0.0,0.0,0.0,0.0,0.0,0.0,0.0,0.0,0.0,0.0,0.0,0.0,0.0,0.0,0.0,0.0,0.0,0.0,0.0,0.0,0.0,0.0,0.0,0.0,0.0,0.0,0.0,1.2893,1.2932,1.3193,0.0,0.0,0.0,0.0,0.0,0.0,0.0,0.0,0.0,0.0,0.0,0.0,0.0,0.0,0.0,0.0,0.0,0.0,0.0,0.0,0.0,0.0,0.0,0.0,0.0,0.0,0.0,0.0,0.0,0.0,0.0,0.0,0.0,0.0,0.0,0.0,0.0,0.0,0.0,0.0,0.0,0.0,0.0,0.0,0.0,0.0,0.0,0.0,0.0,0.0,0.0,0.0,0.0,0.0,0.0,0.0,0.0,0.0,0.0,0.0,0.0,0.0,0.0,0.0,0.0,0.0,0.0,0.0,0.0,0.0,0.0,0.0,0.0,0.0,0.0,0.0,0.0,0.0,0.0,0.0,0.0,0.0,0.0,0.0,0.0,0.0,0.0,0.0,0.0,0.0,0.0,0.0,0.0,0.0,0.0,0.0,0.0,0.0,0.0,0.0,0.0,0.0,0.0,0.0,0.0,0.0,0.0,0.0,0.0,0.0,1.3368,1.3711,1.3761,0.0,1.4091,0.0,0.0,0.0,0.0,0.0,0.0,0.0,0.0,0.0,0.0,0.0,0.0,0.0,0.0,0.0,0.0,0.0,0.0,0.0,0.0,0.0,0.0,0.0,0.0,0.0,0.0,0.0,0.0,0.0,0.0,0.0,0.0,0.0,0.0,0.0,0.0,0.0,0.0,0.0,0.0,0.0,0.0,0.0,0.0,0.0,0.0,0.0,0.0,0.0,0.0,0.0,0.0,0.0,0.0,0.0,0.0,0.0,0.0,0.0,0.0,0.0,0.0,0.0,0.0,0.0,0.0,0.0,0.0,0.0,0.0,0.0,0.0,0.0,0.0,0.0,0.0,0.0,0.0,0.0,0.0,0.0,0.0,0.0,0.0,0.0,0.0,0.0,0.0,0.0,0.0,0.0,0.0,0.0,0.0,0.0,0.0,0.0,0.0,0.0,0.0,0.0,0.0,0.0,0.0,0.0,0.0,0.0,0.0,0.0,0.0,0.0,1.3854,1.3959,1.3894,0.0,0.0,0.0,0.0,0.0,0.0,0.0,0.0,0.0,0.0,0.0,0.0,0.0,0.0,0.0,0.0,0.0,0.0,0.0,0.0,0.0,0.0,0.0,0.0,0.0,0.0,0.0,0.0,0.0,0.0,0.0,0.0,0.0,0.0,0.0,0.0,0.0,0.0,0.0,0.0,0.0,0.0,0.0,0.0,0.0,0.0,0.0,0.0,0.0,0.0,0.0,0.0,0.0,0.0,0.0,0.0,0.0,0.0,0.0,0.0,0.0,0.0,0.0,0.0,0.0,0.0,0.0,0.0,0.0,0.0,0.0,0.0,0.0,0.0,0.0,0.0,0.0,0.0,0.0,0.0,0.0,0.0,0.0,0.0,0.0,0.0,0.0,0.0,0.0,0.0,0.0,0.0,0.0,0.0,0.0,0.0,0.0,0.0,0.0,0.0,0.0,0.0,0.0,0.0,0.0,0.0,0.0,0.0,0.0,0.0,1.4007,0.0,1.4354,1.4433,1.413,1.3411,0.0,0.0,0.0,0.0,0.0,0.0,0.0,0.0,0.0,0.0,0.0,0.0,0.0,0.0,0.0,0.0,0.0,0.0,0.0,0.0,0.0,0.0,0.0,0.0,0.0,0.0,0.0,0.0,0.0,0.0,0.0,0.0,0.0,0.0,0.0,0.0,0.0,0.0,0.0,0.0,0.0,0.0,0.0,0.0,0.0,0.0,0.0,0.0,0.0,0.0,0.0,0.0,0.0,0.0,0.0,0.0,0.0,0.0,0.0,0.0,0.0,0.0,0.0,0.0,0.0,0.0,0.0,0.0,0.0,0.0,0.0,0.0,0.0,0.0,0.0,0.0,0.0,0.0,0.0,0.0,0.0,0.0,0.0,0.0,0.0,0.0,0.0,0.0,0.0,0.0,0.0,0.0,0.0,0.0,0.0,0.0,0.0,0.0,0.0,0.0,0.0,0.0,0.0,0.0,0.0,0.0,0.0,0.0,0.0,1.4365,1.4624,1.5477,1.5488,1.49,0.0,0.0,0.0,0.0,0.0,0.0,0.0,0.0,0.0,0.0,0.0,0.0,0.0,0.0,0.0,0.0,0.0,0.0,0.0,0.0,0.0,0.0,0.0,0.0,0.0,0.0,0.0,0.0,0.0,0.0,0.0,0.0,0.0,0.0,0.0,0.0,0.0,0.0,0.0,0.0,0.0,0.0,0.0,0.0,0.0,0.0,0.0,0.0,0.0,0.0,0.0,0.0,0.0,0.0,0.0,0.0,0.0,0.0,0.0,0.0,0.0,0.0,0.0,0.0,0.0,0.0,0.0,0.0,0.0,0.0,0.0,0.0,0.0,0.0,0.0,0.0,0.0,0.0,0.0,0.0,0.0,0.0,0.0,0.0,0.0,0.0,0.0,0.0,0.0,0.0,0.0,0.0,0.0,0.0,0.0,0.0,0.0,0.0,0.0,0.0,0.0,0.0,0.0,0.0,0.0,0.0,0.0,0.0,0.0,1.3842,1.4058,1.4929,1.6308,1.5501,1.4658,0.0,0.0,0.0,0.0,0.0,0.0,0.0,0.0,0.0,0.0,0.0,0.0,0.0,0.0,0.0,0.0,0.0,0.0,0.0,0.0,0.0,0.0,0.0,0.0,0.0,0.0,0.0,0.0,0.0,0.0,0.0,0.0,0.0,0.0,0.0,0.0,0.0,0.0,0.0,0.0,0.0,0.0,0.0,0.0,0.0,0.0,0.0,0.0,0.0,0.0,0.0,0.0,0.0,0.0,0.0,0.0,0.0,0.0,0.0,0.0,0.0,0.0,0.0,0.0,0.0,0.0,0.0,0.0,0.0,0.0,0.0,0.0,0.0,0.0,0.0,0.0,0.0,0.0,0.0,0.0,0.0,0.0,0.0,0.0,0.0,0.0,0.0,0.0,0.0,0.0,0.0,0.0,0.0,0.0,0.0,0.0,0.0,0.0,0.0,0.0,0.0,0.0,0.0,0.0,0.0,0.0,0.0,0.0,0.0,1.404,0.0,1.5466,0.0,1.5623,1.4684,0.0,0.0,0.0,0.0,0.0,0.0,0.0,0.0,0.0,0.0,0.0,0.0,0.0,0.0,0.0,0.0,0.0,0.0,0.0,0.0,0.0,0.0,0.0,0.0,0.0,0.0,0.0,0.0,0.0,0.0,0.0,0.0,0.0,0.0,0.0,0.0,0.0,0.0,0.0,0.0,0.0,0.0,0.0,0.0,0.0,0.0,0.0,0.0,0.0,0.0,0.0,0.0,0.0,0.0,0.0,0.0,0.0,0.0,0.0,0.0,0.0,0.0,0.0,0.0,0.0,0.0,0.0,0.0,0.0,0.0,0.0,0.0,0.0,0.0,0.0,0.0,0.0,0.0,0.0,0.0,0.0,0.0,0.0,0.0,0.0,0.0,0.0,0.0,0.0,0.0,0.0,0.0,0.0,0.0,0.0,0.0,0.0,0.0,0.0,0.0,0.0,0.0,0.0,0.0,0.0,0.0,0.0,0.0,1.4272,1.5525,1.6051,1.6214,1.6045,1.5913,1.5043,0.0,0.0,0.0,0.0,0.0,0.0,0.0,0.0,0.0,0.0,0.0,0.0,0.0,0.0,0.0,0.0,0.0,0.0,0.0,0.0,0.0,0.0,0.0,0.0,0.0,0.0,0.0,0.0,0.0,0.0,0.0,0.0,0.0,0.0,0.0,0.0,0.0,0.0,0.0,0.0,0.0,0.0,0.0,0.0,0.0,0.0,0.0,0.0,0.0,0.0,0.0,0.0,0.0,0.0,0.0,0.0,0.0,0.0,0.0,0.0,0.0,0.0,0.0,0.0,0.0,0.0,0.0,0.0,0.0,0.0,0.0,0.0,0.0,0.0,0.0,0.0,0.0,0.0,0.0,0.0,0.0,0.0,0.0,0.0,0.0,0.0,0.0,0.0,0.0,0.0,0.0,0.0,0.0,0.0,0.0,0.0,0.0,0.0,0.0,0.0,0.0,0.0,0.0,0.0,0.0,0.0,0.0,0.0,0.0,1.5071,1.5663,1.6281,1.6842,1.603,1.535,0.0,0.0,0.0,0.0,0.0,0.0,0.0,0.0,0.0,0.0,0.0,0.0,0.0,0.0,0.0,0.0,0.0,0.0,0.0,0.0,0.0,0.0,0.0,0.0,0.0,0.0,0.0,0.0,0.0,0.0,0.0,0.0,0.0,0.0,0.0,0.0,0.0,0.0,0.0,0.0,0.0,0.0,0.0,0.0,0.0,0.0,0.0,0.0,0.0,0.0,0.0,0.0,0.0,0.0,0.0,0.0,0.0,0.0,0.0,0.0,0.0,0.0,0.0,0.0,0.0,0.0,0.0,0.0,0.0,0.0,0.0,0.0,0.0,0.0,0.0,0.0,0.0,0.0,0.0,0.0,0.0,0.0,0.0,0.0,0.0,0.0,0.0,0.0,0.0,0.0,0.0,0.0,0.0,0.0,0.0,0.0,0.0,0.0,0.0,0.0,0.0,0.0,0.0,0.0,0.0,0.0,0.0,0.0,0.0,1.6361,1.6936,1.7315,1.7453,1.6964,1.6392,1.5728,0.0,0.0,0.0,0.0,0.0,0.0,0.0,0.0,0.0,0.0,0.0,0.0,0.0,0.0,0.0,0.0,0.0,0.0,0.0,0.0,0.0,0.0,0.0,0.0,0.0,0.0,0.0,0.0,0.0,0.0,0.0,0.0,0.0,0.0,0.0,0.0,0.0,0.0,0.0,0.0,0.0,0.0,0.0,0.0,0.0,0.0,0.0,0.0,0.0,0.0,0.0,0.0,0.0,0.0,0.0,0.0,0.0,0.0,0.0,0.0,0.0,0.0,0.0,0.0,0.0,0.0,0.0,0.0,0.0,0.0,0.0,0.0,0.0,0.0,0.0,0.0,0.0,0.0,0.0,0.0,0.0,0.0,0.0,0.0,0.0,0.0,0.0,0.0,0.0,0.0,0.0,0.0,0.0,0.0,0.0,0.0,0.0,0.0,0.0,0.0,0.0,0.0,0.0,0.0,0.0,0.0,0.0,0.0,1.8985,1.9561,1.9241,1.7985,1.8552,1.8001,0.0,0.0,0.0,0.0,0.0,0.0,0.0,0.0,0.0,0.0,0.0,0.0,0.0,0.0,0.0,0.0,0.0,0.0,0.0,0.0,0.0,0.0,0.0,0.0,0.0,0.0,0.0,0.0,0.0,0.0,0.0,0.0,0.0,0.0,0.0,0.0,0.0,0.0,0.0,0.0,0.0,0.0,0.0,0.0,0.0,0.0,0.0,0.0,0.0,0.0,0.0,0.0,0.0,0.0,0.0,0.0,0.0,0.0,0.0,0.0,0.0,0.0,0.0,0.0,0.0,0.0,0.0,0.0,0.0,0.0,0.0,0.0,0.0,0.0,0.0,0.0,0.0,0.0,0.0,0.0,0.0,0.0,0.0,0.0,0.0,0.0,0.0,0.0,0.0,0.0,0.0,0.0,0.0,0.0,0.0,0.0,0.0,0.0,0.0,0.0,0.0,0.0,0.0,0.0,0.0,0.0,0.0,0.0,0.0,2.0101,2.1425,2.1579,2.0408,1.9601,1.8686,0.0,0.0,0.0,0.0,0.0,0.0,0.0,0.0,0.0,0.0,0.0,0.0,0.0,0.0,0.0,0.0,0.0,0.0,0.0,0.0,0.0,0.0,0.0,0.0,0.0,0.0,0.0,0.0,0.0,0.0,0.0,0.0,0.0,0.0,0.0,0.0,0.0,0.0,0.0,0.0,0.0,0.0,0.0,0.0,0.0,0.0,0.0,0.0,0.0,0.0,0.0,0.0,0.0,0.0,0.0,0.0,0.0,0.0,0.0,0.0,0.0,0.0,0.0,0.0,0.0,0.0,0.0,0.0,0.0,0.0,0.0,0.0,0.0,0.0,0.0,0.0,0.0,0.0,0.0,0.0,0.0,0.0,0.0,0.0,0.0,0.0,0.0,0.0,0.0,0.0,0.0,0.0,0.0,0.0,0.0,0.0,0.0,0.0,0.0,0.0,0.0,0.0,0.0,0.0,0.0,0.0,0.0,0.0,2.0533,2.1627,2.2919,2.3317,2.2748,2.1551,2.0258,0.0,0.0,0.0,0.0,0.0,0.0,0.0,0.0,0.0,0.0,0.0,0.0,0.0,0.0,0.0,0.0,0.0,0.0,0.0,0.0,0.0,0.0,0.0,0.0,0.0,0.0,0.0,0.0,0.0,0.0,0.0,0.0,0.0,0.0,0.0,0.0,0.0,0.0,0.0,0.0,0.0,0.0,0.0,0.0,0.0,0.0,0.0,0.0,0.0,0.0,0.0,0.0,0.0,0.0,0.0,0.0,0.0,0.0,0.0,0.0,0.0,0.0,0.0,0.0,0.0,0.0,0.0,0.0,0.0,0.0,0.0,0.0,0.0,0.0,0.0,0.0,0.0,0.0,0.0,0.0,0.0,0.0,0.0,0.0,0.0,0.0,0.0,0.0,0.0,0.0,0.0,0.0,0.0,0.0,0.0,0.0,0.0,0.0,0.0,0.0,0.0,0.0,0.0,0.0,0.0,0.0,0.0,0.0,2.1711,2.318,2.3989,2.4501,2.4673,2.3691,2.2095,0.0,0.0,0.0,0.0,0.0,0.0,0.0,0.0,0.0,0.0,0.0,0.0,0.0,0.0,0.0,0.0,0.0,0.0,0.0,0.0,0.0,0.0,0.0,0.0,0.0,0.0,0.0,0.0,0.0,0.0,0.0,0.0,0.0,0.0,0.0,0.0,0.0,0.0,0.0,0.0,0.0,0.0,0.0,0.0,0.0,0.0,0.0,0.0,0.0,0.0,0.0,0.0,0.0,0.0,0.0,0.0,0.0,0.0,0.0,0.0,0.0,0.0,0.0,0.0,0.0,0.0,0.0,0.0,0.0,0.0,0.0,0.0,0.0,0.0,0.0,0.0,0.0,0.0,0.0,0.0,0.0,0.0,0.0,0.0,0.0,0.0,0.0,0.0,0.0,0.0,0.0,0.0,0.0,0.0,0.0,0.0,0.0,0.0,0.0,0.0,0.0,0.0,0.0,0.0,0.0,0.0,0.0,0.0,2.2929,2.3217,2.3971,2.4493,2.4673,2.3859,2.26,0.0,0.0,0.0,0.0,0.0,0.0,0.0,0.0,0.0,0.0,0.0,0.0,0.0,0.0,0.0,0.0,0.0,0.0,0.0,0.0,0.0,0.0,0.0,0.0,0.0,0.0,0.0,0.0,0.0,0.0,0.0,0.0,0.0,0.0,0.0,0.0,0.0,0.0,0.0,0.0,0.0,0.0,0.0,0.0,0.0,0.0,0.0,0.0,1.5911,0.0,0.0,0.0,0.0,0.0,0.0,0.0,0.0,0.0,0.0,0.0,0.0,0.0,0.0,0.0,0.0,0.0,0.0,0.0,0.0,0.0,0.0,0.0,0.0,0.0,0.0,0.0,0.0,0.0,0.0,0.0,0.0,0.0,0.0,0.0,0.0,0.0,0.0,0.0,0.0,0.0,0.0,0.0,0.0,0.0,0.0,0.0,0.0,0.0,0.0,0.0,0.0,0.0,0.0,0.0,0.0,0.0,0.0,0.0,2.3677,2.399,2.441,2.4704,2.4854,2.4497,2.3499,0.0,0.0,0.0,0.0,0.0,0.0,0.0,0.0,0.0,0.0,0.0,0.0,0.0,0.0,0.0,0.0,0.0,0.0,0.0,0.0,0.0,0.0,0.0,0.0,0.0,0.0,0.0,0.0,0.0,0.0,0.0,0.0,0.0,0.0,0.0,0.0,0.0,0.0,0.0,0.0,0.0,0.0,0.0,0.0,0.0,0.0,0.0,0.0,0.0,0.0,0.0,0.0,0.0,0.0,0.0,0.0,0.0,0.0,0.0,0.0,0.0,0.0,0.0,0.0,0.0,0.0,0.0,0.0,0.0,0.0,0.0,0.0,0.0,0.0,0.0,0.0,0.0,0.0,0.0,0.0,0.0,0.0,0.0,0.0,0.0,0.0,0.0,0.0,0.0,0.0,0.0,0.0,0.0,0.0,0.0,0.0,0.0,0.0,0.0,0.0,0.0,0.0,0.0,0.0,0.0,0.0,0.0,2.2502,2.4066,2.4854,2.49,2.4967,2.5082,2.5168,2.4331,2.2494,0.0,0.0,0.0,0.0,0.0,0.0,0.0,0.0,0.0,0.0,0.0,0.0,0.0,0.0,0.0,0.0,0.0,0.0,0.0,0.0,0.0,0.0,0.0,0.0,0.0,0.0,0.0,0.0,0.0,0.0,0.0,0.0,0.0,0.0,0.0,0.0,0.0,0.0,1.365,1.5087,0.0,0.0,0.0,0.0,0.0,0.0,0.0,0.0,1.8739,0.0,0.0,0.0,0.0,0.0,0.0,0.0,0.0,0.0,0.0,0.0,0.0,0.0,0.0,0.0,0.0,0.0,0.0,0.0,0.0,0.0,0.0,0.0,0.0,0.0,0.0,0.0,0.0,0.0,0.0,0.0,0.0,0.0,0.0,0.0,0.0,0.0,0.0,0.0,0.0,0.0,0.0,0.0,0.0,0.0,0.0,0.0,0.0,0.0,0.0,0.0,0.0,0.0,0.0,0.0,0.0,2.1947,2.2943,2.3921,2.4872,2.4898,2.496,2.5101,2.5168,2.4372,2.2631,0.0,0.0,0.0,0.0,0.0,0.0,0.0,0.0,0.0,0.0,0.0,0.0,0.0,0.0,0.0,0.0,0.0,0.0,0.0,0.0,0.0,0.0,0.0,0.0,0.0,0.0,0.0,0.0,0.0,0.0,0.0,0.0,0.0,0.0,0.0,0.0,0.0,0.0,0.0,1.6289,1.723,0.0,0.0,0.0,0.0,0.0,0.0,0.0,0.0,1.9383,0.0,0.0,0.0,0.0,0.0,0.0,0.0,0.0,0.0,0.0,0.0,0.0,0.0,0.0,0.0,0.0,0.0,0.0,0.0,0.0,0.0,0.0,0.0,0.0,0.0,0.0,0.0,0.0,0.0,0.0,0.0,0.0,0.0,0.0,0.0,0.0,0.0,0.0,0.0,0.0,0.0,0.0,0.0,0.0,0.0,0.0,0.0,0.0,0.0,0.0,0.0,0.0,0.0,0.0,0.0,2.1798,2.3377,2.4443,2.4974,2.5019,2.5101,2.5124,2.4304,2.3499,0.0,0.0,0.0,0.0,0.0,0.0,0.0,0.0,0.0,0.0,0.0,0.0,0.0,0.0,0.0,0.0,0.0,0.0,0.0,0.0,0.0,0.0,0.0,0.0,0.0,0.0,0.0,0.0,0.0,0.0,0.0,0.0,0.0,0.0,0.0,0.0,0.0,0.0,0.0,0.0,1.7017,1.7675,1.8591,0.0,0.0,0.0,0.0,0.0,0.0,1.9589,1.9596,0.0,0.0,0.0,0.0,0.0,0.0,0.0,0.0,0.0,0.0,0.0,0.0,0.0,0.0,0.0,0.0,0.0,0.0,0.0,0.0,0.0,0.0,0.0,0.0,0.0,0.0,0.0,0.0,0.0,0.0,0.0,0.0,0.0,0.0,0.0,0.0,0.0,0.0,0.0,0.0,0.0,0.0,0.0,0.0,0.0,0.0,0.0,0.0,0.0,0.0,0.0,0.0,0.0,0.0,0.0,2.1287,2.3499,2.4815,2.5082,2.5143,2.5094,2.4924,2.3607,2.2705,0.0,0.0,0.0,0.0,0.0,0.0,0.0,0.0,0.0,0.0,0.0,0.0,0.0,0.0,0.0,0.0,0.0,0.0,0.0,0.0,0.0,0.0,0.0,0.0,0.0,0.0,0.0,0.0,0.0,0.0,0.0,0.0,0.0,0.0,0.0,0.0,0.0,0.0,0.0,0.0,0.0,1.8523,1.8992,1.9368,0.0,0.0,0.0,0.0,2.0245,2.027,0.0,0.0,0.0,0.0,0.0,0.0,0.0,0.0,0.0,0.0,0.0,0.0,0.0,0.0,0.0,0.0,0.0,0.0,0.0,0.0,0.0,0.0,0.0,0.0,0.0,0.0,0.0,0.0,0.0,0.0,0.0,0.0,0.0,0.0,0.0,0.0,0.0,0.0,0.0,0.0,0.0,0.0,0.0,0.0,0.0,0.0,0.0,0.0,0.0,0.0,0.0,0.0,0.0,0.0,0.0,0.0,2.1126,2.2912,2.4252,2.5043,2.5107,2.4782,2.4087,2.385,2.2741,0.0,0.0,0.0,0.0,0.0,0.0,0.0,0.0,0.0,0.0,0.0,0.0,0.0,0.0,0.0,0.0,0.0,0.0,0.0,0.0,0.0,0.0,0.0,0.0,0.0,0.0,0.0,0.0,0.0,0.0,0.0,0.0,0.0,0.0,0.0,0.0,0.0,0.0,0.0,0.0,0.0,2.0552,1.9426,2.0037,2.0685,0.0,0.0,2.1288,2.2053,2.2135,0.0,0.0,0.0,0.0,0.0,0.0,0.0,0.0,0.0,0.0,0.0,0.0,0.0,0.0,0.0,0.0,0.0,0.0,0.0,0.0,0.0,0.0,0.0,0.0,0.0,0.0,0.0,0.0,0.0,0.0,0.0,0.0,0.0,0.0,0.0,0.0,0.0,0.0,0.0,0.0,0.0,0.0,0.0,0.0,0.0,0.0,0.0,0.0,0.0,0.0,0.0,0.0,0.0,0.0,0.0,2.0118,2.1783,2.3498,2.4638,2.5137,2.5162,2.4776,2.398,2.2995,2.1799,0.0,0.0,0.0,0.0,0.0,0.0,0.0,0.0,0.0,0.0,0.0,0.0,0.0,0.0,0.0,0.0,0.0,0.0,0.0,0.0,0.0,0.0,0.0,0.0,0.0,0.0,0.0,0.0,0.0,0.0,0.0,0.0,0.0,0.0,0.0,0.0,0.0,0.0,0.0,0.0,0.0,0.0,2.0975,2.1488,0.0,0.0,0.0,2.2249,2.2665,0.0,0.0,0.0,0.0,0.0,0.0,0.0,0.0,0.0,0.0,0.0,0.0,0.0,0.0,0.0,0.0,0.0,0.0,0.0,0.0,0.0,0.0,0.0,0.0,0.0,0.0,0.0,0.0,0.0,0.0,0.0,0.0,0.0,0.0,0.0,0.0,0.0,0.0,0.0,0.0,0.0,0.0,0.0,0.0,0.0,0.0,0.0,0.0,0.0,0.0,0.0,0.0,0.0,0.0,0.0,0.0,0.0,2.2004,2.3953,2.5031,2.5185,2.4981,2.4479,2.3655,2.2168,0.0,0.0,0.0,0.0,0.0,0.0,0.0,0.0,0.0,0.0,0.0,0.0,0.0,0.0,0.0,0.0,0.0,0.0,0.0,0.0,0.0,0.0,0.0,0.0,0.0,0.0,0.0,1.0594,0.0,0.0,0.0,0.0,0.0,0.0,0.0,0.0,0.0,0.0,0.0,0.0,0.0,0.0,2.1836,2.2306,2.2705,2.2993,0.0,0.0,2.3219,2.3478,2.2902,2.2228,0.0,0.0,0.0,0.0,0.0,0.0,0.0,0.0,0.0,0.0,0.0,0.0,0.0,0.0,0.0,0.0,0.0,0.0,0.0,0.0,0.0,0.0,0.0,0.0,0.0,0.0,0.0,0.0,0.0,0.0,0.0,0.0,0.0,0.0,0.0,0.0,0.0,0.0,0.0,0.0,0.0,0.0,0.0,0.0,0.0,0.0,0.0,0.0,0.0,0.0,0.0,0.0,0.0,0.0,0.0,2.1235,2.3764,2.5119,2.5172,2.4396,2.3564,2.2708,2.1792,2.0241,0.0,0.0,0.0,0.0,0.0,0.0,0.0,0.0,0.0,0.0,0.0,0.0,0.0,0.0,0.0,0.0,0.0,0.0,0.0,0.0,0.0,0.0,0.0,0.0,0.0,0.0,0.0,0.0,0.0,0.0,0.0,0.0,0.0,0.0,0.0,0.0,0.0,0.0,0.0,0.0,0.0,2.4036,2.2765,2.3347,2.3918,0.0,0.0,2.4282,2.5106,2.5009,2.4331,2.2764,0.0,0.0,0.0,0.0,0.0,0.0,0.0,0.0,0.0,0.0,0.0,0.0,0.0,0.0,0.0,0.0,0.0,0.0,0.0,0.0,0.0,0.0,0.0,0.0,0.0,0.0,0.0,0.0,0.0,0.0,0.0,0.0,0.0,0.0,0.0,0.0,0.0,0.0,0.0,0.0,0.0,0.0,0.0,0.0,0.0,0.0,0.0,0.0,0.0,0.0,0.0,0.0,0.0,2.0364,2.1127,2.3752,2.5132,2.5166,2.4341,2.3476,2.2604,2.1808,2.0205,0.0,0.0,0.0,0.0,0.0,0.0,0.0,0.0,0.0,0.0,0.0,0.0,0.0,0.0,0.0,0.0,0.0,0.0,0.0,0.0,0.0,0.0,0.0,0.0,0.0,0.0,0.0,0.0,1.3137,1.3481,1.3889,0.0,0.0,0.0,0.0,0.0,0.0,0.0,0.0,0.0,0.0,2.4131,2.4132,2.4553,0.0,0.0,2.495,2.5089,2.5404,2.4494,2.3696,2.3537,2.2531,0.0,0.0,0.0,0.0,0.0,0.0,0.0,0.0,0.0,0.0,0.0,0.0,0.0,0.0,0.0,0.0,0.0,0.0,0.0,0.0,0.0,0.0,0.0,0.0,0.0,0.0,0.0,0.0,0.0,0.0,0.0,0.0,0.0,0.0,0.0,0.0,0.0,0.0,0.0,0.0,0.0,0.0,0.0,0.0,0.0,0.0,0.0,0.0,0.0,0.0,0.0,0.0,2.0404,2.1191,2.3776,2.5145,2.521,2.4106,2.3231,2.2612,2.157,2.0084,0.0,0.0,0.0,0.0,0.0,0.0,0.0,0.0,0.0,0.0,0.0,0.0,0.0,0.0,0.0,0.0,0.0,0.0,0.0,0.0,0.0,0.0,0.0,0.0,0.0,0.0,0.0,0.0,1.3792,1.3924,1.4344,0.0,0.0,0.0,0.0,0.0,0.0,0.0,0.0,0.0,0.0,2.441,2.5094,2.5298,2.5419,2.543,2.5448,2.5476,2.5486,2.4461,2.3753,2.4082,0.0,0.0,0.0,0.0,0.0,0.0,0.0,0.0,0.0,0.0,0.0,0.0,0.0,0.0,0.0,0.0,0.0,0.0,0.0,0.0,0.0,0.0,0.0,0.0,0.0,0.0,0.0,0.0,0.0,0.0,1.4923,0.0,0.0,0.0,0.0,0.0,0.0,0.0,0.0,0.0,0.0,0.0,0.0,0.0,0.0,0.0,0.0,0.0,0.0,0.0,0.0,0.0,0.0,2.0532,2.14,2.3854,2.515,2.5172,2.3534,2.2642,2.2582,2.1004,1.9734,1.8885,0.0,0.0,0.0,0.0,0.0,0.0,0.0,0.0,0.0,0.0,0.0,0.0,0.0,0.0,0.0,0.0,0.0,0.0,0.0,0.0,0.0,0.0,0.0,0.0,0.0,0.0,1.4738,1.4641,1.4521,0.0,0.0,0.0,0.0,0.0,0.0,0.0,0.0,0.0,0.0,2.446,2.5212,2.5375,2.5394,2.543,2.5484,2.5449,2.543,2.5489,2.5372,2.5081,0.0,0.0,0.0,0.0,0.0,0.0,0.0,0.0,0.0,0.0,0.0,0.0,0.0,0.0,0.0,0.0,0.0,0.0,0.0,0.0,0.0,0.0,0.0,0.0,0.0,0.0,0.0,1.8372,1.7741,0.0,0.0,0.0,0.0,0.0,0.0,0.0,0.0,0.0,0.0,0.0,2.1098,2.1375,0.0,0.0,0.0,0.0,0.0,0.0,0.0,0.0,0.0,0.0,0.0,0.0,2.0523,2.1468,2.3847,2.5125,2.5147,2.3495,2.2626,2.2593,2.1048,1.9858,1.9037,0.0,0.0,0.0,0.0,0.0,0.0,0.0,0.0,0.0,0.0,0.0,0.0,0.0,0.0,0.0,0.0,0.0,0.0,0.0,0.0,0.0,0.0,0.0,0.0,0.0,1.4909,0.0,0.0,0.0,0.0,0.0,0.0,0.0,0.0,0.0,0.0,0.0,2.3422,2.4308,2.4884,2.5222,2.5331,2.536,2.5417,0.0,0.0,0.0,0.0,0.0,0.0,0.0,0.0,0.0,0.0,0.0,0.0,0.0,0.0,2.4302,2.289,2.2735,2.2756,2.2562,0.0,0.0,0.0,0.0,0.0,0.0,0.0,0.0,0.0,0.0,0.0,0.0,0.0,0.0,2.0013,0.0,1.8552,0.0,0.0,0.0,0.0,0.0,0.0,0.0,0.0,2.1676,2.2487,2.2829,2.3132,2.3164,0.0,2.2675,2.1479,0.0,0.0,0.0,0.0,0.0,0.0,0.0,0.0,2.1139,2.23,2.4156,2.5155,2.5134,2.3495,2.2607,2.2571,2.1088,1.9898,1.9104,1.7512,1.6592,0.0,0.0,0.0,0.0,0.0,0.0,0.0,0.0,0.0,0.0,0.0,0.0,0.0,0.0,0.0,0.0,0.0,0.0,0.0,0.0,0.0,0.0,0.0,1.5232,0.0,0.0,0.0,0.0,0.0,0.0,0.0,0.0,0.0,2.135,2.2658,2.3838,2.4763,2.5069,2.5215,2.5252,0.0,0.0,0.0,0.0,0.0,0.0,0.0,2.4916,2.5403,2.5025,2.4857,2.5389,2.5556,2.5634,2.5634,0.0,0.0,2.3978,2.3786,2.3837,2.3936,2.4442,2.467,2.4116,2.4451,2.4684,0.0,0.0,0.0,0.0,0.0,0.0,0.0,0.0,2.1576,2.1167,0.0,2.0131,0.0,0.0,0.0,0.0,0.0,2.1516,0.0,0.0,2.3646,2.4458,2.3913,2.4675,2.4721,2.4115,2.4715,2.424,2.2713,2.1086,0.0,0.0,0.0,0.0,0.0,0.0,2.2249,2.3823,2.4741,2.5201,2.5159,2.3539,2.2639,2.253,2.102,1.9883,1.9189,1.9084,1.8338,1.6757,1.5852,0.0,0.0,0.0,0.0,0.0,0.0,0.0,0.0,0.0,0.0,0.0,0.0,0.0,0.0,0.0,0.0,0.0,0.0,0.0,0.0,1.5138,0.0,0.0,0.0,0.0,0.0,0.0,0.0,0.0,0.0,0.0,2.2098,2.328,2.4264,2.4742,0.0,0.0,0.0,0.0,2.5363,2.5483,2.5514,2.5538,2.559,2.5593,2.5592,2.5605,0.0,0.0,2.5609,2.5643,2.5699,2.5703,2.5703,2.5703,2.5651,2.5575,2.5604,2.5614,2.5599,2.5682,2.5683,2.5566,2.5605,2.417,0.0,0.0,0.0,0.0,2.4024,2.4283,2.4257,2.3891,2.3411,2.2821,2.193,0.0,0.0,0.0,0.0,0.0,0.0,2.3123,2.2961,2.4305,2.4839,2.4677,2.4905,2.4936,2.4801,2.4993,2.4854,2.4415,2.3906,2.2326,1.9739,0.0,0.0,0.0,0.0,2.2881,2.395,2.4779,2.5201,2.5209,2.4105,2.2965,2.178,2.0788,2.0195,2.0027,1.9468,1.8964,1.8476,1.762,0.0,0.0,0.0,0.0,0.0,0.0,0.0,0.0,0.0,0.0,0.0,0.0,0.0,0.0,0.0,0.0,0.0,0.0,0.0,1.5757,1.5937,1.6647,0.0,0.0,0.0,0.0,0.0,0.0,0.0,0.0,0.0,2.2815,2.3577,2.4273,0.0,0.0,2.5208,2.5206,2.5351,2.5472,2.5546,2.5602,0.0,0.0,2.5661,2.5664,2.5606,2.5597,2.5603,2.56,2.5664,2.5695,2.5686,2.5699,2.5696,2.5697,2.5705,2.5693,2.57,2.5702,2.5703,2.5702,2.5699,2.5698,2.4765,2.4252,2.4309,2.4277,2.4303,2.4796,2.5005,2.4998,2.4856,2.4518,2.4047,2.3493,2.2769,2.1987,2.202,0.0,0.0,0.0,2.4148,2.4167,2.477,2.5031,2.4993,2.5025,2.5051,2.5082,2.5089,2.5114,2.5145,2.5126,2.3931,2.1696,0.0,0.0,2.1641,2.2671,2.3629,2.4455,2.4973,2.5222,2.5192,2.4372,2.3141,2.1549,2.105,2.0676,2.0393,1.9966,1.9713,1.972,1.8885,1.8019,0.0,0.0,0.0,0.0,0.0,0.0,0.0,0.0,0.0,0.0,0.0,1.6275,1.5753,0.0,0.0,0.0,1.5949,1.6533,1.7539,1.7808,0.0,0.0,0.0,0.0,0.0,0.0,0.0,2.2554,2.2602,2.2774,2.337,2.384,2.4309,2.4742,2.4999,2.5176,2.5236,0.0,2.5499,2.559,2.5628,2.5669,2.5695,2.5702,2.5682,2.5608,2.5597,2.5566,2.5541,2.5562,2.5577,2.5582,2.5613,2.563,2.5615,2.5645,2.5672,2.5683,2.5703,2.5702,2.5698,2.5694,2.5694,2.5304,2.5298,2.5304,2.5241,2.5095,2.5025,2.4999,2.4986,2.4863,2.482,2.482,2.4746,2.4309,2.3617,2.3688,0.0,2.4905,2.4985,2.5018,2.4999,2.5089,2.5063,2.5006,2.5089,2.5101,2.5113,2.5107,2.5151,2.521,2.5137,2.4729,2.4014,2.4012,2.3968,2.3927,2.4032,2.4474,2.5203,2.5262,2.5262,2.5198,2.4422,2.3289,2.1849,2.1665,2.1244,2.0548,2.048,2.0509,2.0487,1.9724,1.89,1.8008,0.0,0.0,0.0,0.0,0.0,0.0,0.0,0.0,0.0,0.0,0.0,0.0,0.0,0.0,0.0,1.7381,0.0,1.9944,2.0188,0.0,0.0,0.0,2.2002,2.3383,2.3161,2.3083,2.348,0.0,0.0,2.3774,2.4042,2.4352,2.4738,2.4961,2.5138,2.5276,2.5365,2.5441,2.5553,2.5571,2.5604,2.5648,2.5657,2.5624,2.5546,2.5575,2.5504,2.5405,2.5388,2.5376,2.5408,2.5453,2.5515,2.5518,2.5554,2.5599,2.5681,2.5703,2.57,2.5695,2.5694,2.5679,2.709,2.7084,2.7084,2.6314,2.5101,2.5095,2.5038,2.4999,2.4863,2.4856,2.495,2.4846,2.4728,2.4655,2.465,2.4809,2.505,2.5063,2.507,2.507,2.5076,2.5089,2.5082,2.5095,2.5112,2.5184,2.5184,2.5176,2.5209,2.5185,2.507,2.4889,2.4889,2.4574,2.4024,2.4648,2.5081,2.5269,2.5298,2.5307,2.5243,2.4481,2.3875,2.3438,2.2246,2.1497,2.1307,2.0779,2.0508,2.0487,2.0312,1.98,1.8926,1.7297,0.0,0.0,0.0,0.0,0.0,0.0,0.0,0.0,0.0,1.8564,1.6663,0.0,1.8279,0.0,1.9031,1.982,2.0762,2.0912,0.0,0.0,2.3164,2.3442,2.4419,2.4151,2.3877,2.3885,2.3837,2.3795,2.3876,2.4211,2.4508,2.4779,2.4962,2.5118,2.5236,2.5327,2.539,2.5441,2.5437,2.5462,2.5471,2.5422,2.5385,2.5298,2.5284,2.5282,2.5252,2.5251,2.5281,2.5372,2.5406,2.5444,2.5485,2.5523,2.5552,2.5613,2.5646,2.57,2.5703,2.5662,2.564,2.7701,2.7701,2.7701,2.7122,2.6238,2.5838,2.5641,2.5545,2.5084,2.4938,2.5003,2.4936,2.4938,2.4986,2.4993,2.5019,2.5082,2.5082,2.5082,2.5101,2.5139,2.5138,2.5156,2.5149,2.5159,2.5209,2.5239,2.5236,2.5247,2.5238,2.5243,2.5248,2.5264,2.5067,2.4663,2.5076,2.5302,2.5308,2.5322,2.5341,2.5332,2.4908,2.4307,2.3491,2.3022,2.2407,2.167,2.1282,2.1081,2.107,2.072,2.0092,1.9237,1.8327,1.7792,0.0,0.0,0.0,0.0,0.0,0.0,0.0,0.0,0.0,0.0,0.0,1.9488,1.9839,2.0587,2.139,2.2142,2.2621,2.3271,2.4157,2.4219,2.435,2.4804,2.4501,2.4182,2.4067,2.3988,2.3976,2.4026,2.433,2.461,2.4782,2.4968,2.5134,2.5217,2.5317,2.5373,2.5397,2.5383,2.5321,2.5281,2.5185,2.5085,2.5047,2.5014,2.5046,2.5064,2.5083,2.5154,2.5235,2.5298,2.5311,2.5361,2.5418,2.5457,2.551,2.5552,2.5616,2.5647,2.5643,2.5597,2.8026,2.8026,2.8007,2.8007,2.795,2.7084,2.6568,2.6256,2.5367,2.4999,2.501,2.513,2.517,2.5183,2.5177,2.5216,2.5265,2.5151,2.5113,2.5119,2.5174,2.5216,2.5197,2.5201,2.5209,2.5203,2.5262,2.5302,2.5298,2.5298,2.5308,2.5308,2.5355,2.5388,2.5384,2.5351,2.5317,2.5317,2.537,2.5388,2.5384,2.5384,2.4666,2.3259,2.3821,2.3528,2.2092,2.1979,2.1966,2.1955,2.1237,2.0433,1.9602,1.9527,1.9463,0.0,1.9363,0.0,0.0,0.0,0.0,0.0,0.0,0.0,0.0,2.0843,2.0684,2.1202,2.2116,2.298,2.3671,2.4485,2.4994,2.5105,2.5006,2.4893,2.479,2.4501,2.4266,2.4123,2.4064,2.4074,2.417,2.4429,2.4653,2.4782,2.498,2.5143,2.5255,2.5287,2.5293,2.536,2.5293,2.5197,2.5081,2.4944,2.4827,2.4759,2.4739,2.4768,2.4855,2.4921,2.4986,2.5095,2.5164,2.5201,2.5212,2.5306,2.5391,2.5406,2.5459,2.5498,2.5578,2.559,2.5591,2.9726,2.9726,2.9733,2.9726,2.965,2.8796,2.7611,2.6237,2.5367,2.4993,2.5062,2.5754,2.6072,2.613,2.6136,2.6155,2.6129,2.5485,2.518,2.518,2.5205,2.5203,2.5201,2.5206,2.5231,2.5269,2.5298,2.5322,2.5401,2.5386,2.5386,2.5386,2.539,2.5397,2.5387,0.0,0.0,0.0,2.5395,2.54,2.5387,2.5382,2.5243,2.4917,2.4451,0.0,2.373,2.3178,2.2845,2.2858,2.2703,0.0,0.0,0.0,0.0,0.0,0.0,0.0,0.0,0.0,0.0,0.0,2.2051,2.1747,2.1402,2.23,2.2981,2.3092,2.3808,2.4317,2.4467,2.4648,2.4757,2.4805,2.491,2.491,2.4727,2.4613,2.4446,2.4133,2.4141,2.4151,2.4142,2.4411,2.4653,2.4801,2.4985,2.5126,2.5217,2.5225,2.5231,2.5223,2.5106,2.4961,2.4867,2.4749,2.4598,2.4508,2.4481,2.4522,2.4642,2.473,2.4849,2.5031,2.5126,2.5147,2.5201,2.5259,2.5337,2.5393,2.5429,2.5429,2.5498,2.5529,2.5532,3.0204,0.0,3.0204,3.0204,0.0,2.9267,2.8386,2.7461,2.6631,2.6275,2.6325,2.6757,2.6961,2.6974,2.6993,2.6975,2.695,2.6168,2.5779,2.5759,2.5382,2.5214,2.5215,2.5245,2.5287,2.5337,2.5378,2.5421,2.5445,2.5478,2.5485,2.5455,2.5485,2.5487,2.5456,2.5444,2.5432,2.5391,2.5389,2.5397,2.5385,2.5395,2.5194,2.478,0.0,0.0,0.0,0.0,0.0,0.0,0.0,0.0,0.0,0.0,0.0,2.2414,2.2414,2.2621,2.3028,2.3358,2.3663,2.3964,2.3755,2.3278,2.2388,2.3438,2.4102,2.4019,2.4361,2.4615,2.4594,2.465,2.4715,2.4753,2.4896,2.4922,2.473,2.4578,2.4392,2.4162,2.4112,2.4113,2.4143,2.4409,2.4665,2.4844,2.5393,2.5614,2.5271,2.5212,2.5195,2.5163,2.4972,2.4824,2.4707,2.4512,2.4401,2.4312,2.4302,2.4373,2.4564,2.4665,2.4834,2.5025,2.5125,2.5157,2.5204,2.5266,2.5331,2.5388,2.5393,2.5437,2.5537,2.5563,2.5547,3.0204,3.0204,3.0178,3.0178,3.0133,2.941,2.9096,2.8953,0.0,0.0,0.0,2.7742,2.7811,2.7823,2.7816,2.7818,2.7776,2.6975,2.6549,2.6377,2.5726,2.5359,2.5212,2.5262,2.5332,2.5397,2.5468,2.5506,2.5527,2.557,2.5585,2.5537,2.5585,2.5583,2.551,2.5503,2.5476,2.5423,2.5412,2.5397,2.5397,2.54,2.5063,2.433,2.5085,2.5195,2.4567,2.4596,2.4625,2.4602,2.3941,2.3492,2.3354,2.3492,2.3803,2.4342,2.4555,2.4938,2.5641,2.5526,2.5356,2.5236,2.4891,2.4384,2.3671,2.4264,2.4588,2.442,2.4474,2.4517,2.4478,2.4594,2.4707,2.4768,2.4875,2.4861,2.4692,2.465,2.4561,2.4324,2.4428,2.4504,2.4679,2.4946,2.5117,2.5404,2.6149,2.6344,2.5602,2.5304,2.5193,2.5114,2.4938,2.478,2.4618,2.4425,2.4229,2.422,2.422,2.4302,2.4539,2.4704,2.4877,2.5057,2.516,2.5187,2.5198,2.5247,2.5317,2.54,2.5426,2.5462,2.5556,2.5617,2.5608,3.0204,3.0185,3.015,3.0116,3.0109,2.9984,2.9931,2.979,2.822,2.7547,2.7645,2.8329,2.8655,2.871,2.8667,2.8634,2.8584,2.7807,2.7058,0.0,2.6338,2.5907,2.5212,2.5259,2.5331,2.5414,2.5484,2.5522,2.5587,2.56,2.5603,2.5581,2.5603,2.5554,2.5515,2.5506,2.5484,2.548,2.5429,2.5393,2.5395,2.5391,2.5352,2.5241,2.5395,2.5486,2.543,2.5457,2.5526,2.5523,2.5407,2.4997,2.4293,2.4899,2.5075,2.4507,2.5109,2.5591,2.5696,2.5554,2.5321,2.4987,2.4731,2.4604,2.461,2.4546,2.4515,2.4488,2.4508,2.4482,2.4438,2.4559,2.4669,2.4658,2.4711,2.4692,2.4638,2.5095,2.5299,2.5025,2.5687,2.6091,2.6076,2.6405,2.6674,2.699,2.7159,2.7191,2.6502,2.5662,2.5219,2.5089,2.4972,2.482,2.4631,2.4474,2.4338,2.422,2.4248,2.4347,2.459,2.4707,2.4868,2.5069,2.5119,2.5147,2.5206,2.5259,2.5336,2.5393,2.5476,2.5566,2.5605,2.5646,2.5662,3.0178,3.013,3.0109,3.013,3.0161,3.0181,3.02,3.0142,2.9383,2.901,2.8991,2.9348,2.949,2.944,2.9339,2.9331,2.936,2.8563,2.7811,2.7096,2.6687,2.6055,2.5316,2.5332,2.5395,2.5445,2.5527,2.5576,2.5605,2.5641,2.5665,2.5645,2.5615,2.5573,2.5553,2.5518,2.5479,2.5452,2.5417,2.5385,2.5385,2.5395,2.5391,2.5391,2.5441,2.5506,2.5595,2.5642,2.5659,2.5702,2.5703,2.5527,2.5156,2.5488,2.5527,2.5155,2.5485,2.5693,2.5663,2.5421,2.5177,2.4927,2.4715,2.4639,2.4681,2.4582,2.4482,2.4429,2.4817,2.4929,2.4431,2.4897,2.5252,2.5234,2.5284,2.5435,2.5726,2.5939,2.6019,2.5852,2.6177,2.6536,2.6655,2.6934,2.7256,2.7488,2.7669,2.7726,2.7776,2.7101,2.6173,2.5304,2.4992,2.4844,2.4689,2.4534,2.4434,2.4374,2.4383,2.4497,2.4671,2.4783,2.4924,2.5063,2.5147,2.5212,2.5262,2.5336,2.5414,2.5443,2.552,2.5591,2.5641,2.5664,2.5606,3.0214,3.0166,3.0159,3.0194,3.0228,3.0298,3.0298,3.0299,3.0336,3.0299,3.0161,3.0109,3.0038,2.9904,2.9798,2.9813,2.9829,2.9304,2.8653,2.7988,2.7407,2.6567,2.5669,2.5672,2.5638,2.5536,2.557,2.5607,2.5637,2.5671,2.5699,2.5699,2.5665,2.561,2.5612,2.5528,2.5459,2.5426,2.5408,2.54,2.5393,2.538,2.54,2.54,2.5417,2.5485,2.5583,2.5598,2.5634,2.5683,2.5703,2.5703,2.5703,2.5702,2.5703,2.5703,2.5703,2.5656,2.5572,2.5316,2.5078,2.4933,2.4757,2.4604,2.4599,2.4551,2.4549,2.4672,2.5263,2.5439,2.5134,2.5569,2.6039,2.6048,2.6038,2.6199,2.6663,2.6829,2.6811,2.6654,2.6871,2.723,2.7399,2.7629,2.7987,2.826,2.83,2.858,2.8854,2.8377,2.7358,2.6149,2.5417,2.5095,2.4817,2.4642,2.4559,2.4572,2.4572,2.465,2.4794,2.4902,2.5006,2.5147,2.5259,2.5307,2.5322,2.5417,2.5494,2.5505,2.5554,2.5613,2.5662,2.5625,2.5554,3.0361,3.0367,3.0311,3.0292,3.028,3.0371,3.0359,3.0324,3.0488,3.0466,3.0273,3.0145,3.0026,2.992,2.9883,2.9926,2.9991,3.0036,2.9638,2.8986,2.8961,2.8077,2.6573,2.6609,2.6273,2.5635,2.5643,2.5732,2.5691,2.5697,2.5703,2.5691,2.5681,2.5652,2.56,2.5529,2.5489,2.5489,2.5433,2.5391,2.5391,2.5389,2.5397,2.5397,2.5456,2.5522,2.5598,2.5601,2.5637,2.5703,2.5702,2.5702,2.5701,2.57,2.57,2.5701,2.5702,2.5638,2.5522,2.5367,2.519,2.5006,2.4813,2.466,2.4615,2.4569,2.478,2.5347,2.5616,2.595,2.6486,2.6692,2.6795,2.6795,2.6748,2.6716,2.6874,2.7305,2.7629,2.7497,2.825,2.9021,2.9055,2.9278,2.9619,2.9724,2.9736,2.9602,2.9219,2.8957,2.8452,2.7482,2.6724,2.5858,2.5136,2.4798,2.4802,2.4737,2.4734,2.4808,2.4936,2.5041,2.5133,2.5254,2.5361,2.5382,2.5393,2.5457,2.5515,2.5537,2.5559,2.5603,2.5619,2.5561,2.552,3.0378,3.0342,3.031,3.0322,3.0371,3.0474,3.0495,3.0488,3.055,3.0514,3.0365,3.0292,3.0195,3.0011,2.9973,3.0011,3.0119,3.0182,2.9832,2.9212,2.9237,2.8609,2.7595,2.759,2.7176,2.6439,2.687,2.6624,2.5801,2.5693,2.5699,2.5703,2.5704,2.5675,2.5605,2.5583,2.5551,2.5565,2.5543,2.5523,2.5521,2.5473,2.5455,2.5482,2.5511,2.5593,2.5647,2.5655,2.5673,2.5703,2.5703,2.5703,2.5703,2.5703,2.5703,2.5703,2.5657,2.5567,2.5454,2.5312,2.5179,2.507,2.4868,2.4707,2.469,2.5005,2.555,2.621,2.6395,2.6544,2.6829,2.7276,2.7593,2.7554,2.7512,2.7643,2.804,2.8349,2.8526,2.8533,2.9039,2.9494,2.9697,2.9965,3.0174,3.0286,3.0299,3.0107,2.9794,2.9684,2.9239,2.8503,2.7973,2.7167,2.5933,2.5574,2.5333,2.4941,2.4813,2.4888,2.503,2.5122,2.5201,2.532,2.5406,2.543,2.539,2.5494,2.557,2.5571,2.5575,2.5605,2.5559,2.5535,2.5495,3.0983,3.0747,3.0697,3.0755,3.079,3.0637,3.0612,3.063,3.0612,3.055,3.0471,3.046,3.0361,3.0228,3.0131,3.0151,3.0246,3.0288,3.0085,2.9667,2.9693,2.9269,2.8519,2.8505,2.8111,2.7462,2.7902,2.7434,2.6118,2.6029,2.5955,2.5756,2.5699,2.5675,2.5631,2.5602,2.56,2.5607,2.5603,2.5611,2.5605,2.5554,2.5559,2.5543,2.5585,2.5621,2.5686,2.5692,2.57,2.5702,2.5703,2.5703,2.5703,2.5703,2.5703,2.5703,2.566,2.5552,2.544,2.5275,2.5176,2.5095,2.5078,2.5087,2.5118,2.5611,2.6349,2.7063,2.7203,2.723,2.7572,2.8084,2.841,2.8406,2.8363,2.8566,2.8983,2.9144,2.9167,2.9248,2.9486,2.9792,2.9943,3.0181,3.0323,3.0322,3.0322,3.0323,3.0323,3.0203,2.9908,2.934,2.9202,2.8422,2.6885,2.6186,2.5838,2.5426,2.5158,2.5006,2.5113,2.5211,2.5315,2.5441,2.5492,2.5511,2.5464,2.5528,2.5583,2.5579,2.5583,2.5563,2.5521,2.5495,2.5457,3.2557,3.1768,3.1729,3.1773,3.1779,3.1023,3.0666,3.0762,3.0658,3.0616,3.06,3.0588,3.0592,3.0552,3.0367,3.0314,3.0402,3.0515,3.0606,3.0636,3.0654,3.0219,2.9371,2.9413,2.8993,2.8212,2.8382,2.794,2.7005,2.6909,2.6501,2.576,2.569,2.569,2.568,2.564,2.5608,2.5604,2.5618,2.5614,2.5618,2.5653,2.5647,2.5598,2.5614,2.563,2.5686,2.5692,2.57,2.57,2.5703,2.5703,2.5703,2.5703,2.5702,2.57,2.5633,2.5563,2.5476,2.5314,2.5208,2.5203,2.5555,2.5828,2.5816,2.6377,2.707,2.7847,2.7921,2.8266,2.892,2.907,2.9229,2.9237,2.9222,2.9212,2.9254,2.9368,2.9438,2.9568,2.9799,3.0075,3.0321,3.0381,3.0406,3.0398,3.04,3.0392,3.0397,3.0388,3.0292,3.0227,3.0002,2.9505,2.7837,2.6892,2.638,2.5882,2.5431,2.5143,2.524,2.5348,2.5446,2.5537,2.5554,2.5568,2.5538,2.5515,2.5549,2.5554,2.5524,2.5524,2.5483,2.5445,2.54,3.3028,3.2705,3.2686,3.2672,3.2634,3.2324,3.1913,3.1418,3.1386,3.1067,3.0659,3.0615,3.0613,3.0606,3.0607,3.0646,3.067,3.0698,3.0774,3.0853,3.0877,3.0682,3.0388,3.0387,2.9935,2.9227,2.9602,2.9194,2.7864,2.7281,2.6543,2.5839,2.5702,2.5702,2.5703,2.5681,2.5678,2.5663,2.5662,2.5663,2.5684,2.5702,2.5683,2.5662,2.5661,2.5681,2.5701,2.5702,2.5703,2.57,2.5703,2.57,2.5702,2.5702,2.5703,2.5681,2.5639,2.5558,2.5443,2.5328,2.5461,2.5844,2.5921,2.6201,2.6631,2.7195,2.7687,2.7978,2.8498,2.8944,2.9118,2.9334,2.9386,2.9344,2.9368,2.9392,2.9418,2.9567,2.9747,2.987,3.0084,3.0339,3.0447,3.0451,3.0449,3.0506,3.0452,3.0462,3.0496,3.0458,3.0424,3.0409,3.0353,3.0096,2.9545,2.7985,2.697,2.628,2.5761,2.5403,2.534,2.551,2.5643,2.5861,2.5836,2.5607,2.5569,2.5557,2.5566,2.5663,2.5644,2.5718,2.5444,2.5702,2.5588,3.3806,3.3975,3.3742,3.3604,3.3505,3.3258,3.2817,3.2222,3.1923,3.1512,3.1051,3.0748,3.0614,3.0649,3.0756,3.0802,3.0803,3.0803,3.0836,3.0898,3.0916,3.0915,3.0915,3.0917,3.0566,3.0096,3.0526,3.0077,2.8807,2.8125,2.7245,2.6201,2.6112,2.5956,2.5755,2.5702,2.5703,2.5701,2.57,2.5697,2.5689,2.5694,2.5697,2.57,2.5702,2.5703,2.5703,2.5703,2.5702,2.5702,2.5681,2.5672,2.5675,2.5675,2.5681,2.5683,2.5638,2.5563,2.5435,2.5336,2.5564,2.6257,2.6394,2.6689,2.7408,2.7992,2.8252,2.8408,2.871,2.91,2.9203,2.933,2.9421,2.9402,2.9504,2.9606,2.9636,2.9856,3.0054,3.023,3.039,3.0536,3.061,3.0563,3.055,3.0611,3.055,3.0554,3.0607,3.0591,3.0532,3.0528,3.0498,3.0443,3.0023,2.8931,2.7834,2.7094,2.6251,2.5827,2.5738,2.5855,2.5999,2.6168,2.6047,2.5741,2.5614,2.5626,2.5722,2.5852,2.6098,2.6268,2.6169,2.6148,2.6028,3.4987,3.5503,3.4847,3.4489,3.4391,3.374,3.3283,3.3074,3.2275,3.1879,3.1648,3.0978,3.0626,3.0701,3.0762,3.0783,3.0787,3.0816,3.084,3.0895,3.0911,3.0912,3.0916,3.0915,3.0897,3.0781,3.0859,3.0407,2.9524,2.9308,2.8523,2.7214,2.6946,2.6554,2.5706,2.5756,2.5757,2.5711,2.5691,2.569,2.5688,2.5693,2.5677,2.568,2.5701,2.5702,2.5703,2.5703,2.5702,2.5703,2.5657,2.5603,2.5605,2.5605,2.5633,2.5682,2.5651,2.5574,2.5502,2.5401,2.5723,2.6448,2.6938,2.7508,2.8166,2.864,2.8874,2.8847,2.8913,2.9037,2.9312,2.9465,2.9533,2.9542,2.9769,2.9944,3.0056,3.02,3.0409,3.0608,3.0657,3.0691,3.07,3.0684,3.0678,3.0678,3.0688,3.0685,3.0697,3.0725,3.0789,3.0762,3.0662,3.0595,3.0265,2.9815,2.8892,2.8,2.707,2.6423,2.6581,2.6731,2.6919,2.7042,2.6447,2.6158,2.6184,2.6189,2.625,2.6386,2.6641,2.6931,2.7035,2.6993,2.6627,3.5613,3.5822,3.5539,3.537,3.5296,3.504,3.4599,3.397,3.3083,3.2401,3.1812,3.103,3.0665,3.0717,3.0767,3.0799,3.0795,3.0839,3.0879,3.0914,3.091,3.0909,3.0911,3.0914,3.0917,3.0918,3.0916,3.0465,2.9758,2.9569,2.8661,2.7374,2.7581,2.7027,2.5777,2.622,2.6342,2.5754,2.5647,2.5621,2.5637,2.5586,2.5575,2.5642,2.5629,2.5638,2.5703,2.5703,2.5703,2.5703,2.568,2.5671,2.567,2.567,2.5675,2.57,2.5693,2.5645,2.5642,2.6005,2.6497,2.7222,2.7812,2.843,2.8951,2.905,2.9033,2.8929,2.9014,2.9163,2.9254,2.9605,2.9796,2.9784,2.9958,3.0126,3.0262,3.0432,3.0616,3.0792,3.0744,3.071,3.0731,3.0732,3.0726,3.0754,3.0733,3.0717,3.0767,3.0784,3.0801,3.0777,3.0739,3.0706,3.0468,3.025,2.9726,2.8857,2.7954,2.7396,2.7509,2.7554,2.7786,2.7706,2.7106,2.6757,2.6777,2.6815,2.6866,2.7076,2.7387,2.7677,2.7949,2.7723,2.7234,3.5886,3.5885,3.5861,3.5795,3.5727,3.5703,3.5416,3.4805,3.3984,3.3156,3.2344,3.1552,3.1014,3.0799,3.0781,3.0804,3.0854,3.0878,3.0918,3.0916,3.0911,3.0907,3.0908,3.0914,3.0917,3.0897,3.0834,3.0579,3.0112,2.9947,2.9244,2.8236,2.8117,2.7504,2.6184,2.6301,2.6168,2.5705,2.5611,2.5578,2.5554,2.5544,2.5559,2.5611,2.5633,2.5651,2.57,2.5703,2.5703,2.5703,2.5696,2.5687,2.5706,2.5706,2.5693,2.5699,2.5696,2.5681,2.5675,2.6262,2.7024,2.7695,2.8316,2.8952,2.9446,2.9416,2.918,2.9123,2.9191,2.9287,2.9418,2.9727,3.0006,3.0131,3.0256,3.0356,3.0489,3.0657,3.0787,3.0859,3.0839,3.0816,3.0813,3.0804,3.0785,3.0812,3.0771,3.0745,3.079,3.08,3.0793,3.0786,3.0774,3.0745,3.0739,3.0592,3.045,2.9706,2.8868,2.8568,2.8517,2.8427,2.8489,2.8535,2.8142,2.7734,2.7673,2.7572,2.7604,2.7896,2.8131,2.8526,2.8723,2.8098,2.7542,3.5895,3.589,3.5894,3.5836,3.5788,3.5741,3.5669,3.5532,3.4778,3.3929,3.3106,3.2221,3.1481,3.0915,3.078,3.0814,3.0874,3.0859,3.0877,3.0875,3.0868,3.0882,3.0884,3.0871,3.0894,3.0876,3.0807,3.0766,3.0692,3.0609,3.029,2.9288,2.8688,2.7814,2.6909,2.6115,2.6026,2.5807,2.5679,2.5662,2.5634,2.5543,2.5586,2.5586,2.5634,2.5677,2.5687,2.57,2.5742,2.578,2.5788,2.5757,2.5792,2.5752,2.5709,2.5819,2.576,2.5772,2.5845,2.6522,2.7163,2.7832,2.8574,2.9172,2.979,2.9641,2.9486,2.9438,2.9447,2.9533,2.9748,2.9965,3.019,3.0462,3.0587,3.0672,3.0794,3.0859,3.0878,3.0896,3.0895,3.0895,3.0898,3.0898,3.0895,3.0871,3.0841,3.0807,3.0801,3.0796,3.0784,3.0802,3.0788,3.0784,3.0765,3.0733,3.0611,3.0336,2.9686,2.9556,2.946,2.9348,2.9297,2.933,2.905,2.8701,2.8408,2.8248,2.8285,2.848,2.8856,2.9372,2.9157,2.8451,2.7646,3.5896,3.5896,3.5857,3.5814,3.578,3.5721,3.5715,3.5597,3.4855,3.4078,3.3226,3.2381,3.1588,3.0834,3.0742,3.0756,3.0795,3.0783,3.0742,3.0751,3.0763,3.0767,3.0757,3.0744,3.08,3.0871,3.0844,3.0819,3.0741,3.0667,3.0209,2.94,2.953,2.8635,2.7035,2.7612,2.7466,2.6571,2.6385,2.6355,2.625,2.5669,2.5441,2.5522,2.5551,2.5593,2.5636,2.5673,2.6035,2.6559,2.6027,2.6023,2.6435,2.6026,2.5953,2.6406,2.6054,2.5994,2.6609,2.7244,2.7741,2.798,2.8986,2.9867,2.9897,2.9763,2.9642,2.9605,2.9667,2.9804,2.9912,3.017,3.0451,3.067,3.0753,3.0774,3.0838,3.0898,3.0916,3.0914,3.0914,3.0915,3.0917,3.0918,3.0916,3.0893,3.0847,3.0795,3.0796,3.0785,3.0786,3.0785,3.0785,3.0801,3.0796,3.0788,3.0765,3.0747,3.0501,3.0397,3.0328,3.0273,3.0304,3.0362,2.9624,2.9158,2.8885,2.8667,2.8863,2.898,2.9356,2.9674,2.9264,2.8655,2.7732,3.5898,3.5859,3.582,3.5795,3.5791,3.5766,3.573,3.5659,3.5282,3.4371,3.3356,3.2794,3.1853,3.082,3.0723,3.0728,3.0752,3.0714,3.0698,3.0701,3.067,3.0667,3.0684,3.0672,3.0696,3.0757,3.0741,3.0682,3.0642,3.059,3.0276,2.9926,2.983,2.9066,2.7984,2.8126,2.8232,2.7316,2.6912,2.6663,2.6602,2.5798,2.5431,2.5461,2.5498,2.5532,2.5584,2.562,2.5934,2.6228,2.6009,2.5932,2.6324,2.5994,2.6113,2.6874,2.6191,2.6074,2.6853,2.7413,2.7712,2.8142,2.9202,2.9844,3.012,3.0105,3.0004,2.9966,3.0068,3.0132,3.0196,3.0424,3.062,3.0715,3.0761,3.0781,3.0879,3.0918,3.0917,3.0917,3.0917,3.0917,3.0917,3.0918,3.0916,3.0895,3.0837,3.0813,3.0792,3.0799,3.0781,3.0781,3.0761,3.0761,3.076,3.0759,3.0759,3.0759,3.0781,3.0781,3.0779,3.0769,3.0539,3.0344,2.9978,2.9592,2.9179,2.8961,2.9175,2.9372,2.9728,2.9297,2.8633,2.839,2.7527,3.5841,3.5767,3.5768,3.5778,3.5762,3.5787,3.5793,3.5814,3.5807,3.4919,3.3659,3.332,3.2312,3.0851,3.0765,3.0682,3.0689,3.065,3.0675,3.0667,3.0642,3.0626,3.0678,3.0633,3.0613,3.0642,3.056,3.0579,3.0593,3.0552,3.054,3.033,2.9747,2.9361,2.8964,2.8623,2.8237,2.7991,2.7277,2.6935,2.6703,2.5953,2.5394,2.5406,2.5449,2.5526,2.557,2.5605,2.567,2.5719,2.57,2.5878,2.5936,2.5996,2.6327,2.6872,2.6521,2.6288,2.6855,2.7137,2.7426,2.8186,2.9003,2.9728,3.0369,3.0462,3.0409,3.0347,3.0478,3.0467,3.0493,3.0627,3.0661,3.0699,3.0698,3.0759,3.0836,3.0878,3.0878,3.0878,3.0898,3.0878,3.0879,3.0879,3.0879,3.0838,3.08,3.0781,3.0781,3.0756,3.0751,3.0732,3.0713,3.0715,3.0715,3.0716,3.0715,3.0714,3.0762,3.0771,3.0776,3.0663,3.0349,3.0063,2.9799,2.9468,2.9067,2.9087,2.9162,2.8939,2.8737,2.7997,2.7277,2.7412,2.6948,3.5674,3.5566,3.562,3.5613,3.5578,3.5716,3.5836,3.5862,3.5895,3.5249,3.4273,3.3534,3.2603,3.1543,3.0863,3.0578,3.0609,3.0576,3.0585,3.0617,3.0563,3.0568,3.0628,3.0603,3.0625,3.0633,3.0662,3.0642,3.0587,3.0595,3.0557,3.046,3.0235,2.9849,2.933,2.9622,2.951,2.8902,2.8063,2.7638,2.7304,2.6164,2.5394,2.5384,2.5401,2.5476,2.5581,2.5604,2.5598,2.5633,2.572,2.6169,2.7027,2.6871,2.7027,2.7474,2.7122,2.6735,2.7051,2.7512,2.7978,2.8345,2.9424,3.0461,3.0539,3.0601,3.0568,3.0561,3.0575,3.0583,3.0612,3.0624,3.0625,3.0648,3.0672,3.0686,3.0734,3.0767,3.0773,3.0816,3.0817,3.0815,3.0816,3.0824,3.0806,3.0762,3.0764,3.0766,3.0757,3.0723,3.0714,3.0689,3.0689,3.0671,3.0671,3.0673,3.0669,3.0665,3.0682,3.0703,3.0711,3.0691,3.0408,3.0064,2.9696,2.9355,2.8993,2.8348,2.8245,2.7974,2.7692,2.718,2.6759,2.6699,2.6527,3.5563,3.5415,3.5418,3.544,3.553,3.5629,3.5788,3.5915,3.5935,3.5194,3.4072,3.3387,3.2493,3.1263,3.0757,3.055,3.058,3.0572,3.0577,3.0595,3.0558,3.0595,3.0625,3.0641,3.063,3.0641,3.0644,3.063,3.0614,3.0607,3.0571,3.0545,3.0509,3.0296,2.9927,3.0272,3.0187,2.9737,2.8965,2.8501,2.8244,2.6828,2.5654,2.5459,2.5393,2.5456,2.554,2.5549,2.5569,2.5593,2.5675,2.6232,2.7213,2.6905,2.7081,2.788,2.7045,2.699,2.7422,2.7632,2.7954,2.8805,2.9694,3.0156,3.05,3.0629,3.0604,3.0614,3.0622,3.0644,3.0555,3.0524,3.052,3.0509,3.0548,3.056,3.0603,3.0667,3.0728,3.0776,3.0803,3.0801,3.0803,3.078,3.0762,3.0726,3.0739,3.0722,3.0728,3.0703,3.0671,3.0662,3.0643,3.0643,3.0646,3.0646,3.0643,3.063,3.0586,3.0591,3.0587,3.0568,3.0545,3.0097,2.9625,2.9303,2.89,2.8183,2.7327,2.7089,2.6813,2.6486,2.6202,2.5957,2.5814,3.5462,3.5268,3.522,3.531,3.5452,3.55,3.5702,3.5956,3.5819,3.4926,3.3594,3.3206,3.2132,3.0994,3.0603,3.0569,3.0592,3.0604,3.0597,3.0593,3.061,3.0634,3.0683,3.0674,3.0648,3.057,3.0611,3.0638,3.0625,3.0607,3.0642,3.0625,3.0619,3.0549,3.0587,3.0595,3.0513,3.0279,2.9511,2.9061,2.8905,2.759,2.6554,2.6161,2.6035,2.6095,2.6171,2.613,2.5981,2.5819,2.5803,2.6226,2.656,2.6492,2.6554,2.8155,2.7087,2.7128,2.7871,2.7948,2.8239,2.9548,2.9702,2.9975,3.0507,3.0663,3.0636,3.0599,3.0591,3.0499,3.0354,3.026,3.0224,3.0181,3.0239,3.0306,3.0365,3.049,3.0613,3.0754,3.0767,3.0765,3.0769,3.0769,3.0737,3.0698,3.07,3.0685,3.0685,3.0671,3.0645,3.0626,3.0634,3.0595,3.0591,3.0511,3.0527,3.0505,3.0477,3.0463,3.0458,3.0453,3.0366,2.9969,2.9567,2.9047,2.8213,2.7152,2.6491,2.6222,2.5959,2.5694,2.5428,2.5157,2.5201,3.5385,3.5127,3.5179,3.5243,3.535,3.5452,3.569,3.5835,3.5206,3.4659,3.4091,3.2797,3.2008,3.145,3.0836,3.0604,3.0604,3.0621,3.061,3.0618,3.0661,3.069,3.0698,3.0719,3.0709,3.0731,3.0719,3.0697,3.0695,3.0694,3.0715,3.0757,3.0761,3.0721,3.067,3.0626,3.0597,3.0472,2.9777,2.938,2.9066,2.8338,2.7595,2.7318,2.726,2.7357,2.7501,2.7554,2.7369,2.6784,2.6699,2.6786,2.6929,2.6804,2.7278,2.7907,2.7928,2.7851,2.834,2.8867,2.9141,2.9628,3.0076,3.0436,3.0671,3.0681,3.0606,3.0515,3.0378,3.0221,3.009,2.9924,2.9745,2.9658,2.9669,2.9763,2.9779,2.9973,3.0322,3.0564,3.0635,3.073,3.0745,3.0725,3.07,3.0675,3.0662,3.0642,3.0618,3.0614,3.0606,3.0608,3.0619,3.0578,3.0525,3.0402,3.0337,3.0309,3.0287,3.0269,3.0269,3.0317,3.0142,2.9641,2.887,2.8046,2.7135,2.6194,2.5722,2.5513,2.5222,2.4949,2.4962,2.4987,2.5127,3.5462,3.5261,3.5265,3.5287,3.5376,3.5468,3.5646,3.576,3.5016,3.4362,3.3656,3.2558,3.1672,3.127,3.0894,3.0649,3.0657,3.0653,3.0661,3.0668,3.0683,3.0717,3.0745,3.0747,3.0774,3.0784,3.0778,3.075,3.0767,3.0799,3.0786,3.0788,3.0798,3.0778,3.0723,3.0639,3.061,3.0452,3.0115,2.9844,2.9786,2.9028,2.8545,2.8124,2.8079,2.807,2.8086,2.8105,2.7932,2.7539,2.7132,2.6988,2.701,2.7158,2.7416,2.8142,2.8339,2.8574,2.8887,2.9434,2.9707,3.0171,3.0568,3.0691,3.065,3.0579,3.0457,3.026,3.0165,2.9942,2.9715,2.9438,2.924,2.9113,2.9093,2.9107,2.9289,2.9528,2.9884,3.0249,3.0472,3.0599,3.0701,3.069,3.0645,3.0641,3.0636,3.0586,3.0535,3.0492,3.0487,3.0442,3.0411,3.0373,3.0334,3.0241,3.0151,3.0118,3.0077,3.0063,3.007,3.0091,2.971,2.9187,2.8281,2.7596,2.663,2.5913,2.5374,2.4893,2.4861,2.4835,2.4832,2.4876,2.5036,3.5607,3.5435,3.5357,3.5391,3.5452,3.5493,3.5527,3.5416,3.4746,3.3912,3.3087,3.2172,3.1351,3.085,3.069,3.0672,3.0696,3.0692,3.0699,3.0706,3.0701,3.0713,3.0762,3.0784,3.0795,3.0751,3.0769,3.0794,3.0781,3.0807,3.0812,3.0783,3.0773,3.0745,3.0671,3.063,3.0613,3.0592,3.053,3.052,3.0356,2.9887,2.9268,2.8614,2.8577,2.871,2.8838,2.886,2.8692,2.8369,2.793,2.7425,2.7334,2.7434,2.7846,2.8415,2.8574,2.9043,2.9609,2.9862,3.0189,3.0584,3.0669,3.065,3.0556,3.0428,3.0222,2.9943,2.971,2.9569,2.9243,2.8924,2.8638,2.8476,2.8342,2.8373,2.8665,2.8967,2.9316,2.9722,3.017,3.0407,3.0463,3.051,3.0438,3.0402,3.0389,3.0411,3.0367,3.0309,3.0266,3.0203,3.0171,3.0138,3.0096,2.9999,2.9939,2.9877,2.984,2.979,2.9834,2.9867,2.9338,2.8809,2.8604,2.7886,2.6765,2.5735,2.5206,2.4858,2.4768,2.476,2.483,2.49,2.5025,3.5693,3.5578,3.5496,3.551,3.5572,3.5607,3.529,3.4756,3.3984,3.3061,3.2323,3.1416,3.0918,3.0719,3.0621,3.0603,3.0629,3.0657,3.0677,3.068,3.0678,3.0682,3.0725,3.0772,3.075,3.0701,3.0716,3.0743,3.0749,3.0741,3.0722,3.0715,3.07,3.0678,3.0628,3.0606,3.0612,3.0593,3.053,3.0525,3.0569,3.0419,3.0283,3.0199,3.0154,3.0117,3.0079,3.003,2.9899,2.9357,2.9232,2.8803,2.8426,2.8939,2.9233,2.943,2.9547,2.9822,3.0466,3.0558,3.0502,3.0706,3.0667,3.0603,3.0457,3.0266,3.0063,2.9842,2.9457,2.9095,2.8782,2.8319,2.7915,2.7712,2.7645,2.7642,2.7818,2.8268,2.8658,2.9154,2.9584,2.9949,3.0145,3.0184,3.0222,3.0177,3.0157,3.0171,3.0005,2.9774,3.0042,3.0002,2.9736,2.9673,2.9842,2.9761,2.9703,2.9662,2.9617,2.9532,2.9495,2.9439,2.8969,2.8534,2.8419,2.8118,2.7098,2.6131,2.527,2.4849,2.4746,2.4801,2.4884,2.496,2.5032,3.5869,3.5824,3.5765,3.5719,3.5718,3.5758,3.532,3.4521,3.3725,3.291,3.2045,3.118,3.074,3.0639,3.0531,3.0506,3.054,3.0573,3.0572,3.0604,3.0599,3.0603,3.0637,3.0655,3.0665,3.0639,3.0626,3.0616,3.0649,3.0686,3.0706,3.0646,3.0632,3.0634,3.061,3.0601,3.0602,3.0593,3.0564,3.0569,3.0593,3.0617,3.0612,3.0615,3.0608,3.0645,3.0687,3.0698,3.0603,3.0133,2.9863,2.9387,2.9165,2.9365,2.958,2.9604,3.0043,3.0454,3.0812,3.0821,3.0776,3.0697,3.0623,3.0513,3.0344,3.0188,2.9977,2.9697,2.9358,2.8979,2.8548,2.8057,2.7651,2.7352,2.7082,2.7096,2.7205,2.7499,2.7946,2.8488,2.901,2.9363,2.9725,2.9912,3.0006,3.0054,2.9925,2.9806,2.9298,2.8634,2.9118,2.9791,2.9439,2.9125,2.9388,2.9514,2.9456,2.9425,2.9443,2.9341,2.9161,2.8946,2.8651,2.8428,2.8334,2.7892,2.7215,2.6533,2.5684,2.5175,2.4723,2.4922,2.5095,2.5019,2.5199,3.5975,3.596,3.5936,3.5892,3.5832,3.5889,3.5274,3.4185,3.364,3.2791,3.1815,3.1019,3.0617,3.05,3.0381,3.0325,3.0414,3.043,3.0467,3.0487,3.0487,3.0525,3.0552,3.0565,3.0531,3.0544,3.0522,3.0524,3.0524,3.0542,3.0563,3.0563,3.0552,3.0554,3.0578,3.0569,3.0564,3.0617,3.0598,3.0598,3.0617,3.0607,3.0601,3.0604,3.061,3.0645,3.0695,3.0722,3.074,3.0613,3.0279,2.9959,2.9907,2.9987,3.0043,3.0103,3.0461,3.0686,3.0804,3.079,3.0752,3.0661,3.0556,3.0418,3.0266,3.0152,2.9977,2.9672,2.9289,2.8915,2.8473,2.789,2.7441,2.702,2.6657,2.6657,2.6724,2.7076,2.7455,2.7977,2.8475,2.8847,2.92,2.955,2.9736,2.988,2.976,2.9502,2.8833,2.8006,2.8113,2.8862,2.8783,2.8475,2.8705,2.8938,2.9003,2.9192,2.92,2.9093,2.8925,2.8838,2.8698,2.8492,2.8283,2.7572,2.6839,2.6493,2.6177,2.5935,2.5698,2.5351,2.5312,2.5203,2.5401,3.5914,3.5916,3.5956,3.5934,3.5898,3.5975,3.5033,3.3598,3.345,3.2479,3.1111,3.0616,3.0423,3.0288,3.017,3.0122,3.0222,3.0292,3.0383,3.0439,3.0451,3.0451,3.0462,3.0437,3.0407,3.0416,3.0425,3.0422,3.0408,3.0361,3.0419,3.0485,3.0465,3.0471,3.0505,3.052,3.054,3.0593,3.0617,3.0617,3.0607,3.0616,3.0604,3.0602,3.0649,3.0703,3.0697,3.0742,3.0769,3.0798,3.0656,3.0584,3.0506,3.0547,3.0543,3.057,3.0638,3.0756,3.0733,3.0734,3.0675,3.0564,3.0453,3.0358,3.0273,3.0157,2.9964,2.9689,2.9289,2.8794,2.8293,2.7704,2.7336,2.6923,2.6607,2.6418,2.6505,2.6724,2.7109,2.7522,2.7952,2.8389,2.8658,2.9001,2.9409,2.9579,2.9391,2.9135,2.8649,2.792,2.7471,2.7653,2.7785,2.7791,2.7912,2.818,2.8621,2.8874,2.8975,2.8821,2.8621,2.8585,2.8595,2.8448,2.8155,2.7314,2.6783,2.6999,2.7093,2.6923,2.6535,2.5616,2.527,2.5215,2.5603,3.5808,3.5778,3.5804,3.5848,3.5885,3.5972,3.5,3.3554,3.3379,3.2395,3.0693,3.0509,3.0353,3.0209,3.0053,3.0023,3.0126,3.0154,3.0267,3.0336,3.0367,3.0354,3.0359,3.0359,3.0342,3.0355,3.0329,3.0311,3.028,3.0248,3.0292,3.0355,3.0377,3.0411,3.0439,3.0481,3.053,3.0588,3.0617,3.0617,3.0602,3.0606,3.0608,3.0606,3.0669,3.071,3.0716,3.0786,3.0793,3.0796,3.0807,3.0809,3.0827,3.0843,3.081,3.0752,3.0738,3.0703,3.0669,3.0667,3.0645,3.054,3.0428,3.0349,3.0292,3.0123,2.9937,2.9653,2.9307,2.8842,2.8478,2.7922,2.743,2.6989,2.6624,2.6365,2.633,2.6539,2.6791,2.722,2.7601,2.7992,2.8224,2.844,2.8879,2.923,2.8996,2.8726,2.8219,2.7619,2.7044,2.6684,2.6819,2.7203,2.7354,2.7823,2.8338,2.8535,2.8713,2.8626,2.8464,2.8404,2.8379,2.8261,2.827,2.7878,2.7735,2.7959,2.7703,2.6935,2.6078,2.5139,2.5042,2.5182,2.5775,3.5729,3.5674,3.5644,3.5704,3.5824,3.5914,3.4979,3.3547,3.3369,3.2321,3.0574,3.0404,3.0288,3.014,3.0007,2.998,3.0072,3.0109,3.0173,3.0221,3.0273,3.0266,3.0266,3.0266,3.0273,3.0286,3.026,3.0246,3.0227,3.0214,3.0254,3.0299,3.0329,3.0352,3.0403,3.0465,3.055,3.0593,3.0617,3.0554,3.055,3.0554,3.0549,3.0563,3.0576,3.0626,3.0658,3.0713,3.0745,3.0752,3.0769,3.0794,3.0788,3.0776,3.073,3.0706,3.0678,3.0637,3.0599,3.0597,3.0591,3.049,3.0408,3.0343,3.0254,3.0078,2.9913,2.9734,2.9367,2.8993,2.8694,2.8183,2.771,2.7286,2.6708,2.6419,2.6296,2.6401,2.6624,2.6922,2.7257,2.758,2.7883,2.8112,2.8523,2.885,2.8792,2.8388,2.7795,2.71,2.6303,2.6018,2.594,2.6381,2.6849,2.7497,2.8065,2.8195,2.8367,2.8484,2.8409,2.8295,2.8286,2.8319,2.8368,2.8467,2.8264,2.7924,2.7261,2.654,2.5884,2.5379,2.499,2.5215,2.5932,3.5601,3.5602,3.5419,3.5496,3.5678,3.5771,3.482,3.3332,3.3078,3.2093,3.0563,3.0314,3.0171,3.009,2.9967,2.9983,3.0068,3.0091,3.0142,3.0194,3.0239,3.0213,3.0219,3.0219,3.0226,3.0218,3.0239,3.024,3.0214,3.0221,3.026,3.0286,3.0322,3.0352,3.0398,3.0451,3.053,3.0593,3.0617,3.051,3.0406,3.0456,3.0482,3.0437,3.0457,3.0519,3.0614,3.061,3.0652,3.0728,3.0733,3.0765,3.078,3.0733,3.0697,3.0671,3.063,3.0589,3.053,3.0519,3.0493,3.0442,3.0367,3.033,3.028,3.0092,2.9913,2.9724,2.9465,2.9185,2.8844,2.8471,2.8025,2.7584,2.7047,2.659,2.6522,2.6243,2.6453,2.6385,2.6725,2.7136,2.7474,2.7805,2.82,2.8443,2.85,2.8163,2.7607,2.7258,2.666,2.6091,2.6007,2.6144,2.6747,2.7327,2.7783,2.7894,2.8021,2.8139,2.8165,2.8044,2.8108,2.8257,2.8046,2.7767,2.7682,2.7553,2.7174,2.6872,2.6477,2.5993,2.5466,2.5263,2.5905,3.5463,3.5285,3.4626,3.4777,3.5366,3.503,3.4205,3.306,3.1988,3.1058,3.0525,3.0284,3.0157,3.0072,2.9988,2.9983,3.0068,3.0083,3.0135,3.0199,3.0211,3.0213,3.0219,3.0207,3.0207,3.0253,3.026,3.0253,3.0266,3.0266,3.028,3.0304,3.0358,3.0411,3.0444,3.0505,3.053,3.0593,3.0588,3.0496,3.0323,3.0406,3.0436,3.0325,3.0365,3.0438,3.0565,3.0542,3.0599,3.0668,3.0694,3.0697,3.0712,3.0675,3.0614,3.0585,3.053,3.0501,3.0444,3.0436,3.0439,3.039,3.0342,3.0311,3.0286,2.9985,2.9834,2.9715,2.9513,2.9259,2.9056,2.879,2.8422,2.8066,2.7566,2.708,2.6791,2.635,2.6157,2.5837,2.5928,2.5932,2.6148,2.6535,2.6981,2.775,2.7896,2.8324,2.8013,2.8151,2.7866,2.6987,2.6585,2.6445,2.6644,2.7089,2.7211,2.7171,2.747,2.7819,2.7812,2.7815,2.7434,2.7301,2.714,2.7005,2.7096,2.7241,2.7519,2.7362,2.6602,2.5917,2.5264,2.5217,2.5744,3.5143,3.4947,3.431,3.4267,3.4611,3.4032,3.3319,3.2434,3.109,3.0414,3.034,3.0248,3.0168,3.0121,3.0068,3.0026,3.0121,3.0121,3.0123,3.0199,3.0206,3.0226,3.0227,3.0227,3.0247,3.0286,3.0292,3.0292,3.0286,3.0305,3.0329,3.0389,3.0433,3.0495,3.052,3.0535,3.053,3.0588,3.0588,3.0485,3.035,3.0333,3.0383,3.0298,3.0291,3.0373,3.0462,3.0516,3.0537,3.0603,3.0628,3.0644,3.0664,3.0618,3.0525,3.0472,3.0425,3.0403,3.0369,3.0402,3.041,3.0404,3.0342,3.0316,3.0267,3.0,2.9902,2.976,2.9531,2.9373,2.923,2.8997,2.8795,2.8448,2.8089,2.7596,2.7118,2.6686,2.5419,2.5123,2.4251,2.4351,2.4724,2.513,2.5541,2.6458,2.7299,2.7785,2.8241,2.8407,2.8449,2.771,2.6811,2.6395,2.6385,2.6655,2.6682,2.6492,2.7114,2.7925,2.7652,2.7644,2.6992,2.6451,2.6563,2.6665,2.6747,2.6892,2.7054,2.6759,2.6057,2.5459,2.4957,2.5427,2.6074,3.4686,3.4663,3.4438,3.3976,3.3479,3.2899,3.2239,3.1589,3.0687,3.0305,3.0305,3.0227,3.0206,3.0204,3.0197,3.0197,3.0178,3.0178,3.0159,3.0154,3.0147,3.0181,3.0207,3.0214,3.0214,3.0247,3.0267,3.0273,3.0298,3.0316,3.0364,3.0474,3.054,3.0583,3.0577,3.0577,3.0564,3.0592,3.0588,3.0455,3.0297,3.0304,3.0286,3.0214,3.0213,3.0273,3.0346,3.0411,3.0477,3.0542,3.0611,3.068,3.0661,3.0563,3.0467,3.0386,3.0297,3.0273,3.0273,3.0317,3.0404,3.0379,3.0323,3.0336,3.0273,3.0056,2.9945,2.9822,2.9636,2.9512,2.9363,2.9251,2.9137,2.8824,2.8536,2.8089,2.7628,2.658,2.4979,2.3834,2.2452,2.2316,2.3133,2.3641,2.4509,2.5526,2.6423,2.6939,2.7458,2.8138,2.8153,2.8062,2.7161,2.6255,2.6321,2.6867,2.6477,2.6386,2.7728,2.8496,2.8072,2.7207,2.66,2.6162,2.6242,2.6279,2.623,2.6295,2.644,2.6085,2.6008,2.5731,2.548,2.6217,2.688,3.4453,3.4379,3.3443,3.3136,3.3112,3.2086,3.1253,3.0611,3.0311,3.0226,3.0213,3.0225,3.0218,3.0204,3.0204,3.0204,3.0218,3.0192,3.0123,3.0097,3.0097,3.0019,2.9996,3.0004,3.0049,3.0128,3.0176,3.026,3.0342,3.0371,3.0439,3.0569,3.0607,3.0632,3.0645,3.0634,3.0633,3.0617,3.0613,3.0451,3.0303,3.0304,3.0241,3.0164,3.014,3.0213,3.0323,3.0303,3.0389,3.0552,3.0549,3.0597,3.0621,3.0521,3.0422,3.0136,3.0073,3.0032,3.0096,3.0235,3.0336,3.0349,3.026,3.0228,3.0181,3.0082,2.994,2.9841,2.9673,2.9502,2.9433,2.9353,2.9324,2.9156,2.8927,2.8689,2.8185,2.7267,2.5555,2.3186,2.1785,2.1683,2.2374,2.271,2.3614,2.4675,2.5543,2.6165,2.7008,2.782,2.8248,2.8213,2.7737,2.6915,2.712,2.763,2.6859,2.6515,2.778,2.8099,2.6636,2.5888,2.5829,2.5702,2.5475,2.5505,2.5575,2.578,2.616,2.6608,2.6593,2.6307,2.6197,2.6743,2.7098,3.3358,3.3056,3.2567,3.2312,3.2042,3.1136,3.046,3.0225,3.0218,3.0211,3.0206,3.0211,3.0218,3.0218,3.0218,3.0218,3.0213,3.02,3.0147,3.0123,3.0079,3.003,2.9923,2.9856,2.995,3.0032,3.0148,3.0279,3.0373,3.0463,3.053,3.0632,3.066,3.0672,3.0714,3.073,3.0691,3.0664,3.0603,3.0482,3.0384,3.0322,3.0247,3.0135,3.0125,3.0213,3.0311,3.0248,3.0384,3.0534,3.0525,3.0525,3.0452,3.0296,3.0122,2.9856,2.9813,2.9869,2.9954,3.0102,3.0228,3.0273,3.0188,3.0121,3.0068,2.9988,2.9959,2.9893,2.9645,2.9453,2.9443,2.9453,2.9484,2.9486,2.9382,2.9277,2.8699,2.8062,2.5857,2.322,2.2202,2.1952,2.209,2.2305,2.2994,2.4464,2.5479,2.6057,2.712,2.8303,2.8696,2.8802,2.8307,2.7707,2.8015,2.7985,2.7268,2.6847,2.7443,2.7261,2.5471,2.5044,2.5466,2.5088,2.4522,2.4813,2.534,2.5685,2.6061,2.6462,2.6657,2.6261,2.6161,2.6664,2.6889,3.1832,3.1187,3.1699,3.1426,3.0689,3.0157,3.0014,3.0154,3.0171,3.018,3.02,3.0185,3.0164,3.013,3.0094,3.0097,3.0118,3.0128,3.0126,3.0171,3.0128,3.0023,2.9891,2.9946,2.9899,3.0019,3.0142,3.0254,3.0365,3.0462,3.0597,3.069,3.0697,3.0698,3.0736,3.0722,3.0682,3.0628,3.0614,3.0548,3.0384,3.0334,3.0311,3.015,3.0142,3.0206,3.0228,3.0303,3.0422,3.0477,3.0482,3.0437,3.0222,2.9935,2.9731,2.9635,2.9616,2.966,2.9771,2.9896,3.003,3.0092,3.0111,3.0015,2.9905,2.983,2.9796,2.9754,2.9531,2.9412,2.9411,2.938,2.9373,2.9514,2.9541,2.9612,2.9473,2.8175,2.5768,2.3545,2.2625,2.2447,2.2717,2.3035,2.3471,2.4731,2.5378,2.5897,2.6894,2.8272,2.8764,2.8986,2.8569,2.805,2.8009,2.7913,2.7508,2.7368,2.761,2.7181,2.5933,2.5494,2.5272,2.5033,2.4789,2.4909,2.5282,2.5666,2.5947,2.5997,2.6086,2.5961,2.6129,2.6503,2.6665,3.1139,3.0912,3.0625,3.0436,3.0342,2.9927,2.9787,2.9836,3.0007,3.0085,3.0154,3.0057,2.9988,2.9977,2.9853,2.9851,2.9977,3.0041,3.0004,3.0007,3.0026,2.9948,2.9689,2.9734,2.9787,2.991,3.0052,3.0259,3.0453,3.0579,3.0633,3.0697,3.0695,3.071,3.0682,3.0659,3.0635,3.0583,3.0535,3.0486,3.0389,3.0286,3.0221,3.0157,3.0157,3.0171,3.02,3.0247,3.0266,3.0291,3.0235,3.015,3.0,2.9713,2.9542,2.9455,2.9454,2.9475,2.9561,2.968,2.9801,2.979,2.9765,2.976,2.9698,2.9607,2.9551,2.9522,2.9481,2.9401,2.9349,2.9307,2.933,2.9533,2.9729,2.9935,3.0142,2.8051,2.5737,2.4644,2.3538,2.342,2.3729,2.3912,2.4272,2.4696,2.5104,2.565,2.6468,2.7587,2.8228,2.8446,2.8495,2.8191,2.8088,2.7909,2.7549,2.7314,2.7398,2.6927,2.6257,2.5694,2.5182,2.5379,2.537,2.5259,2.5326,2.5782,2.5959,2.5854,2.5738,2.5719,2.5738,2.6022,2.6196,3.0148,2.9706,2.9535,2.9605,2.9769,2.9632,2.9645,2.9741,2.9826,2.9899,2.9973,2.9869,2.9822,2.9803,2.9698,2.9688,2.9859,2.9934,2.9921,2.9907,2.9924,2.9849,2.9727,2.9636,2.9815,2.9953,3.0137,3.0358,3.0593,3.0636,3.0664,3.072,3.0723,3.0681,3.062,3.06,3.0564,3.0527,3.0443,3.0367,3.0319,3.0273,3.0227,3.0199,3.0164,3.0159,3.018,3.0214,3.0215,3.015,3.0087,2.9931,2.9758,2.9542,2.9373,2.9299,2.9286,2.9299,2.9363,2.9455,2.9589,2.9589,2.957,2.9608,2.9626,2.957,2.9474,2.9424,2.939,2.9315,2.9359,2.932,2.9455,2.9634,2.9834,3.0049,3.0201,2.9404,2.8308,2.7943,2.6914,2.6193,2.6196,2.5546,2.5772,2.5507,2.576,2.583,2.6556,2.6921,2.7515,2.7855,2.7851,2.7986,2.7935,2.7798,2.7652,2.7458,2.7169,2.6471,2.5768,2.535,2.5066,2.525,2.5322,2.5206,2.5379,2.5791,2.5863,2.5758,2.5642,2.5546,2.5605,2.5795,2.6157,2.9189,2.8345,2.865,2.8964,2.9166,2.9324,2.9513,2.968,2.9698,2.9662,2.9607,2.9617,2.9626,2.9653,2.9616,2.9688,2.9732,2.9767,2.9779,2.9868,2.9924,2.9849,2.9841,2.9857,2.9964,3.0104,3.0297,3.0475,3.0686,3.068,3.0694,3.0744,3.0734,3.0704,3.0664,3.0614,3.0511,3.0419,3.0323,3.0228,3.0215,3.0235,3.02,3.0185,3.0178,3.0173,3.0194,3.02,3.0202,3.0078,2.9923,2.9769,2.9636,2.9463,2.933,2.9232,2.9189,2.9214,2.9249,2.928,2.9434,2.9522,2.9502,2.9512,2.9541,2.9493,2.9404,2.9351,2.9304,2.9283,2.9318,2.9384,2.9523,2.9722,2.9912,3.0132,3.0271,3.0382,3.0315,3.0225,2.947,2.8546,2.8003,2.7338,2.6875,2.6605,2.6505,2.6607,2.6691,2.6724,2.7005,2.7095,2.7059,2.7234,2.755,2.7445,2.7282,2.7058,2.6654,2.5938,2.5452,2.5519,2.5406,2.5084,2.5129,2.5094,2.5322,2.5681,2.5697,2.5791,2.5793,2.5832,2.6123,2.6317,2.6522,2.8714,2.8471,2.8712,2.8893,2.9078,2.9285,2.9357,2.9343,2.9475,2.9408,2.928,2.9228,2.9259,2.9385,2.9267,2.9322,2.9533,2.9579,2.9717,2.9816,2.9883,2.9857,2.9874,2.9964,3.0082,3.0248,3.0414,3.0554,3.0681,3.0709,3.0713,3.0711,3.0717,3.0655,3.0539,3.0477,3.0416,3.0315,3.0215,3.0111,3.006,3.0064,3.0068,3.0068,3.0098,3.0161,3.0183,3.0154,3.0057,2.9921,2.9798,2.9636,2.9531,2.9443,2.9341,2.9257,2.9185,2.9189,2.9214,2.9214,2.9351,2.9402,2.9382,2.9394,2.9404,2.938,2.9318,2.9286,2.924,2.9207,2.9214,2.9312,2.9446,2.9713,2.9931,3.019,3.0388,3.0414,3.0389,3.0123,2.9661,2.912,2.8793,2.8108,2.7399,2.7104,2.6788,2.6806,2.6367,2.6435,2.6555,2.642,2.6319,2.6657,2.7004,2.679,2.662,2.6445,2.6237,2.5737,2.5659,2.6151,2.5983,2.5279,2.5074,2.5075,2.535,2.5717,2.5966,2.6083,2.6104,2.6194,2.6539,2.6871,2.7093]}]]